Time,TemperatureF,DewpointF,PressureIn,WindDirection,WindDirectionDegrees,WindSpeedMPH,WindSpeedGustMPH,Humidity,HourlyPrecipIn,Conditions,Clouds,dailyrainin,SoftwareType,DateUTC
2013-01-25 00:00:00,12.2,-0.9,28.91,South,180,4.9,4.9,55,0.00,,---,0.00,VWS V14.01,2013-01-25 06:00:00,
2013-01-25 00:01:00,12.2,-0.9,28.91,WSW,248,3.4,4.9,55,0.00,,---,0.00,VWS V14.01,2013-01-25 06:01:00,
2013-01-25 00:02:00,12.2,-0.9,28.91,SSW,202,4.9,4.9,55,0.00,,---,0.00,VWS V14.01,2013-01-25 06:02:00,
2013-01-25 00:03:00,12.2,-0.9,28.91,SSW,202,4.9,4.9,55,0.00,,---,0.00,VWS V14.01,2013-01-25 06:03:00,
2013-01-25 00:04:00,12.2,-0.9,28.91,South,180,5.4,5.4,55,0.00,,---,0.00,VWS V14.01,2013-01-25 06:04:00,
2013-01-25 00:05:00,12.2,-0.9,28.91,SSW,202,4.9,8.7,55,0.00,,---,0.00,VWS V14.01,2013-01-25 06:05:00,
2013-01-25 00:06:00,12.2,-0.9,28.91,SW,225,2.7,4.9,55,0.00,,---,0.00,VWS V14.01,2013-01-25 06:06:00,
2013-01-25 00:07:00,12.2,-0.9,28.91,SSW,202,4.0,4.0,55,0.00,,---,0.00,VWS V14.01,2013-01-25 06:07:00,
2013-01-25 00:08:00,12.2,-0.9,28.91,SSW,202,5.4,5.4,55,0.00,,---,0.00,VWS V14.01,2013-01-25 06:08:00,
2013-01-25 00:09:00,12.2,-0.9,28.91,SSW,202,4.9,5.4,55,0.00,,---,0.00,VWS V14.01,2013-01-25 06:09:00,
2013-01-25 00:10:00,12.4,-0.7,28.91,SSW,202,4.5,4.9,55,0.00,,---,0.00,VWS V14.01,2013-01-25 06:10:00,
2013-01-25 00:11:00,12.4,-0.7,28.91,SSW,202,4.0,4.9,55,0.00,,---,0.00,VWS V14.01,2013-01-25 06:11:00,
2013-01-25 00:12:00,12.4,-0.7,28.91,SSW,202,3.6,4.0,55,0.00,,---,0.00,VWS V14.01,2013-01-25 06:12:00,
2013-01-25 00:13:00,12.4,-0.7,28.91,SW,225,4.9,4.9,55,0.00,,---,0.00,VWS V14.01,2013-01-25 06:13:00,
2013-01-25 00:14:00,12.4,-0.7,28.91,WSW,248,4.3,6.0,55,0.00,,---,0.00,VWS V14.01,2013-01-25 06:14:00,
2013-01-25 00:15:00,12.4,-0.7,28.91,SW,225,4.3,5.8,55,0.00,,---,0.00,VWS V14.01,2013-01-25 06:15:00,
2013-01-25 00:16:00,12.4,-0.7,28.91,SSW,202,5.6,5.6,55,0.00,,---,0.00,VWS V14.01,2013-01-25 06:16:00,
2013-01-25 00:17:00,12.4,-0.7,28.91,SSW,202,3.8,5.6,55,0.00,,---,0.00,VWS V14.01,2013-01-25 06:17:00,
2013-01-25 00:18:00,12.4,-0.7,28.91,SW,225,4.0,4.7,55,0.00,,---,0.00,VWS V14.01,2013-01-25 06:18:00,
2013-01-25 00:19:00,12.4,-0.7,28.91,SSW,202,4.9,4.9,55,0.00,,---,0.00,VWS V14.01,2013-01-25 06:19:00,
2013-01-25 00:20:00,12.4,-0.7,28.91,SSW,202,3.8,4.9,55,0.00,,---,0.00,VWS V14.01,2013-01-25 06:20:00,
2013-01-25 00:21:00,12.4,-0.7,28.91,SSW,202,4.3,4.9,55,0.00,,---,0.00,VWS V14.01,2013-01-25 06:21:00,
2013-01-25 00:22:00,12.4,-0.7,28.91,SSW,202,4.3,4.3,55,0.00,,---,0.00,VWS V14.01,2013-01-25 06:22:00,
2013-01-25 00:23:00,12.6,-0.5,28.91,South,180,4.3,4.3,55,0.00,,---,0.00,VWS V14.01,2013-01-25 06:23:00,
2013-01-25 00:24:00,12.6,-0.5,28.91,SSW,202,4.7,5.6,55,0.00,,---,0.00,VWS V14.01,2013-01-25 06:24:00,
2013-01-25 00:25:00,12.6,-0.5,28.91,SSW,202,4.3,8.5,55,0.00,,---,0.00,VWS V14.01,2013-01-25 06:25:00,
2013-01-25 00:26:00,12.6,-0.5,28.91,SSW,202,6.3,6.3,55,0.00,,---,0.00,VWS V14.01,2013-01-25 06:26:00,
2013-01-25 00:27:00,12.6,-0.5,28.91,SSW,202,4.9,6.3,55,0.00,,---,0.00,VWS V14.01,2013-01-25 06:27:00,
2013-01-25 00:28:00,12.6,-0.5,28.91,SSW,202,6.3,6.3,55,0.00,,---,0.00,VWS V14.01,2013-01-25 06:28:00,
2013-01-25 00:29:00,12.6,-0.5,28.91,SW,225,6.5,7.6,55,0.00,,---,0.00,VWS V14.01,2013-01-25 06:29:00,
2013-01-25 00:30:00,12.6,-0.5,28.91,SSW,202,5.4,6.5,55,0.00,,---,0.00,VWS V14.01,2013-01-25 06:30:00,
2013-01-25 00:31:00,12.6,-0.5,28.91,SW,225,2.9,5.8,55,0.00,,---,0.00,VWS V14.01,2013-01-25 06:31:00,
2013-01-25 00:32:00,12.6,-0.5,28.91,SSW,202,4.9,6.0,55,0.00,,---,0.00,VWS V14.01,2013-01-25 06:32:00,
2013-01-25 00:33:00,12.6,-0.5,28.91,SSW,202,4.0,4.9,55,0.00,,---,0.00,VWS V14.01,2013-01-25 06:33:00,
2013-01-25 00:34:00,12.6,-0.5,28.91,SW,225,4.7,4.7,55,0.00,,---,0.00,VWS V14.01,2013-01-25 06:34:00,
2013-01-25 00:35:00,12.6,-0.5,28.91,SSW,202,6.9,8.1,55,0.00,,---,0.00,VWS V14.01,2013-01-25 06:35:00,
2013-01-25 00:36:00,12.6,-0.5,28.91,SSW,202,4.3,6.9,55,0.00,,---,0.00,VWS V14.01,2013-01-25 06:36:00,
2013-01-25 00:37:00,12.6,-0.5,28.91,SSW,202,3.4,4.3,55,0.00,,---,0.00,VWS V14.01,2013-01-25 06:37:00,
2013-01-25 00:38:00,12.6,-0.5,28.91,SSW,202,3.8,4.0,55,0.00,,---,0.00,VWS V14.01,2013-01-25 06:38:00,
2013-01-25 00:39:00,12.6,-0.5,28.91,SSW,202,6.3,6.3,55,0.00,,---,0.00,VWS V14.01,2013-01-25 06:39:00,
2013-01-25 00:40:00,12.6,-0.5,28.91,SSE,158,3.1,6.3,55,0.00,,---,0.00,VWS V14.01,2013-01-25 06:40:00,
2013-01-25 00:41:00,12.6,-0.5,28.91,South,180,3.8,4.3,55,0.00,,---,0.00,VWS V14.01,2013-01-25 06:41:00,
2013-01-25 00:42:00,12.6,-0.5,28.91,SSW,202,4.7,4.7,55,0.00,,---,0.00,VWS V14.01,2013-01-25 06:42:00,
2013-01-25 00:43:00,12.6,-0.5,28.91,SSW,202,3.6,4.7,55,0.00,,---,0.00,VWS V14.01,2013-01-25 06:43:00,
2013-01-25 00:44:00,12.6,-0.5,28.91,SSW,202,3.1,3.6,55,0.00,,---,0.00,VWS V14.01,2013-01-25 06:44:00,
2013-01-25 00:45:00,12.6,-0.5,28.91,SW,225,4.7,6.0,55,0.00,,---,0.00,VWS V14.01,2013-01-25 06:45:00,
2013-01-25 00:46:00,12.4,-0.7,28.91,SSW,202,4.3,5.6,55,0.00,,---,0.00,VWS V14.01,2013-01-25 06:46:00,
2013-01-25 00:47:00,12.4,-0.7,28.88,SSW,202,4.3,4.3,55,0.00,,---,0.00,VWS V14.01,2013-01-25 06:47:00,
2013-01-25 00:48:00,12.4,-0.7,28.88,SW,225,6.0,6.0,55,0.00,,---,0.00,VWS V14.01,2013-01-25 06:48:00,
2013-01-25 00:49:00,12.4,-0.7,28.88,SW,225,5.6,7.6,55,0.00,,---,0.00,VWS V14.01,2013-01-25 06:49:00,
2013-01-25 00:50:00,12.4,-0.7,28.88,SSW,202,4.9,6.3,55,0.00,,---,0.00,VWS V14.01,2013-01-25 06:50:00,
2013-01-25 00:51:00,12.4,-0.7,28.88,SSW,202,4.0,4.9,55,0.00,,---,0.00,VWS V14.01,2013-01-25 06:51:00,
2013-01-25 00:52:00,12.4,-0.7,28.88,SSW,202,4.7,4.7,55,0.00,,---,0.00,VWS V14.01,2013-01-25 06:52:00,
2013-01-25 00:53:00,12.4,-0.7,28.88,SSW,202,4.9,5.6,55,0.00,,---,0.00,VWS V14.01,2013-01-25 06:53:00,
2013-01-25 00:54:00,12.2,-0.9,28.88,SSW,202,6.7,6.7,55,0.00,,---,0.00,VWS V14.01,2013-01-25 06:54:00,
2013-01-25 00:55:00,12.2,-0.9,28.88,SSW,202,5.4,6.7,55,0.00,,---,0.00,VWS V14.01,2013-01-25 06:55:00,
2013-01-25 00:56:00,12.2,-0.9,28.88,SSW,202,4.3,5.4,55,0.00,,---,0.00,VWS V14.01,2013-01-25 06:56:00,
2013-01-25 00:57:00,12.2,-0.9,28.88,SSW,202,4.9,5.6,55,0.00,,---,0.00,VWS V14.01,2013-01-25 06:57:00,
2013-01-25 00:58:00,12.2,-0.9,28.88,SSW,202,4.9,4.9,55,0.00,,---,0.00,VWS V14.01,2013-01-25 06:58:00,
2013-01-25 00:59:00,12.2,-0.9,28.88,WSW,248,8.1,8.1,55,0.00,,---,0.00,VWS V14.01,2013-01-25 06:59:00,
2013-01-25 01:00:00,12.2,-0.9,28.88,SSW,202,4.5,8.1,55,0.00,,---,0.00,VWS V14.01,2013-01-25 07:00:00,
2013-01-25 01:01:00,12.2,-0.9,28.88,SSW,202,3.6,4.5,55,0.00,,---,0.00,VWS V14.01,2013-01-25 07:01:00,
2013-01-25 01:02:00,12.2,-0.9,28.88,SSW,202,3.6,6.0,55,0.00,,---,0.00,VWS V14.01,2013-01-25 07:02:00,
2013-01-25 01:03:00,12.2,-0.9,28.88,SSW,202,5.4,5.4,55,0.00,,---,0.00,VWS V14.01,2013-01-25 07:03:00,
2013-01-25 01:04:00,12.2,-0.9,28.88,SSW,202,4.7,5.8,55,0.00,,---,0.00,VWS V14.01,2013-01-25 07:04:00,
2013-01-25 01:05:00,12.2,-0.9,28.88,SSW,202,4.9,6.9,55,0.00,,---,0.00,VWS V14.01,2013-01-25 07:05:00,
2013-01-25 01:06:00,12.2,-0.9,28.88,SSW,202,5.4,7.4,55,0.00,,---,0.00,VWS V14.01,2013-01-25 07:06:00,
2013-01-25 01:07:00,12.2,-0.9,28.88,SSW,202,4.0,5.4,55,0.00,,---,0.00,VWS V14.01,2013-01-25 07:07:00,
2013-01-25 01:08:00,12.2,-0.9,28.88,SSW,202,2.7,4.3,55,0.00,,---,0.00,VWS V14.01,2013-01-25 07:08:00,
2013-01-25 01:09:00,12.2,-0.9,28.88,SW,225,5.8,6.0,55,0.00,,---,0.00,VWS V14.01,2013-01-25 07:09:00,
2013-01-25 01:10:00,12.2,-0.9,28.88,SSW,202,4.0,5.8,55,0.00,,---,0.00,VWS V14.01,2013-01-25 07:10:00,
2013-01-25 01:12:00,12.2,-0.9,28.88,SSW,202,5.8,5.8,55,0.00,,---,0.00,VWS V14.01,2013-01-25 07:12:00,
2013-01-25 01:13:00,12.2,-0.9,28.88,SSW,202,3.8,6.0,55,0.00,,---,0.00,VWS V14.01,2013-01-25 07:13:00,
2013-01-25 01:14:00,12.2,-0.9,28.88,SSW,202,3.6,3.6,55,0.00,,---,0.00,VWS V14.01,2013-01-25 07:14:00,
2013-01-25 01:15:00,12.0,-1.0,28.88,SSW,202,3.1,4.3,55,0.00,,---,0.00,VWS V14.01,2013-01-25 07:15:00,
2013-01-25 01:16:00,12.0,-1.0,28.88,SSW,202,3.4,3.4,55,0.00,,---,0.00,VWS V14.01,2013-01-25 07:16:00,
2013-01-25 01:17:00,12.0,-1.0,28.88,SSW,202,5.6,6.0,55,0.00,,---,0.00,VWS V14.01,2013-01-25 07:17:00,
2013-01-25 01:18:00,12.0,-1.0,28.88,SSW,202,3.6,5.6,55,0.00,,---,0.00,VWS V14.01,2013-01-25 07:18:00,
2013-01-25 01:19:00,12.0,-1.0,28.88,SSW,202,2.9,7.2,55,0.00,,---,0.00,VWS V14.01,2013-01-25 07:19:00,
2013-01-25 01:20:00,12.0,-1.0,28.88,SSW,202,2.9,2.9,55,0.00,,---,0.00,VWS V14.01,2013-01-25 07:20:00,
2013-01-25 01:21:00,11.8,-1.2,28.88,SSW,202,3.6,4.0,55,0.00,,---,0.00,VWS V14.01,2013-01-25 07:21:00,
2013-01-25 01:22:00,11.8,-1.2,28.88,SSW,202,3.4,3.6,55,0.00,,---,0.00,VWS V14.01,2013-01-25 07:22:00,
2013-01-25 01:23:00,11.8,-1.2,28.88,SSW,202,4.7,4.7,55,0.00,,---,0.00,VWS V14.01,2013-01-25 07:23:00,
2013-01-25 01:24:00,11.8,-1.2,28.88,SW,225,3.8,7.6,55,0.00,,---,0.00,VWS V14.01,2013-01-25 07:24:00,
2013-01-25 01:25:00,11.7,-1.4,28.88,SSW,202,3.8,4.3,55,0.00,,---,0.00,VWS V14.01,2013-01-25 07:25:00,
2013-01-25 01:26:00,11.7,-1.4,28.88,SSW,202,3.1,3.8,55,0.00,,---,0.00,VWS V14.01,2013-01-25 07:26:00,
2013-01-25 01:27:00,11.7,-1.4,28.88,SSW,202,4.0,4.0,55,0.00,,---,0.00,VWS V14.01,2013-01-25 07:27:00,
2013-01-25 01:28:00,11.7,-1.4,28.88,SSW,202,4.3,4.3,55,0.00,,---,0.00,VWS V14.01,2013-01-25 07:28:00,
2013-01-25 01:29:00,11.7,-1.4,28.88,SSW,202,4.0,4.3,55,0.00,,---,0.00,VWS V14.01,2013-01-25 07:29:00,
2013-01-25 01:30:00,11.7,-1.4,28.88,SSW,202,3.6,4.3,55,0.00,,---,0.00,VWS V14.01,2013-01-25 07:30:00,
2013-01-25 01:31:00,11.7,-1.4,28.88,SW,225,3.8,4.9,55,0.00,,---,0.00,VWS V14.01,2013-01-25 07:31:00,
2013-01-25 01:32:00,11.8,-1.2,28.85,SSW,202,2.9,3.8,55,0.00,,---,0.00,VWS V14.01,2013-01-25 07:32:00,
2013-01-25 01:33:00,11.8,-1.2,28.85,SSE,158,4.3,4.3,55,0.00,,---,0.00,VWS V14.01,2013-01-25 07:33:00,
2013-01-25 01:34:00,11.8,-1.2,28.85,SSW,202,4.7,5.6,55,0.00,,---,0.00,VWS V14.01,2013-01-25 07:34:00,
2013-01-25 01:35:00,11.8,-1.2,28.85,SSW,202,3.8,4.7,55,0.00,,---,0.00,VWS V14.01,2013-01-25 07:35:00,
2013-01-25 01:36:00,11.8,-1.2,28.85,SSW,202,4.0,6.0,55,0.00,,---,0.00,VWS V14.01,2013-01-25 07:36:00,
2013-01-25 01:38:00,11.8,-1.2,28.85,SW,225,3.8,6.3,55,0.00,,---,0.00,VWS V14.01,2013-01-25 07:38:00,
2013-01-25 01:39:00,11.8,-1.2,28.85,SSW,202,2.9,3.8,55,0.00,,---,0.00,VWS V14.01,2013-01-25 07:39:00,
2013-01-25 01:40:00,11.7,-1.4,28.85,SSW,202,3.8,4.3,55,0.00,,---,0.00,VWS V14.01,2013-01-25 07:40:00,
2013-01-25 01:41:00,11.7,-1.4,28.85,SW,225,6.3,6.3,55,0.00,,---,0.00,VWS V14.01,2013-01-25 07:41:00,
2013-01-25 01:42:00,11.7,-1.4,28.85,SSW,202,3.4,6.3,55,0.00,,---,0.00,VWS V14.01,2013-01-25 07:42:00,
2013-01-25 01:43:00,11.7,-1.4,28.85,SSW,202,3.4,4.3,55,0.00,,---,0.00,VWS V14.01,2013-01-25 07:43:00,
2013-01-25 01:44:00,11.7,-1.4,28.85,WSW,248,3.8,5.4,55,0.00,,---,0.00,VWS V14.01,2013-01-25 07:44:00,
2013-01-25 01:45:00,11.7,-1.4,28.85,SSW,202,3.4,5.4,55,0.00,,---,0.00,VWS V14.01,2013-01-25 07:45:00,
2013-01-25 01:46:00,11.7,-1.4,28.85,SSW,202,5.4,5.4,55,0.00,,---,0.00,VWS V14.01,2013-01-25 07:46:00,
2013-01-25 01:47:00,11.7,-1.4,28.82,SSW,202,4.0,5.4,55,0.00,,---,0.00,VWS V14.01,2013-01-25 07:47:00,
2013-01-25 01:48:00,11.7,-1.4,28.82,SSW,202,3.6,4.0,55,0.00,,---,0.00,VWS V14.01,2013-01-25 07:48:00,
2013-01-25 01:49:00,11.7,-1.4,28.82,WSW,248,2.7,3.6,55,0.00,,---,0.00,VWS V14.01,2013-01-25 07:49:00,
2013-01-25 01:50:00,11.7,-1.4,28.82,SW,225,3.8,4.0,55,0.00,,---,0.00,VWS V14.01,2013-01-25 07:50:00,
2013-01-25 01:51:00,11.7,-1.4,28.82,SSW,202,2.7,3.8,55,0.00,,---,0.00,VWS V14.01,2013-01-25 07:51:00,
2013-01-25 01:52:00,11.7,-1.4,28.82,SW,225,4.9,6.5,55,0.00,,---,0.00,VWS V14.01,2013-01-25 07:52:00,
2013-01-25 01:53:00,11.7,-1.4,28.82,SW,225,4.9,6.5,55,0.00,,---,0.00,VWS V14.01,2013-01-25 07:53:00,
2013-01-25 01:54:00,11.7,-1.4,28.82,SW,225,3.4,5.6,55,0.00,,---,0.00,VWS V14.01,2013-01-25 07:54:00,
2013-01-25 01:55:00,11.7,-1.4,28.82,SSW,202,3.8,5.4,55,0.00,,---,0.00,VWS V14.01,2013-01-25 07:55:00,
2013-01-25 01:56:00,11.7,-1.4,28.82,SSW,202,3.8,4.3,55,0.00,,---,0.00,VWS V14.01,2013-01-25 07:56:00,
2013-01-25 01:57:00,11.7,-1.4,28.82,SW,225,3.8,4.9,55,0.00,,---,0.00,VWS V14.01,2013-01-25 07:57:00,
2013-01-25 01:58:00,11.7,-1.4,28.82,SSW,202,4.0,4.9,55,0.00,,---,0.00,VWS V14.01,2013-01-25 07:58:00,
2013-01-25 01:59:00,11.7,-1.4,28.82,SSW,202,4.0,4.9,55,0.00,,---,0.00,VWS V14.01,2013-01-25 07:59:00,
2013-01-25 02:00:00,11.7,-1.4,28.82,SSW,202,3.8,5.4,55,0.00,,---,0.00,VWS V14.01,2013-01-25 08:00:00,
2013-01-25 02:01:00,11.7,-1.4,28.82,SSW,202,3.8,4.9,55,0.00,,---,0.00,VWS V14.01,2013-01-25 08:01:00,
2013-01-25 02:02:00,11.7,-1.4,28.85,SSW,202,4.3,5.6,55,0.00,,---,0.00,VWS V14.01,2013-01-25 08:02:00,
2013-01-25 02:03:00,11.7,-1.4,28.85,SW,225,4.7,4.7,55,0.00,,---,0.00,VWS V14.01,2013-01-25 08:03:00,
2013-01-25 02:04:00,11.7,-1.4,28.85,SW,225,4.7,4.7,55,0.00,,---,0.00,VWS V14.01,2013-01-25 08:04:00,
2013-01-25 02:05:00,11.8,-1.2,28.85,SSW,202,4.0,4.0,55,0.00,,---,0.00,VWS V14.01,2013-01-25 08:05:00,
2013-01-25 02:07:00,11.8,-1.2,28.85,SSW,202,3.8,4.3,55,0.00,,---,0.00,VWS V14.01,2013-01-25 08:07:00,
2013-01-25 02:08:00,11.8,-1.2,28.85,SSW,202,4.3,5.6,55,0.00,,---,0.00,VWS V14.01,2013-01-25 08:08:00,
2013-01-25 02:09:00,11.8,-1.2,28.85,SSW,202,4.3,4.3,55,0.00,,---,0.00,VWS V14.01,2013-01-25 08:09:00,
2013-01-25 02:10:00,11.8,-1.2,28.85,SSW,202,4.9,4.9,55,0.00,,---,0.00,VWS V14.01,2013-01-25 08:10:00,
2013-01-25 02:11:00,11.8,-1.2,28.85,SSW,202,2.9,4.9,55,0.00,,---,0.00,VWS V14.01,2013-01-25 08:11:00,
2013-01-25 02:12:00,11.8,-1.2,28.85,SSW,202,4.0,4.0,55,0.00,,---,0.00,VWS V14.01,2013-01-25 08:12:00,
2013-01-25 02:13:00,11.8,-1.2,28.85,SW,225,4.3,5.4,55,0.00,,---,0.00,VWS V14.01,2013-01-25 08:13:00,
2013-01-25 02:14:00,11.8,-1.2,28.85,SW,225,4.3,5.4,55,0.00,,---,0.00,VWS V14.01,2013-01-25 08:14:00,
2013-01-25 02:15:00,11.8,-1.2,28.85,South,180,5.6,5.8,55,0.00,,---,0.00,VWS V14.01,2013-01-25 08:15:00,
2013-01-25 02:16:00,11.8,-1.2,28.85,SSW,202,3.8,5.6,55,0.00,,---,0.00,VWS V14.01,2013-01-25 08:16:00,
2013-01-25 02:17:00,11.8,-1.2,28.85,SSW,202,4.9,5.4,55,0.00,,---,0.00,VWS V14.01,2013-01-25 08:17:00,
2013-01-25 02:18:00,11.8,-1.2,28.85,SSW,202,3.6,4.9,55,0.00,,---,0.00,VWS V14.01,2013-01-25 08:18:00,
2013-01-25 02:19:00,11.8,-1.2,28.85,SSW,202,3.6,3.6,55,0.00,,---,0.00,VWS V14.01,2013-01-25 08:19:00,
2013-01-25 02:20:00,11.8,-1.2,28.85,SSW,202,3.1,3.1,55,0.00,,---,0.00,VWS V14.01,2013-01-25 08:20:00,
2013-01-25 02:21:00,12.0,-1.0,28.85,SW,225,3.6,4.3,55,0.00,,---,0.00,VWS V14.01,2013-01-25 08:21:00,
2013-01-25 02:22:00,12.0,-1.0,28.85,SSW,202,6.0,6.5,55,0.00,,---,0.00,VWS V14.01,2013-01-25 08:22:00,
2013-01-25 02:23:00,12.0,-1.0,28.85,SSW,202,3.8,6.0,55,0.00,,---,0.00,VWS V14.01,2013-01-25 08:23:00,
2013-01-25 02:24:00,12.0,-1.0,28.85,SSW,202,3.8,6.0,55,0.00,,---,0.00,VWS V14.01,2013-01-25 08:24:00,
2013-01-25 02:25:00,12.0,-1.0,28.85,SSW,202,7.2,7.2,55,0.00,,---,0.00,VWS V14.01,2013-01-25 08:25:00,
2013-01-25 02:26:00,12.0,-1.0,28.85,South,180,3.6,7.2,55,0.00,,---,0.00,VWS V14.01,2013-01-25 08:26:00,
2013-01-25 02:27:00,12.0,-1.0,28.85,SSW,202,3.4,5.6,55,0.00,,---,0.00,VWS V14.01,2013-01-25 08:27:00,
2013-01-25 02:28:00,12.0,-1.0,28.85,SSW,202,5.6,6.3,55,0.00,,---,0.00,VWS V14.01,2013-01-25 08:28:00,
2013-01-25 02:29:00,12.0,-1.0,28.85,SSW,202,5.6,5.6,55,0.00,,---,0.00,VWS V14.01,2013-01-25 08:29:00,
2013-01-25 02:30:00,12.0,-1.0,28.85,SSW,202,3.6,3.6,55,0.00,,---,0.00,VWS V14.01,2013-01-25 08:30:00,
2013-01-25 02:31:00,12.0,-1.0,28.85,SSW,202,3.1,5.8,55,0.00,,---,0.00,VWS V14.01,2013-01-25 08:31:00,
2013-01-25 02:32:00,12.0,-1.0,28.85,SSW,202,7.2,7.2,55,0.00,,---,0.00,VWS V14.01,2013-01-25 08:32:00,
2013-01-25 02:33:00,12.0,-1.0,28.85,SSW,202,4.0,7.2,55,0.00,,---,0.00,VWS V14.01,2013-01-25 08:33:00,
2013-01-25 02:34:00,12.0,-1.0,28.85,SSW,202,6.0,7.2,55,0.00,,---,0.00,VWS V14.01,2013-01-25 08:34:00,
2013-01-25 02:35:00,12.0,-1.0,28.85,SSW,202,3.6,4.5,55,0.00,,---,0.00,VWS V14.01,2013-01-25 08:35:00,
2013-01-25 02:36:00,12.0,-1.0,28.85,SSW,202,3.4,4.3,55,0.00,,---,0.00,VWS V14.01,2013-01-25 08:36:00,
2013-01-25 02:37:00,12.0,-1.0,28.85,SSW,202,4.3,4.3,55,0.00,,---,0.00,VWS V14.01,2013-01-25 08:37:00,
2013-01-25 02:38:00,12.0,-1.0,28.85,SSW,202,5.8,5.8,55,0.00,,---,0.00,VWS V14.01,2013-01-25 08:38:00,
2013-01-25 02:39:00,12.0,-1.0,28.85,SSW,202,4.0,5.8,55,0.00,,---,0.00,VWS V14.01,2013-01-25 08:39:00,
2013-01-25 02:40:00,12.2,-0.9,28.85,SSW,202,3.8,4.3,55,0.00,,---,0.00,VWS V14.01,2013-01-25 08:40:00,
2013-01-25 02:41:00,12.2,-0.9,28.85,SW,225,2.9,3.8,55,0.00,,---,0.00,VWS V14.01,2013-01-25 08:41:00,
2013-01-25 02:42:00,12.2,-0.9,28.85,SW,225,4.0,5.4,55,0.00,,---,0.00,VWS V14.01,2013-01-25 08:42:00,
2013-01-25 02:43:00,12.2,-0.9,28.85,SSW,202,3.4,4.0,55,0.00,,---,0.00,VWS V14.01,2013-01-25 08:43:00,
2013-01-25 02:44:00,12.2,-0.9,28.85,SSW,202,2.9,3.4,55,0.00,,---,0.00,VWS V14.01,2013-01-25 08:44:00,
2013-01-25 02:45:00,12.2,-0.9,28.85,SW,225,6.0,6.0,55,0.00,,---,0.00,VWS V14.01,2013-01-25 08:45:00,
2013-01-25 02:46:00,12.2,-0.9,28.85,SW,225,5.6,7.4,55,0.00,,---,0.00,VWS V14.01,2013-01-25 08:46:00,
2013-01-25 02:47:00,12.2,-0.9,28.85,SW,225,8.5,8.5,55,0.00,,---,0.00,VWS V14.01,2013-01-25 08:47:00,
2013-01-25 02:48:00,12.4,-0.7,28.85,SSW,202,5.8,8.5,55,0.00,,---,0.00,VWS V14.01,2013-01-25 08:48:00,
2013-01-25 02:49:00,12.4,-0.7,28.85,SSW,202,5.8,5.8,55,0.00,,---,0.00,VWS V14.01,2013-01-25 08:49:00,
2013-01-25 02:50:00,12.4,-0.7,28.85,WSW,248,4.3,6.5,55,0.00,,---,0.00,VWS V14.01,2013-01-25 08:50:00,
2013-01-25 02:51:00,12.4,-0.7,28.85,WSW,248,5.4,5.6,55,0.00,,---,0.00,VWS V14.01,2013-01-25 08:51:00,
2013-01-25 02:52:00,12.4,-0.7,28.85,SW,225,4.9,5.8,55,0.00,,---,0.00,VWS V14.01,2013-01-25 08:52:00,
2013-01-25 02:53:00,12.4,-0.7,28.85,SSW,202,6.5,6.5,55,0.00,,---,0.00,VWS V14.01,2013-01-25 08:53:00,
2013-01-25 02:54:00,12.4,-0.7,28.85,SSW,202,6.5,6.5,55,0.00,,---,0.00,VWS V14.01,2013-01-25 08:54:00,
2013-01-25 02:55:00,12.6,-0.5,28.85,SW,225,3.4,6.5,55,0.00,,---,0.00,VWS V14.01,2013-01-25 08:55:00,
2013-01-25 02:56:00,12.6,-0.5,28.85,WSW,248,5.6,6.3,55,0.00,,---,0.00,VWS V14.01,2013-01-25 08:56:00,
2013-01-25 02:57:00,12.6,-0.5,28.85,SSW,202,3.6,8.7,55,0.00,,---,0.00,VWS V14.01,2013-01-25 08:57:00,
2013-01-25 02:58:00,12.6,-0.5,28.85,SSW,202,3.6,3.6,55,0.00,,---,0.00,VWS V14.01,2013-01-25 08:58:00,
2013-01-25 02:59:00,12.6,-0.5,28.85,SSW,202,3.6,3.6,55,0.00,,---,0.00,VWS V14.01,2013-01-25 08:59:00,
2013-01-25 03:00:00,12.6,-0.5,28.85,SSW,202,4.0,4.9,55,0.00,,---,0.00,VWS V14.01,2013-01-25 09:00:00,
2013-01-25 03:01:00,12.6,-0.5,28.85,SW,225,3.1,6.0,55,0.00,,---,0.00,VWS V14.01,2013-01-25 09:01:00,
2013-01-25 03:02:00,12.6,-0.5,28.85,SW,225,3.1,4.9,55,0.00,,---,0.00,VWS V14.01,2013-01-25 09:02:00,
2013-01-25 03:03:00,12.6,-0.5,28.85,SSW,202,5.6,6.3,55,0.00,,---,0.00,VWS V14.01,2013-01-25 09:03:00,
2013-01-25 03:04:00,12.6,-0.5,28.85,SSW,202,6.5,6.5,55,0.00,,---,0.00,VWS V14.01,2013-01-25 09:04:00,
2013-01-25 03:05:00,12.6,-0.5,28.85,SW,225,5.6,7.4,55,0.00,,---,0.00,VWS V14.01,2013-01-25 09:05:00,
2013-01-25 03:06:00,12.6,-0.5,28.85,SW,225,6.0,8.5,55,0.00,,---,0.00,VWS V14.01,2013-01-25 09:06:00,
2013-01-25 03:07:00,12.6,-0.5,28.85,SW,225,5.8,6.0,55,0.00,,---,0.00,VWS V14.01,2013-01-25 09:07:00,
2013-01-25 03:08:00,12.6,-0.5,28.85,SSW,202,7.8,7.8,55,0.00,,---,0.00,VWS V14.01,2013-01-25 09:08:00,
2013-01-25 03:09:00,12.6,-0.5,28.85,SSW,202,8.1,8.1,55,0.00,,---,0.00,VWS V14.01,2013-01-25 09:09:00,
2013-01-25 03:10:00,12.6,-0.5,28.85,SSW,202,5.6,5.6,55,0.00,,---,0.00,VWS V14.01,2013-01-25 09:10:00,
2013-01-25 03:11:00,12.6,-0.5,28.85,SW,225,6.3,8.1,55,0.00,,---,0.00,VWS V14.01,2013-01-25 09:11:00,
2013-01-25 03:12:00,12.6,-0.5,28.85,WSW,248,5.8,7.4,55,0.00,,---,0.00,VWS V14.01,2013-01-25 09:12:00,
2013-01-25 03:13:00,12.6,-0.5,28.85,SW,225,5.8,6.3,55,0.00,,---,0.00,VWS V14.01,2013-01-25 09:13:00,
2013-01-25 03:14:00,12.6,-0.5,28.85,SW,225,5.8,5.8,55,0.00,,---,0.00,VWS V14.01,2013-01-25 09:14:00,
2013-01-25 03:15:00,12.6,-0.5,28.85,SW,225,7.6,7.6,55,0.00,,---,0.00,VWS V14.01,2013-01-25 09:15:00,
2013-01-25 03:16:00,12.6,-0.5,28.85,SW,225,6.0,9.6,55,0.00,,---,0.00,VWS V14.01,2013-01-25 09:16:00,
2013-01-25 03:17:00,12.6,-0.5,28.85,WSW,248,6.5,6.5,55,0.00,,---,0.00,VWS V14.01,2013-01-25 09:17:00,
2013-01-25 03:18:00,12.6,-0.5,28.85,SSW,202,5.8,8.5,55,0.00,,---,0.00,VWS V14.01,2013-01-25 09:18:00,
2013-01-25 03:19:00,12.6,-0.5,28.85,SSW,202,5.8,8.5,55,0.00,,---,0.00,VWS V14.01,2013-01-25 09:19:00,
2013-01-25 03:20:00,12.6,-0.5,28.85,SW,225,5.6,6.0,55,0.00,,---,0.00,VWS V14.01,2013-01-25 09:20:00,
2013-01-25 03:21:00,12.7,-0.4,28.85,SSW,202,4.9,7.4,55,0.00,,---,0.00,VWS V14.01,2013-01-25 09:21:00,
2013-01-25 03:22:00,12.7,-0.4,28.85,SSW,202,8.1,8.1,55,0.00,,---,0.00,VWS V14.01,2013-01-25 09:22:00,
2013-01-25 03:23:00,12.7,-0.4,28.85,SW,225,6.3,8.1,55,0.00,,---,0.00,VWS V14.01,2013-01-25 09:23:00,
2013-01-25 03:24:00,12.7,-0.4,28.85,SW,225,6.5,6.5,55,0.00,,---,0.00,VWS V14.01,2013-01-25 09:24:00,
2013-01-25 03:25:00,12.7,-0.4,28.85,SW,225,10.1,10.1,55,0.00,,---,0.00,VWS V14.01,2013-01-25 09:25:00,
2013-01-25 03:26:00,12.7,-0.4,28.85,SW,225,8.7,10.1,55,0.00,,---,0.00,VWS V14.01,2013-01-25 09:26:00,
2013-01-25 03:27:00,12.9,-0.2,28.85,SW,225,7.8,8.7,55,0.00,,---,0.00,VWS V14.01,2013-01-25 09:27:00,
2013-01-25 03:29:00,12.9,-0.2,28.85,SW,225,9.6,10.3,55,0.00,,---,0.00,VWS V14.01,2013-01-25 09:29:00,
2013-01-25 03:30:00,12.9,-0.2,28.85,SW,225,8.7,10.5,55,0.00,,---,0.00,VWS V14.01,2013-01-25 09:30:00,
2013-01-25 03:31:00,12.9,-0.2,28.85,SSW,202,4.0,10.1,55,0.00,,---,0.00,VWS V14.01,2013-01-25 09:31:00,
2013-01-25 03:32:00,12.9,-0.2,28.82,SW,225,8.5,9.6,55,0.00,,---,0.00,VWS V14.01,2013-01-25 09:32:00,
2013-01-25 03:33:00,12.9,-0.2,28.82,SW,225,7.8,8.5,55,0.00,,---,0.00,VWS V14.01,2013-01-25 09:33:00,
2013-01-25 03:34:00,12.9,-0.2,28.82,SW,225,10.5,10.5,55,0.00,,---,0.00,VWS V14.01,2013-01-25 09:34:00,
2013-01-25 03:35:00,12.9,-0.2,28.82,SW,225,7.8,9.6,55,0.00,,---,0.00,VWS V14.01,2013-01-25 09:35:00,
2013-01-25 03:36:00,12.9,-0.2,28.82,SW,225,9.8,9.8,55,0.00,,---,0.00,VWS V14.01,2013-01-25 09:36:00,
2013-01-25 03:37:00,12.9,-0.2,28.82,SW,225,8.1,9.8,55,0.00,,---,0.00,VWS V14.01,2013-01-25 09:37:00,
2013-01-25 03:38:00,12.9,-0.2,28.82,SW,225,9.0,10.1,55,0.00,,---,0.00,VWS V14.01,2013-01-25 09:38:00,
2013-01-25 03:39:00,12.9,-0.2,28.82,SW,225,7.8,9.0,55,0.00,,---,0.00,VWS V14.01,2013-01-25 09:39:00,
2013-01-25 03:40:00,12.9,-0.2,28.82,SW,225,9.8,13.0,55,0.00,,---,0.00,VWS V14.01,2013-01-25 09:40:00,
2013-01-25 03:41:00,12.9,-0.2,28.82,SW,225,8.1,9.8,55,0.00,,---,0.00,VWS V14.01,2013-01-25 09:41:00,
2013-01-25 03:42:00,12.9,-0.2,28.82,SW,225,9.2,9.2,55,0.00,,---,0.00,VWS V14.01,2013-01-25 09:42:00,
2013-01-25 03:43:00,12.9,-0.2,28.82,SW,225,9.6,9.6,55,0.00,,---,0.00,VWS V14.01,2013-01-25 09:43:00,
2013-01-25 03:44:00,12.9,-0.2,28.82,SW,225,7.6,9.6,55,0.00,,---,0.00,VWS V14.01,2013-01-25 09:44:00,
2013-01-25 03:45:00,13.1,0.0,28.82,WSW,248,8.1,11.0,55,0.00,,---,0.00,VWS V14.01,2013-01-25 09:45:00,
2013-01-25 03:46:00,13.1,0.0,28.82,WSW,248,8.7,11.0,55,0.00,,---,0.00,VWS V14.01,2013-01-25 09:46:00,
2013-01-25 03:47:00,13.1,0.0,28.79,WSW,248,8.5,10.1,55,0.00,,---,0.00,VWS V14.01,2013-01-25 09:47:00,
2013-01-25 03:48:00,12.9,-0.2,28.79,SW,225,10.1,10.3,55,0.00,,---,0.00,VWS V14.01,2013-01-25 09:48:00,
2013-01-25 03:49:00,12.9,-0.2,28.79,SW,225,10.1,10.1,55,0.00,,---,0.00,VWS V14.01,2013-01-25 09:49:00,
2013-01-25 03:50:00,12.9,-0.2,28.79,SW,225,9.8,11.0,55,0.00,,---,0.00,VWS V14.01,2013-01-25 09:50:00,
2013-01-25 03:51:00,12.9,-0.2,28.79,SW,225,8.1,12.1,55,0.00,,---,0.00,VWS V14.01,2013-01-25 09:51:00,
2013-01-25 03:52:00,12.9,-0.2,28.79,WSW,248,10.1,10.3,55,0.00,,---,0.00,VWS V14.01,2013-01-25 09:52:00,
2013-01-25 03:53:00,12.9,-0.2,28.79,SW,225,8.7,10.5,55,0.00,,---,0.00,VWS V14.01,2013-01-25 09:53:00,
2013-01-25 03:54:00,12.9,-0.2,28.79,WSW,248,8.1,8.7,55,0.00,,---,0.00,VWS V14.01,2013-01-25 09:54:00,
2013-01-25 03:55:00,12.9,-0.2,28.79,SW,225,10.5,12.3,55,0.00,,---,0.00,VWS V14.01,2013-01-25 09:55:00,
2013-01-25 03:56:00,12.9,-0.2,28.79,SW,225,10.5,11.0,55,0.00,,---,0.00,VWS V14.01,2013-01-25 09:56:00,
2013-01-25 03:57:00,12.9,-0.2,28.79,SW,225,7.8,10.5,55,0.00,,---,0.00,VWS V14.01,2013-01-25 09:57:00,
2013-01-25 03:58:00,12.9,-0.2,28.79,SW,225,7.8,10.5,55,0.00,,---,0.00,VWS V14.01,2013-01-25 09:58:00,
2013-01-25 03:59:00,12.9,-0.2,28.79,WSW,248,13.0,13.0,55,0.00,,---,0.00,VWS V14.01,2013-01-25 09:59:00,
2013-01-25 04:00:00,12.9,-0.2,28.79,SW,225,8.5,11.0,55,0.00,,---,0.00,VWS V14.01,2013-01-25 10:00:00,
2013-01-25 04:01:00,12.9,-0.2,28.79,WSW,248,11.0,11.0,55,0.00,,---,0.00,VWS V14.01,2013-01-25 10:01:00,
2013-01-25 04:02:00,12.9,-0.2,28.79,WSW,248,10.7,12.8,55,0.00,,---,0.00,VWS V14.01,2013-01-25 10:02:00,
2013-01-25 04:03:00,12.9,-0.2,28.79,WSW,248,10.3,12.5,55,0.00,,---,0.00,VWS V14.01,2013-01-25 10:03:00,
2013-01-25 04:04:00,12.9,-0.2,28.79,WSW,248,10.1,10.3,55,0.00,,---,0.00,VWS V14.01,2013-01-25 10:04:00,
2013-01-25 04:05:00,12.9,-0.2,28.79,WSW,248,11.0,12.5,55,0.00,,---,0.00,VWS V14.01,2013-01-25 10:05:00,
2013-01-25 04:06:00,12.9,-0.2,28.79,WSW,248,8.5,11.0,55,0.00,,---,0.00,VWS V14.01,2013-01-25 10:06:00,
2013-01-25 04:07:00,12.9,-0.2,28.79,WSW,248,10.1,10.5,55,0.00,,---,0.00,VWS V14.01,2013-01-25 10:07:00,
2013-01-25 04:08:00,12.9,-0.2,28.79,SSW,202,10.5,11.0,55,0.00,,---,0.00,VWS V14.01,2013-01-25 10:08:00,
2013-01-25 04:09:00,12.9,-0.2,28.79,WSW,248,10.3,10.5,55,0.00,,---,0.00,VWS V14.01,2013-01-25 10:09:00,
2013-01-25 04:10:00,12.9,-0.2,28.79,SW,225,10.3,10.3,55,0.00,,---,0.00,VWS V14.01,2013-01-25 10:10:00,
2013-01-25 04:11:00,12.9,-0.2,28.79,SW,225,13.2,13.2,55,0.00,,---,0.00,VWS V14.01,2013-01-25 10:11:00,
2013-01-25 04:12:00,12.9,-0.2,28.79,WSW,248,11.2,13.2,55,0.00,,---,0.00,VWS V14.01,2013-01-25 10:12:00,
2013-01-25 04:13:00,12.9,-0.2,28.79,WSW,248,10.1,12.8,55,0.00,,---,0.00,VWS V14.01,2013-01-25 10:13:00,
2013-01-25 04:14:00,12.9,-0.2,28.79,WSW,248,9.8,10.1,55,0.00,,---,0.00,VWS V14.01,2013-01-25 10:14:00,
2013-01-25 04:15:00,12.9,-0.2,28.79,WSW,248,11.0,11.0,55,0.00,,---,0.00,VWS V14.01,2013-01-25 10:15:00,
2013-01-25 04:16:00,12.9,-0.2,28.79,WSW,248,9.4,11.0,55,0.00,,---,0.00,VWS V14.01,2013-01-25 10:16:00,
2013-01-25 04:17:00,12.9,-0.2,28.76,WSW,248,9.8,9.8,55,0.00,,---,0.00,VWS V14.01,2013-01-25 10:17:00,
2013-01-25 04:18:00,12.9,-0.2,28.76,WSW,248,9.8,10.5,55,0.00,,---,0.00,VWS V14.01,2013-01-25 10:18:00,
2013-01-25 04:19:00,12.9,-0.2,28.76,WSW,248,11.0,11.0,55,0.00,,---,0.00,VWS V14.01,2013-01-25 10:19:00,
2013-01-25 04:20:00,12.9,-0.2,28.76,WSW,248,11.2,11.2,55,0.00,,---,0.00,VWS V14.01,2013-01-25 10:20:00,
2013-01-25 04:21:00,12.9,-0.2,28.76,WSW,248,10.7,11.2,55,0.00,,---,0.00,VWS V14.01,2013-01-25 10:21:00,
2013-01-25 04:22:00,12.9,-0.2,28.76,WSW,248,7.6,10.7,55,0.00,,---,0.00,VWS V14.01,2013-01-25 10:22:00,
2013-01-25 04:23:00,12.9,-0.2,28.76,WSW,248,10.5,10.5,55,0.00,,---,0.00,VWS V14.01,2013-01-25 10:23:00,
2013-01-25 04:24:00,12.9,-0.2,28.76,WSW,248,10.5,10.5,55,0.00,,---,0.00,VWS V14.01,2013-01-25 10:24:00,
2013-01-25 04:25:00,12.9,-0.2,28.76,WSW,248,8.7,8.7,55,0.00,,---,0.00,VWS V14.01,2013-01-25 10:25:00,
2013-01-25 04:26:00,13.1,0.0,28.76,WSW,248,7.8,10.7,55,0.00,,---,0.00,VWS V14.01,2013-01-25 10:26:00,
2013-01-25 04:27:00,13.1,0.0,28.76,WSW,248,7.8,9.8,55,0.00,,---,0.00,VWS V14.01,2013-01-25 10:27:00,
2013-01-25 04:28:00,13.1,0.0,28.76,WSW,248,12.1,12.1,55,0.00,,---,0.00,VWS V14.01,2013-01-25 10:28:00,
2013-01-25 04:29:00,13.1,0.0,28.76,WSW,248,10.5,12.1,55,0.00,,---,0.00,VWS V14.01,2013-01-25 10:29:00,
2013-01-25 04:30:00,13.3,0.2,28.76,WSW,248,10.1,10.1,55,0.00,,---,0.00,VWS V14.01,2013-01-25 10:30:00,
2013-01-25 04:31:00,13.3,0.2,28.76,WNW,292,12.3,13.0,55,0.00,,---,0.00,VWS V14.01,2013-01-25 10:31:00,
2013-01-25 04:32:00,13.3,0.2,28.79,West,270,7.2,12.3,55,0.00,,---,0.00,VWS V14.01,2013-01-25 10:32:00,
2013-01-25 04:33:00,13.3,0.2,28.79,WSW,248,8.1,10.7,55,0.00,,---,0.00,VWS V14.01,2013-01-25 10:33:00,
2013-01-25 04:34:00,13.3,0.2,28.79,WSW,248,8.1,10.7,55,0.00,,---,0.00,VWS V14.01,2013-01-25 10:34:00,
2013-01-25 04:35:00,13.3,0.2,28.79,WSW,248,8.1,10.3,55,0.00,,---,0.00,VWS V14.01,2013-01-25 10:35:00,
2013-01-25 04:36:00,13.5,0.3,28.79,WSW,248,8.5,10.5,55,0.00,,---,0.00,VWS V14.01,2013-01-25 10:36:00,
2013-01-25 04:37:00,13.5,0.3,28.79,WSW,248,8.5,13.2,55,0.00,,---,0.00,VWS V14.01,2013-01-25 10:37:00,
2013-01-25 04:38:00,13.5,0.3,28.79,WSW,248,9.8,10.1,55,0.00,,---,0.00,VWS V14.01,2013-01-25 10:38:00,
2013-01-25 04:39:00,13.5,0.3,28.79,WSW,248,8.5,9.8,55,0.00,,---,0.00,VWS V14.01,2013-01-25 10:39:00,
2013-01-25 04:40:00,13.5,0.3,28.79,WSW,248,8.5,10.5,55,0.00,,---,0.00,VWS V14.01,2013-01-25 10:40:00,
2013-01-25 04:41:00,13.5,0.3,28.79,WSW,248,8.5,8.5,55,0.00,,---,0.00,VWS V14.01,2013-01-25 10:41:00,
2013-01-25 04:42:00,13.5,0.3,28.79,WSW,248,8.1,8.5,55,0.00,,---,0.00,VWS V14.01,2013-01-25 10:42:00,
2013-01-25 04:43:00,13.5,0.3,28.79,WSW,248,7.8,8.1,55,0.00,,---,0.00,VWS V14.01,2013-01-25 10:43:00,
2013-01-25 04:44:00,13.5,0.3,28.79,WSW,248,7.4,10.1,55,0.00,,---,0.00,VWS V14.01,2013-01-25 10:44:00,
2013-01-25 04:45:00,13.5,0.3,28.79,WSW,248,6.0,8.5,55,0.00,,---,0.00,VWS V14.01,2013-01-25 10:45:00,
2013-01-25 04:46:00,13.3,0.2,28.79,WSW,248,8.1,8.1,55,0.00,,---,0.00,VWS V14.01,2013-01-25 10:46:00,
2013-01-25 04:47:00,13.3,0.2,28.79,West,270,7.4,8.1,55,0.00,,---,0.00,VWS V14.01,2013-01-25 10:47:00,
2013-01-25 04:48:00,13.5,0.3,28.79,WSW,248,7.8,8.5,55,0.00,,---,0.00,VWS V14.01,2013-01-25 10:48:00,
2013-01-25 04:49:00,13.5,0.3,28.79,WSW,248,7.6,8.5,55,0.00,,---,0.00,VWS V14.01,2013-01-25 10:49:00,
2013-01-25 04:50:00,13.5,0.3,28.79,WSW,248,8.7,9.2,55,0.00,,---,0.00,VWS V14.01,2013-01-25 10:50:00,
2013-01-25 04:51:00,13.5,0.3,28.79,WSW,248,6.0,8.7,55,0.00,,---,0.00,VWS V14.01,2013-01-25 10:51:00,
2013-01-25 04:52:00,13.5,0.3,28.79,WNW,292,8.1,9.4,55,0.00,,---,0.00,VWS V14.01,2013-01-25 10:52:00,
2013-01-25 04:53:00,13.5,0.3,28.79,WSW,248,6.3,8.7,55,0.00,,---,0.00,VWS V14.01,2013-01-25 10:53:00,
2013-01-25 04:54:00,13.5,0.3,28.79,WSW,248,9.6,9.6,55,0.00,,---,0.00,VWS V14.01,2013-01-25 10:54:00,
2013-01-25 04:55:00,13.5,0.3,28.79,WSW,248,10.5,10.5,55,0.00,,---,0.00,VWS V14.01,2013-01-25 10:55:00,
2013-01-25 04:56:00,13.5,0.3,28.79,West,270,8.7,10.7,55,0.00,,---,0.00,VWS V14.01,2013-01-25 10:56:00,
2013-01-25 04:57:00,13.5,0.3,28.79,WSW,248,7.6,10.7,55,0.00,,---,0.00,VWS V14.01,2013-01-25 10:57:00,
2013-01-25 04:58:00,13.5,0.3,28.79,WSW,248,7.6,7.6,55,0.00,,---,0.00,VWS V14.01,2013-01-25 10:58:00,
2013-01-25 04:59:00,13.5,0.3,28.79,WSW,248,10.3,10.3,55,0.00,,---,0.00,VWS V14.01,2013-01-25 10:59:00,
2013-01-25 05:00:00,13.5,0.3,28.79,WNW,292,6.3,10.5,55,0.00,,---,0.00,VWS V14.01,2013-01-25 11:00:00,
2013-01-25 05:01:00,13.5,0.3,28.79,WSW,248,10.1,10.1,55,0.00,,---,0.00,VWS V14.01,2013-01-25 11:01:00,
2013-01-25 05:02:00,13.5,0.3,28.79,WSW,248,8.1,10.1,55,0.00,,---,0.00,VWS V14.01,2013-01-25 11:02:00,
2013-01-25 05:03:00,13.5,0.3,28.79,WNW,292,7.6,8.1,55,0.00,,---,0.00,VWS V14.01,2013-01-25 11:03:00,
2013-01-25 05:04:00,13.5,0.3,28.79,WSW,248,8.1,8.1,55,0.00,,---,0.00,VWS V14.01,2013-01-25 11:04:00,
2013-01-25 05:05:00,13.5,0.3,28.79,West,270,11.2,11.2,55,0.00,,---,0.00,VWS V14.01,2013-01-25 11:05:00,
2013-01-25 05:06:00,13.5,0.3,28.79,WSW,248,8.7,11.2,55,0.00,,---,0.00,VWS V14.01,2013-01-25 11:06:00,
2013-01-25 05:07:00,13.5,0.3,28.79,WSW,248,5.4,9.6,55,0.00,,---,0.00,VWS V14.01,2013-01-25 11:07:00,
2013-01-25 05:08:00,13.5,0.3,28.79,West,270,7.8,10.7,55,0.00,,---,0.00,VWS V14.01,2013-01-25 11:08:00,
2013-01-25 05:09:00,13.5,0.3,28.79,WNW,292,8.5,9.4,55,0.00,,---,0.00,VWS V14.01,2013-01-25 11:09:00,
2013-01-25 05:10:00,13.5,0.3,28.79,SSW,202,7.4,9.6,55,0.00,,---,0.00,VWS V14.01,2013-01-25 11:10:00,
2013-01-25 05:11:00,13.5,0.3,28.79,WSW,248,6.3,7.6,55,0.00,,---,0.00,VWS V14.01,2013-01-25 11:11:00,
2013-01-25 05:12:00,13.5,0.3,28.79,West,270,8.1,8.7,55,0.00,,---,0.00,VWS V14.01,2013-01-25 11:12:00,
2013-01-25 05:13:00,13.5,0.3,28.79,WSW,248,7.8,8.1,55,0.00,,---,0.00,VWS V14.01,2013-01-25 11:13:00,
2013-01-25 05:14:00,13.5,0.3,28.79,WSW,248,8.7,8.7,55,0.00,,---,0.00,VWS V14.01,2013-01-25 11:14:00,
2013-01-25 05:15:00,13.5,0.3,28.79,WSW,248,12.1,12.1,55,0.00,,---,0.00,VWS V14.01,2013-01-25 11:15:00,
2013-01-25 05:16:00,13.5,0.3,28.79,WSW,248,7.8,12.1,55,0.00,,---,0.00,VWS V14.01,2013-01-25 11:16:00,
2013-01-25 05:17:00,13.5,0.3,28.76,SW,225,10.1,11.2,55,0.00,,---,0.00,VWS V14.01,2013-01-25 11:17:00,
2013-01-25 05:18:00,13.6,0.5,28.76,West,270,9.8,10.1,55,0.00,,---,0.00,VWS V14.01,2013-01-25 11:18:00,
2013-01-25 05:19:00,13.6,0.5,28.76,West,270,8.7,9.8,55,0.00,,---,0.00,VWS V14.01,2013-01-25 11:19:00,
2013-01-25 05:20:00,13.6,0.5,28.76,WSW,248,6.5,9.8,55,0.00,,---,0.00,VWS V14.01,2013-01-25 11:20:00,
2013-01-25 05:21:00,13.6,0.5,28.76,WSW,248,9.6,12.8,55,0.00,,---,0.00,VWS V14.01,2013-01-25 11:21:00,
2013-01-25 05:23:00,13.6,0.5,28.76,West,270,10.1,10.1,55,0.00,,---,0.00,VWS V14.01,2013-01-25 11:23:00,
2013-01-25 05:24:00,13.6,0.5,28.76,WNW,292,8.1,10.1,55,0.00,,---,0.00,VWS V14.01,2013-01-25 11:24:00,
2013-01-25 05:25:00,13.6,0.5,28.76,WSW,248,8.1,9.4,55,0.00,,---,0.00,VWS V14.01,2013-01-25 11:25:00,
2013-01-25 05:26:00,13.6,0.5,28.76,WSW,248,8.1,8.1,55,0.00,,---,0.00,VWS V14.01,2013-01-25 11:26:00,
2013-01-25 05:27:00,13.6,0.5,28.76,WSW,248,6.7,8.7,55,0.00,,---,0.00,VWS V14.01,2013-01-25 11:27:00,
2013-01-25 05:28:00,13.6,0.5,28.76,WSW,248,8.5,8.5,55,0.00,,---,0.00,VWS V14.01,2013-01-25 11:28:00,
2013-01-25 05:29:00,13.6,0.5,28.76,West,270,9.8,10.3,55,0.00,,---,0.00,VWS V14.01,2013-01-25 11:29:00,
2013-01-25 05:30:00,13.6,0.5,28.76,WSW,248,8.5,9.0,55,0.00,,---,0.00,VWS V14.01,2013-01-25 11:30:00,
2013-01-25 05:31:00,13.6,0.5,28.76,WSW,248,9.8,10.1,55,0.00,,---,0.00,VWS V14.01,2013-01-25 11:31:00,
2013-01-25 05:32:00,13.8,0.6,28.79,West,270,8.7,12.1,55,0.00,,---,0.00,VWS V14.01,2013-01-25 11:32:00,
2013-01-25 05:33:00,13.8,0.6,28.79,WSW,248,10.7,12.5,55,0.00,,---,0.00,VWS V14.01,2013-01-25 11:33:00,
2013-01-25 05:34:00,13.8,0.6,28.79,WSW,248,8.5,10.7,55,0.00,,---,0.00,VWS V14.01,2013-01-25 11:34:00,
2013-01-25 05:35:00,13.8,0.6,28.79,WSW,248,6.9,9.6,55,0.00,,---,0.00,VWS V14.01,2013-01-25 11:35:00,
2013-01-25 05:36:00,13.8,0.6,28.79,WSW,248,7.8,9.8,55,0.00,,---,0.00,VWS V14.01,2013-01-25 11:36:00,
2013-01-25 05:37:00,13.8,0.6,28.79,WSW,248,7.8,7.8,55,0.00,,---,0.00,VWS V14.01,2013-01-25 11:37:00,
2013-01-25 05:38:00,13.8,0.6,28.79,West,270,6.5,10.5,55,0.00,,---,0.00,VWS V14.01,2013-01-25 11:38:00,
2013-01-25 05:39:00,13.8,0.6,28.79,SW,225,10.3,10.7,55,0.00,,---,0.00,VWS V14.01,2013-01-25 11:39:00,
2013-01-25 05:40:00,13.8,0.6,28.79,WSW,248,8.1,9.0,55,0.00,,---,0.00,VWS V14.01,2013-01-25 11:40:00,
2013-01-25 05:41:00,13.8,0.6,28.79,West,270,9.4,9.4,55,0.00,,---,0.00,VWS V14.01,2013-01-25 11:41:00,
2013-01-25 05:42:00,14.0,5.1,28.79,WSW,248,4.3,9.4,67,0.00,,---,0.00,VWS V14.01,2013-01-25 11:42:00,
2013-01-25 05:43:00,14.0,5.1,28.79,WSW,248,6.3,10.1,67,0.00,,---,0.00,VWS V14.01,2013-01-25 11:43:00,
2013-01-25 05:44:00,14.0,5.1,28.79,WSW,248,6.3,6.3,67,0.00,,---,0.00,VWS V14.01,2013-01-25 11:44:00,
2013-01-25 05:45:00,14.0,5.4,28.79,WNW,292,8.5,8.7,68,0.00,,---,0.00,VWS V14.01,2013-01-25 11:45:00,
2013-01-25 05:46:00,14.2,5.2,28.79,WSW,248,9.4,10.1,67,0.00,,---,0.00,VWS V14.01,2013-01-25 11:46:00,
2013-01-25 05:47:00,14.2,5.2,28.76,WSW,248,10.5,10.5,67,0.00,,---,0.00,VWS V14.01,2013-01-25 11:47:00,
2013-01-25 05:48:00,14.2,5.6,28.76,WSW,248,7.8,10.5,68,0.00,,---,0.00,VWS V14.01,2013-01-25 11:48:00,
2013-01-25 05:49:00,14.2,5.6,28.76,WSW,248,9.8,9.8,68,0.00,,---,0.00,VWS V14.01,2013-01-25 11:49:00,
2013-01-25 05:50:00,14.2,5.6,28.76,West,270,9.8,9.8,68,0.00,,---,0.00,VWS V14.01,2013-01-25 11:50:00,
2013-01-25 05:51:00,14.2,5.6,28.76,WSW,248,10.3,10.7,68,0.00,,---,0.00,VWS V14.01,2013-01-25 11:51:00,
2013-01-25 05:52:00,14.2,5.9,28.76,WSW,248,7.6,10.3,69,0.00,,---,0.00,VWS V14.01,2013-01-25 11:52:00,
2013-01-25 05:53:00,14.4,6.1,28.76,WSW,248,7.8,7.8,69,0.00,,---,0.00,VWS V14.01,2013-01-25 11:53:00,
2013-01-25 05:54:00,14.4,6.1,28.76,WNW,292,6.5,7.8,69,0.00,,---,0.00,VWS V14.01,2013-01-25 11:54:00,
2013-01-25 05:55:00,14.4,6.1,28.76,West,270,12.1,12.1,69,0.00,,---,0.00,VWS V14.01,2013-01-25 11:55:00,
2013-01-25 05:56:00,14.4,6.1,28.76,WSW,248,9.6,12.1,69,0.00,,---,0.00,VWS V14.01,2013-01-25 11:56:00,
2013-01-25 05:57:00,14.4,6.1,28.76,WNW,292,8.7,13.2,69,0.00,,---,0.00,VWS V14.01,2013-01-25 11:57:00,
2013-01-25 05:58:00,14.4,6.1,28.76,WSW,248,9.8,13.2,69,0.00,,---,0.00,VWS V14.01,2013-01-25 11:58:00,
2013-01-25 05:59:00,14.4,6.1,28.76,WNW,292,7.2,9.8,69,0.00,,---,0.00,VWS V14.01,2013-01-25 11:59:00,
2013-01-25 06:00:00,14.4,6.1,28.76,West,270,9.8,10.5,69,0.00,,---,0.00,VWS V14.01,2013-01-25 12:00:00,
2013-01-25 06:01:00,14.5,6.2,28.76,WSW,248,10.5,10.5,69,0.00,,---,0.00,VWS V14.01,2013-01-25 12:01:00,
2013-01-25 06:02:00,14.5,6.2,28.76,West,270,7.4,10.5,69,0.00,,---,0.00,VWS V14.01,2013-01-25 12:02:00,
2013-01-25 06:03:00,14.5,6.2,28.76,WNW,292,10.5,11.4,69,0.00,,---,0.00,VWS V14.01,2013-01-25 12:03:00,
2013-01-25 06:04:00,14.5,6.2,28.76,WSW,248,10.5,10.5,69,0.00,,---,0.00,VWS V14.01,2013-01-25 12:04:00,
2013-01-25 06:05:00,14.5,6.2,28.76,West,270,7.4,8.5,69,0.00,,---,0.00,VWS V14.01,2013-01-25 12:05:00,
2013-01-25 06:06:00,14.5,6.2,28.76,WSW,248,9.8,10.1,69,0.00,,---,0.00,VWS V14.01,2013-01-25 12:06:00,
2013-01-25 06:07:00,14.5,6.2,28.76,WSW,248,8.7,10.5,69,0.00,,---,0.00,VWS V14.01,2013-01-25 12:07:00,
2013-01-25 06:08:00,14.5,6.2,28.76,WSW,248,10.1,10.3,69,0.00,,---,0.00,VWS V14.01,2013-01-25 12:08:00,
2013-01-25 06:09:00,14.7,6.4,28.76,WSW,248,8.7,10.3,69,0.00,,---,0.00,VWS V14.01,2013-01-25 12:09:00,
2013-01-25 06:10:00,14.7,6.7,28.76,West,270,13.2,13.2,70,0.00,,---,0.00,VWS V14.01,2013-01-25 12:10:00,
2013-01-25 06:11:00,14.9,6.6,28.76,WSW,248,10.5,14.5,69,0.00,,---,0.00,VWS V14.01,2013-01-25 12:11:00,
2013-01-25 06:12:00,14.9,6.6,28.76,West,270,7.6,12.5,69,0.00,,---,0.00,VWS V14.01,2013-01-25 12:12:00,
2013-01-25 06:14:00,14.9,6.6,28.76,West,270,12.3,12.3,69,0.00,,---,0.00,VWS V14.01,2013-01-25 12:14:00,
2013-01-25 06:15:00,15.1,6.8,28.76,WSW,248,12.8,12.8,69,0.00,,---,0.00,VWS V14.01,2013-01-25 12:15:00,
2013-01-25 06:16:00,15.1,6.8,28.76,WSW,248,12.3,12.8,69,0.00,,---,0.00,VWS V14.01,2013-01-25 12:16:00,
2013-01-25 06:17:00,15.1,6.8,28.76,WSW,248,13.0,13.0,69,0.00,,---,0.00,VWS V14.01,2013-01-25 12:17:00,
2013-01-25 06:18:00,15.1,6.8,28.79,North,0,13.2,14.1,69,0.00,,---,0.00,VWS V14.01,2013-01-25 12:18:00,
2013-01-25 06:19:00,15.1,6.8,28.79,West,270,10.3,13.2,69,0.00,,---,0.00,VWS V14.01,2013-01-25 12:19:00,
2013-01-25 06:20:00,15.1,6.8,28.79,West,270,14.8,16.1,69,0.00,,---,0.00,VWS V14.01,2013-01-25 12:20:00,
2013-01-25 06:21:00,15.1,6.8,28.79,SW,225,10.5,14.8,69,0.00,,---,0.00,VWS V14.01,2013-01-25 12:21:00,
2013-01-25 06:22:00,15.3,6.9,28.79,West,270,13.2,13.2,69,0.00,,---,0.00,VWS V14.01,2013-01-25 12:22:00,
2013-01-25 06:23:00,15.3,7.2,28.79,WNW,292,12.5,15.4,70,0.00,,---,0.00,VWS V14.01,2013-01-25 12:23:00,
2013-01-25 06:24:00,15.3,7.2,28.79,West,270,12.5,12.8,70,0.00,,---,0.00,VWS V14.01,2013-01-25 12:24:00,
2013-01-25 06:25:00,15.3,7.2,28.79,WNW,292,13.2,15.7,70,0.00,,---,0.00,VWS V14.01,2013-01-25 12:25:00,
2013-01-25 06:26:00,15.4,7.4,28.79,WNW,292,12.3,13.9,70,0.00,,---,0.00,VWS V14.01,2013-01-25 12:26:00,
2013-01-25 06:27:00,15.4,7.4,28.79,WNW,292,10.7,12.3,70,0.00,,---,0.00,VWS V14.01,2013-01-25 12:27:00,
2013-01-25 06:28:00,15.4,7.4,28.79,West,270,15.9,15.9,70,0.00,,---,0.00,VWS V14.01,2013-01-25 12:28:00,
2013-01-25 06:29:00,15.4,7.4,28.79,WSW,248,13.4,15.9,70,0.00,,---,0.00,VWS V14.01,2013-01-25 12:29:00,
2013-01-25 06:30:00,15.4,7.4,28.79,West,270,13.4,13.4,70,0.00,,---,0.00,VWS V14.01,2013-01-25 12:30:00,
2013-01-25 06:31:00,15.4,7.4,28.79,WNW,292,10.5,14.3,70,0.00,,---,0.00,VWS V14.01,2013-01-25 12:31:00,
2013-01-25 06:32:00,15.4,7.4,28.76,WSW,248,7.8,13.6,70,0.00,,---,0.00,VWS V14.01,2013-01-25 12:32:00,
2013-01-25 06:33:00,15.4,7.7,28.76,WNW,292,8.7,11.0,71,0.00,,---,0.00,VWS V14.01,2013-01-25 12:33:00,
2013-01-25 06:34:00,15.6,7.9,28.76,West,270,11.9,11.9,71,0.00,,---,0.00,VWS V14.01,2013-01-25 12:34:00,
2013-01-25 06:35:00,15.6,7.9,28.76,WSW,248,10.5,14.5,71,0.00,,---,0.00,VWS V14.01,2013-01-25 12:35:00,
2013-01-25 06:36:00,15.8,8.1,28.76,WNW,292,12.5,15.7,71,0.00,,---,0.00,VWS V14.01,2013-01-25 12:36:00,
2013-01-25 06:37:00,15.8,8.1,28.76,WSW,248,10.5,15.4,71,0.00,,---,0.00,VWS V14.01,2013-01-25 12:37:00,
2013-01-25 06:38:00,15.8,8.1,28.76,WSW,248,12.5,12.5,71,0.00,,---,0.00,VWS V14.01,2013-01-25 12:38:00,
2013-01-25 06:39:00,15.8,8.1,28.76,North,0,10.1,12.5,71,0.00,,---,0.00,VWS V14.01,2013-01-25 12:39:00,
2013-01-25 06:40:00,15.8,8.4,28.76,West,270,10.3,12.8,72,0.00,,---,0.00,VWS V14.01,2013-01-25 12:40:00,
2013-01-25 06:41:00,15.8,8.4,28.76,West,270,12.3,13.2,72,0.00,,---,0.00,VWS V14.01,2013-01-25 12:41:00,
2013-01-25 06:42:00,16.0,8.2,28.76,WNW,292,14.8,14.8,71,0.00,,---,0.00,VWS V14.01,2013-01-25 12:42:00,
2013-01-25 06:43:00,16.0,8.6,28.76,WNW,292,10.3,14.8,72,0.00,,---,0.00,VWS V14.01,2013-01-25 12:43:00,
2013-01-25 06:44:00,16.0,8.6,28.76,WSW,248,13.0,13.0,72,0.00,,---,0.00,VWS V14.01,2013-01-25 12:44:00,
2013-01-25 06:45:00,16.0,8.6,28.76,WNW,292,6.0,10.3,72,0.00,,---,0.00,VWS V14.01,2013-01-25 12:45:00,
2013-01-25 06:46:00,16.2,8.7,28.76,West,270,11.0,13.2,72,0.00,,---,0.00,VWS V14.01,2013-01-25 12:46:00,
2013-01-25 06:47:00,16.2,9.0,28.79,WNW,292,8.5,13.0,73,0.00,,---,0.00,VWS V14.01,2013-01-25 12:47:00,
2013-01-25 06:48:00,16.2,9.0,28.79,NW,315,9.0,9.0,73,0.00,,---,0.00,VWS V14.01,2013-01-25 12:48:00,
2013-01-25 06:49:00,16.2,9.0,28.79,WNW,292,11.2,13.2,73,0.00,,---,0.00,VWS V14.01,2013-01-25 12:49:00,
2013-01-25 06:50:00,16.3,9.2,28.79,West,270,8.7,15.4,73,0.00,,---,0.00,VWS V14.01,2013-01-25 12:50:00,
2013-01-25 06:51:00,16.3,9.2,28.79,WSW,248,13.2,13.2,73,0.00,,---,0.00,VWS V14.01,2013-01-25 12:51:00,
2013-01-25 06:52:00,16.5,9.4,28.79,WSW,248,10.5,13.6,73,0.00,,---,0.00,VWS V14.01,2013-01-25 12:52:00,
2013-01-25 06:53:00,16.5,9.4,28.79,WSW,248,11.0,17.5,73,0.00,,---,0.00,VWS V14.01,2013-01-25 12:53:00,
2013-01-25 06:54:00,16.5,9.4,28.79,WSW,248,11.0,14.3,73,0.00,,---,0.00,VWS V14.01,2013-01-25 12:54:00,
2013-01-25 06:55:00,16.5,9.4,28.79,WNW,292,26.0,26.0,73,0.00,,---,0.00,VWS V14.01,2013-01-25 12:55:00,
2013-01-25 06:56:00,16.5,9.4,28.79,WNW,292,22.8,26.0,73,0.00,,---,0.00,VWS V14.01,2013-01-25 12:56:00,
2013-01-25 06:57:00,16.5,9.4,28.79,WSW,248,17.0,22.8,73,0.00,,---,0.00,VWS V14.01,2013-01-25 12:57:00,
2013-01-25 06:58:00,16.7,9.3,28.79,NW,315,17.0,17.7,72,0.00,,---,0.00,VWS V14.01,2013-01-25 12:58:00,
2013-01-25 06:59:00,16.7,9.3,28.79,NNW,338,19.9,21.0,72,0.00,,---,0.00,VWS V14.01,2013-01-25 12:59:00,
2013-01-25 07:00:00,16.7,9.3,28.79,WNW,292,9.8,17.5,72,0.00,,---,0.00,VWS V14.01,2013-01-25 13:00:00,
2013-01-25 07:01:00,16.7,9.3,28.79,WNW,292,21.3,21.9,72,0.00,,---,0.00,VWS V14.01,2013-01-25 13:01:00,
2013-01-25 07:02:00,16.7,9.3,28.76,WNW,292,16.6,22.2,72,0.00,,---,0.00,VWS V14.01,2013-01-25 13:02:00,
2013-01-25 07:03:00,16.7,9.3,28.76,WSW,248,14.8,17.7,72,0.00,,---,0.00,VWS V14.01,2013-01-25 13:03:00,
2013-01-25 07:04:00,16.7,9.3,28.76,NW,315,17.7,21.3,72,0.00,,---,0.00,VWS V14.01,2013-01-25 13:04:00,
2013-01-25 07:05:00,16.7,9.3,28.76,WNW,292,12.3,17.7,72,0.00,,---,0.00,VWS V14.01,2013-01-25 13:05:00,
2013-01-25 07:06:00,16.7,9.3,28.76,WSW,248,10.3,14.8,72,0.00,,---,0.00,VWS V14.01,2013-01-25 13:06:00,
2013-01-25 07:07:00,16.7,9.3,28.76,NW,315,18.6,20.1,72,0.00,,---,0.00,VWS V14.01,2013-01-25 13:07:00,
2013-01-25 07:08:00,16.7,9.3,28.76,NW,315,18.6,18.6,72,0.00,,---,0.00,VWS V14.01,2013-01-25 13:08:00,
2013-01-25 07:09:00,16.7,9.3,28.76,WNW,292,15.2,18.6,72,0.00,,---,0.00,VWS V14.01,2013-01-25 13:09:00,
2013-01-25 07:10:00,16.7,9.3,28.76,WNW,292,12.1,17.7,72,0.00,,---,0.00,VWS V14.01,2013-01-25 13:10:00,
2013-01-25 07:11:00,16.7,9.6,28.76,WNW,292,17.5,17.5,73,0.00,,---,0.00,VWS V14.01,2013-01-25 13:11:00,
2013-01-25 07:12:00,16.7,9.6,28.76,WNW,292,17.7,17.7,73,0.00,,---,0.00,VWS V14.01,2013-01-25 13:12:00,
2013-01-25 07:13:00,16.7,9.6,28.76,NW,315,14.8,17.7,73,0.00,,---,0.00,VWS V14.01,2013-01-25 13:13:00,
2013-01-25 07:14:00,16.7,9.6,28.76,WNW,292,19.7,19.7,73,0.00,,---,0.00,VWS V14.01,2013-01-25 13:14:00,
2013-01-25 07:15:00,16.7,9.6,28.76,WNW,292,17.9,19.7,73,0.00,,---,0.00,VWS V14.01,2013-01-25 13:15:00,
2013-01-25 07:16:00,16.7,9.6,28.76,WNW,292,26.9,26.9,73,0.00,,---,0.00,VWS V14.01,2013-01-25 13:16:00,
2013-01-25 07:17:00,16.7,8.9,28.79,WNW,292,17.7,27.5,71,0.00,,---,0.00,VWS V14.01,2013-01-25 13:17:00,
2013-01-25 07:18:00,16.7,8.9,28.79,WSW,248,20.1,25.5,71,0.00,,---,0.00,VWS V14.01,2013-01-25 13:18:00,
2013-01-25 07:19:00,16.7,8.9,28.79,WNW,292,15.2,20.1,71,0.00,,---,0.00,VWS V14.01,2013-01-25 13:19:00,
2013-01-25 07:20:00,16.5,8.1,28.79,NNW,338,20.6,20.6,69,0.00,,---,0.00,VWS V14.01,2013-01-25 13:20:00,
2013-01-25 07:21:00,16.3,7.6,28.79,NNW,338,23.9,23.9,68,0.00,,---,0.00,VWS V14.01,2013-01-25 13:21:00,
2013-01-25 07:22:00,16.2,6.5,28.79,NNW,338,13.2,23.9,65,0.00,,---,0.00,VWS V14.01,2013-01-25 13:22:00,
2013-01-25 07:23:00,16.2,6.1,28.79,NW,315,22.4,22.4,64,0.00,,---,0.00,VWS V14.01,2013-01-25 13:23:00,
2013-01-25 07:24:00,16.0,5.6,28.79,WNW,292,21.5,25.3,63,0.00,,---,0.00,VWS V14.01,2013-01-25 13:24:00,
2013-01-25 07:25:00,16.0,5.3,28.79,NW,315,15.2,21.5,62,0.00,,---,0.00,VWS V14.01,2013-01-25 13:25:00,
2013-01-25 07:26:00,16.0,5.3,28.79,NNW,338,13.2,19.5,62,0.00,,---,0.00,VWS V14.01,2013-01-25 13:26:00,
2013-01-25 07:27:00,15.8,4.8,28.79,NW,315,15.2,24.4,61,0.00,,---,0.00,VWS V14.01,2013-01-25 13:27:00,
2013-01-25 07:28:00,15.8,4.4,28.79,WNW,292,15.4,23.3,60,0.00,,---,0.00,VWS V14.01,2013-01-25 13:28:00,
2013-01-25 07:29:00,15.6,4.2,28.79,WNW,292,15.4,15.4,60,0.00,,---,0.00,VWS V14.01,2013-01-25 13:29:00,
2013-01-25 07:30:00,15.6,4.2,28.79,WNW,292,15.4,15.4,60,0.00,,---,0.00,VWS V14.01,2013-01-25 13:30:00,
2013-01-25 07:31:00,15.3,3.5,28.79,WNW,292,27.5,29.5,59,0.00,,---,0.00,VWS V14.01,2013-01-25 13:31:00,
2013-01-25 07:32:00,15.3,3.5,28.79,WNW,292,17.7,27.5,59,0.00,,---,0.00,VWS V14.01,2013-01-25 13:32:00,
2013-01-25 07:33:00,15.3,3.5,28.79,WNW,292,19.9,21.5,59,0.00,,---,0.00,VWS V14.01,2013-01-25 13:33:00,
2013-01-25 07:34:00,15.1,3.3,28.79,WNW,292,15.4,23.5,59,0.00,,---,0.00,VWS V14.01,2013-01-25 13:34:00,
2013-01-25 07:35:00,15.1,3.3,28.79,NNW,338,15.2,23.7,59,0.00,,---,0.00,VWS V14.01,2013-01-25 13:35:00,
2013-01-25 07:36:00,15.1,3.3,28.79,NNW,338,15.2,15.2,59,0.00,,---,0.00,VWS V14.01,2013-01-25 13:36:00,
2013-01-25 07:37:00,14.7,2.6,28.79,WNW,292,27.1,29.5,58,0.00,,---,0.00,VWS V14.01,2013-01-25 13:37:00,
2013-01-25 07:38:00,14.7,2.6,28.79,NW,315,17.7,27.1,58,0.00,,---,0.00,VWS V14.01,2013-01-25 13:38:00,
2013-01-25 07:39:00,14.5,2.5,28.79,NW,315,15.4,17.7,58,0.00,,---,0.00,VWS V14.01,2013-01-25 13:39:00,
2013-01-25 07:40:00,14.5,2.5,28.79,WNW,292,12.5,18.1,58,0.00,,---,0.00,VWS V14.01,2013-01-25 13:40:00,
2013-01-25 07:41:00,14.2,2.1,28.79,WNW,292,13.0,22.6,58,0.00,,---,0.00,VWS V14.01,2013-01-25 13:41:00,
2013-01-25 07:42:00,14.2,2.1,28.79,NW,315,24.6,26.4,58,0.00,,---,0.00,VWS V14.01,2013-01-25 13:42:00,
2013-01-25 07:43:00,14.2,2.1,28.79,WNW,292,21.3,24.6,58,0.00,,---,0.00,VWS V14.01,2013-01-25 13:43:00,
2013-01-25 07:44:00,14.0,2.0,28.79,NW,315,24.6,24.6,58,0.00,,---,0.00,VWS V14.01,2013-01-25 13:44:00,
2013-01-25 07:45:00,13.8,1.8,28.79,WNW,292,15.2,24.6,58,0.00,,---,0.00,VWS V14.01,2013-01-25 13:45:00,
2013-01-25 07:46:00,13.8,1.8,28.79,NW,315,22.6,22.6,58,0.00,,---,0.00,VWS V14.01,2013-01-25 13:46:00,
2013-01-25 07:47:00,13.6,1.6,28.79,WNW,292,13.0,22.6,58,0.00,,---,0.00,VWS V14.01,2013-01-25 13:47:00,
2013-01-25 07:48:00,13.5,1.5,28.79,NNE,22,13.2,13.2,58,0.00,,---,0.00,VWS V14.01,2013-01-25 13:48:00,
2013-01-25 07:49:00,13.5,1.5,28.79,WNW,292,18.1,18.1,58,0.00,,---,0.00,VWS V14.01,2013-01-25 13:49:00,
2013-01-25 07:51:00,13.5,1.5,28.79,NW,315,23.9,23.9,58,0.00,,---,0.00,VWS V14.01,2013-01-25 13:51:00,
2013-01-25 07:52:00,13.3,1.3,28.79,NW,315,19.7,23.9,58,0.00,,---,0.00,VWS V14.01,2013-01-25 13:52:00,
2013-01-25 07:53:00,13.1,1.1,28.79,NW,315,25.3,25.3,58,0.00,,---,0.00,VWS V14.01,2013-01-25 13:53:00,
2013-01-25 07:54:00,12.9,0.9,28.79,West,270,25.3,25.3,58,0.00,,---,0.00,VWS V14.01,2013-01-25 13:54:00,
2013-01-25 07:55:00,12.9,0.9,28.79,WNW,292,19.5,25.3,58,0.00,,---,0.00,VWS V14.01,2013-01-25 13:55:00,
2013-01-25 07:56:00,12.9,0.9,28.79,NW,315,17.7,19.5,58,0.00,,---,0.00,VWS V14.01,2013-01-25 13:56:00,
2013-01-25 07:57:00,12.7,0.8,28.79,WNW,292,19.7,26.0,58,0.00,,---,0.00,VWS V14.01,2013-01-25 13:57:00,
2013-01-25 07:58:00,12.7,0.8,28.79,NNW,338,20.4,20.6,58,0.00,,---,0.00,VWS V14.01,2013-01-25 13:58:00,
2013-01-25 07:59:00,12.7,0.8,28.79,NNW,338,24.2,24.2,58,0.00,,---,0.00,VWS V14.01,2013-01-25 13:59:00,
2013-01-25 08:00:00,12.7,0.8,28.79,WNW,292,18.8,20.4,58,0.00,,---,0.00,VWS V14.01,2013-01-25 14:00:00,
2013-01-25 08:01:00,12.4,0.4,28.79,NNW,338,14.1,28.9,58,0.00,,---,0.00,VWS V14.01,2013-01-25 14:01:00,
2013-01-25 08:02:00,12.2,0.3,28.79,NNW,338,15.2,21.3,58,0.00,,---,0.00,VWS V14.01,2013-01-25 14:02:00,
2013-01-25 08:03:00,12.2,0.3,28.79,NNW,338,17.5,17.7,58,0.00,,---,0.00,VWS V14.01,2013-01-25 14:03:00,
2013-01-25 08:04:00,12.2,0.3,28.79,NW,315,13.4,17.5,58,0.00,,---,0.00,VWS V14.01,2013-01-25 14:04:00,
2013-01-25 08:05:00,12.2,0.3,28.79,NW,315,13.4,17.5,58,0.00,,---,0.00,VWS V14.01,2013-01-25 14:05:00,
2013-01-25 08:06:00,12.2,0.3,28.79,NW,315,18.8,18.8,58,0.00,,---,0.00,VWS V14.01,2013-01-25 14:06:00,
2013-01-25 08:07:00,12.2,0.3,28.79,NNW,338,17.7,22.6,58,0.00,,---,0.00,VWS V14.01,2013-01-25 14:07:00,
2013-01-25 08:08:00,11.3,-0.6,28.79,WNW,292,15.4,17.9,58,0.00,,---,0.00,VWS V14.01,2013-01-25 14:08:00,
2013-01-25 08:09:00,11.1,-0.8,28.79,NNW,338,23.0,23.0,58,0.00,,---,0.00,VWS V14.01,2013-01-25 14:09:00,
2013-01-25 08:10:00,11.1,-0.8,28.79,NNW,338,20.4,23.0,58,0.00,,---,0.00,VWS V14.01,2013-01-25 14:10:00,
2013-01-25 08:11:00,10.9,-0.9,28.79,NW,315,23.7,23.7,58,0.00,,---,0.00,VWS V14.01,2013-01-25 14:11:00,
2013-01-25 08:12:00,10.9,-0.9,28.79,NW,315,11.2,23.7,58,0.00,,---,0.00,VWS V14.01,2013-01-25 14:12:00,
2013-01-25 08:13:00,10.8,-1.1,28.79,NNW,338,17.5,17.7,58,0.00,,---,0.00,VWS V14.01,2013-01-25 14:13:00,
2013-01-25 08:14:00,10.8,-1.1,28.79,NW,315,15.2,20.6,58,0.00,,---,0.00,VWS V14.01,2013-01-25 14:14:00,
2013-01-25 08:15:00,10.8,-1.1,28.79,NW,315,15.2,15.2,58,0.00,,---,0.00,VWS V14.01,2013-01-25 14:15:00,
2013-01-25 08:16:00,10.8,-1.1,28.79,NW,315,17.0,17.0,58,0.00,,---,0.00,VWS V14.01,2013-01-25 14:16:00,
2013-01-25 08:17:00,10.8,-1.1,28.79,NW,315,25.7,25.7,58,0.00,,---,0.00,VWS V14.01,2013-01-25 14:17:00,
2013-01-25 08:18:00,10.8,-1.1,28.79,WNW,292,16.8,25.7,58,0.00,,---,0.00,VWS V14.01,2013-01-25 14:18:00,
2013-01-25 08:19:00,10.8,-1.1,28.79,NW,315,15.2,16.8,58,0.00,,---,0.00,VWS V14.01,2013-01-25 14:19:00,
2013-01-25 08:20:00,10.8,-1.1,28.79,NNW,338,13.6,15.2,58,0.00,,---,0.00,VWS V14.01,2013-01-25 14:20:00,
2013-01-25 08:21:00,10.8,-1.1,28.79,NNW,338,19.9,19.9,58,0.00,,---,0.00,VWS V14.01,2013-01-25 14:21:00,
2013-01-25 08:22:00,10.8,-1.1,28.79,WNW,292,17.5,19.9,58,0.00,,---,0.00,VWS V14.01,2013-01-25 14:22:00,
2013-01-25 08:23:00,10.2,-1.6,28.79,NW,315,19.9,19.9,58,0.00,,---,0.00,VWS V14.01,2013-01-25 14:23:00,
2013-01-25 08:24:00,10.2,-1.6,28.79,NW,315,20.4,20.4,58,0.00,,---,0.00,VWS V14.01,2013-01-25 14:24:00,
2013-01-25 08:25:00,10.2,-1.6,28.79,NW,315,20.4,20.4,58,0.00,,---,0.00,VWS V14.01,2013-01-25 14:25:00,
2013-01-25 08:26:00,10.2,-1.6,28.79,WNW,292,23.0,26.4,58,0.00,,---,0.00,VWS V14.01,2013-01-25 14:26:00,
2013-01-25 08:27:00,10.2,-1.6,28.79,WNW,292,23.0,25.5,58,0.00,,---,0.00,VWS V14.01,2013-01-25 14:27:00,
2013-01-25 08:28:00,10.2,-1.6,28.79,NW,315,17.5,23.0,58,0.00,,---,0.00,VWS V14.01,2013-01-25 14:28:00,
2013-01-25 08:29:00,10.2,-1.6,28.79,NW,315,21.3,21.9,58,0.00,,---,0.00,VWS V14.01,2013-01-25 14:29:00,
2013-01-25 08:30:00,10.2,-1.6,28.79,NW,315,17.2,21.3,58,0.00,,---,0.00,VWS V14.01,2013-01-25 14:30:00,
2013-01-25 08:31:00,9.9,-2.0,28.79,NNW,338,21.0,26.2,58,0.00,,---,0.00,VWS V14.01,2013-01-25 14:31:00,
2013-01-25 08:32:00,9.9,-2.0,28.82,NW,315,15.9,21.0,58,0.00,,---,0.00,VWS V14.01,2013-01-25 14:32:00,
2013-01-25 08:33:00,9.9,-2.0,28.82,NW,315,15.9,15.9,58,0.00,,---,0.00,VWS V14.01,2013-01-25 14:33:00,
2013-01-25 08:34:00,9.9,-2.0,28.82,NW,315,10.5,17.7,58,0.00,,---,0.00,VWS V14.01,2013-01-25 14:34:00,
2013-01-25 08:35:00,9.9,-2.0,28.82,NW,315,10.5,17.7,58,0.00,,---,0.00,VWS V14.01,2013-01-25 14:35:00,
2013-01-25 08:36:00,9.9,-2.0,28.82,WNW,292,30.0,30.0,58,0.00,,---,0.00,VWS V14.01,2013-01-25 14:36:00,
2013-01-25 08:37:00,9.5,-2.3,28.82,NNW,338,22.8,30.0,58,0.00,,---,0.00,VWS V14.01,2013-01-25 14:37:00,
2013-01-25 08:38:00,9.3,-2.5,28.82,NNW,338,30.0,30.0,58,0.00,,---,0.00,VWS V14.01,2013-01-25 14:38:00,
2013-01-25 08:39:00,9.3,-2.5,28.82,NNW,338,22.6,30.0,58,0.04,,---,0.04,VWS V14.01,2013-01-25 14:39:00,
2013-01-25 08:40:00,9.3,-2.5,28.82,NNW,338,22.6,30.0,58,0.04,,---,0.04,VWS V14.01,2013-01-25 14:40:00,
2013-01-25 08:41:00,9.1,-2.6,28.82,NW,315,27.7,27.7,58,0.04,,---,0.04,VWS V14.01,2013-01-25 14:41:00,
2013-01-25 08:43:00,9.1,-2.6,28.82,NW,315,27.7,27.7,58,0.04,,---,0.04,VWS V14.01,2013-01-25 14:43:00,
2013-01-25 08:44:00,9.1,-2.6,28.82,WSW,248,22.8,27.7,58,0.04,,---,0.04,VWS V14.01,2013-01-25 14:44:00,
2013-01-25 08:45:00,9.1,-2.6,28.82,NW,315,17.7,27.7,58,0.04,,---,0.04,VWS V14.01,2013-01-25 14:45:00,
2013-01-25 08:46:00,9.1,-2.6,28.82,NW,315,16.3,29.5,58,0.08,,---,0.08,VWS V14.01,2013-01-25 14:46:00,
2013-01-25 08:47:00,9.1,-2.6,28.85,WNW,292,22.6,23.3,58,0.08,,---,0.08,VWS V14.01,2013-01-25 14:47:00,
2013-01-25 08:48:00,8.8,-3.0,28.85,NW,315,25.3,33.6,58,0.08,,---,0.08,VWS V14.01,2013-01-25 14:48:00,
2013-01-25 08:49:00,8.8,-3.0,28.85,NW,315,25.5,35.4,58,0.08,,---,0.08,VWS V14.01,2013-01-25 14:49:00,
2013-01-25 08:50:00,8.8,-3.0,28.85,NW,315,28.9,28.9,58,0.08,,---,0.08,VWS V14.01,2013-01-25 14:50:00,
2013-01-25 08:51:00,8.8,-3.0,28.85,NNW,338,24.6,27.1,58,0.08,,---,0.08,VWS V14.01,2013-01-25 14:51:00,
2013-01-25 08:52:00,8.8,-3.0,28.85,WSW,248,23.9,24.6,58,0.08,,---,0.08,VWS V14.01,2013-01-25 14:52:00,
2013-01-25 08:53:00,8.8,-3.0,28.85,NNW,338,22.4,26.0,58,0.08,,---,0.08,VWS V14.01,2013-01-25 14:53:00,
2013-01-25 08:54:00,8.8,-3.0,28.85,NNW,338,22.4,22.4,58,0.08,,---,0.08,VWS V14.01,2013-01-25 14:54:00,
2013-01-25 08:55:00,8.8,-3.0,28.85,WNW,292,23.5,23.5,58,0.08,,---,0.08,VWS V14.01,2013-01-25 14:55:00,
2013-01-25 08:56:00,8.8,-3.0,28.85,WNW,292,16.8,25.5,58,0.08,,---,0.08,VWS V14.01,2013-01-25 14:56:00,
2013-01-25 08:57:00,8.8,-3.0,28.85,NNW,338,25.1,25.1,58,0.08,,---,0.08,VWS V14.01,2013-01-25 14:57:00,
2013-01-25 08:58:00,8.8,-3.0,28.85,NNW,338,18.1,25.1,58,0.08,,---,0.08,VWS V14.01,2013-01-25 14:58:00,
2013-01-25 08:59:00,8.4,-3.3,28.85,WNW,292,15.7,20.4,58,0.08,,---,0.08,VWS V14.01,2013-01-25 14:59:00,
2013-01-25 09:00:00,8.4,-3.3,28.85,NW,315,20.4,20.4,58,0.08,,---,0.08,VWS V14.01,2013-01-25 15:00:00,
2013-01-25 09:01:00,8.4,-3.3,28.85,NW,315,15.4,17.7,58,0.08,,---,0.08,VWS V14.01,2013-01-25 15:01:00,
2013-01-25 09:02:00,8.4,-3.3,28.85,NW,315,34.7,34.7,58,0.08,,---,0.08,VWS V14.01,2013-01-25 15:02:00,
2013-01-25 09:04:00,8.1,-3.7,28.85,NW,315,26.2,34.7,58,0.08,,---,0.08,VWS V14.01,2013-01-25 15:04:00,
2013-01-25 09:05:00,8.1,-3.7,28.85,WNW,292,22.8,26.2,58,0.08,,---,0.08,VWS V14.01,2013-01-25 15:05:00,
2013-01-25 09:06:00,8.1,-3.7,28.85,NW,315,16.8,22.8,58,0.08,,---,0.08,VWS V14.01,2013-01-25 15:06:00,
2013-01-25 09:07:00,8.1,-3.7,28.85,WSW,248,17.9,23.0,58,0.12,,---,0.12,VWS V14.01,2013-01-25 15:07:00,
2013-01-25 09:08:00,8.1,-3.7,28.85,NW,315,27.7,27.7,58,0.12,,---,0.12,VWS V14.01,2013-01-25 15:08:00,
2013-01-25 09:09:00,8.1,-3.7,28.85,NW,315,17.2,27.7,58,0.12,,---,0.12,VWS V14.01,2013-01-25 15:09:00,
2013-01-25 09:10:00,8.1,-3.7,28.85,NW,315,25.3,25.3,58,0.12,,---,0.12,VWS V14.01,2013-01-25 15:10:00,
2013-01-25 09:11:00,8.1,-3.7,28.85,NW,315,15.2,25.3,58,0.12,,---,0.12,VWS V14.01,2013-01-25 15:11:00,
2013-01-25 09:12:00,8.1,-3.7,28.85,NW,315,23.0,23.7,58,0.12,,---,0.12,VWS V14.01,2013-01-25 15:12:00,
2013-01-25 09:13:00,8.1,-3.7,28.85,WNW,292,28.9,28.9,58,0.12,,---,0.12,VWS V14.01,2013-01-25 15:13:00,
2013-01-25 09:14:00,8.1,-3.7,28.85,NW,315,24.4,28.9,58,0.12,,---,0.12,VWS V14.01,2013-01-25 15:14:00,
2013-01-25 09:15:00,8.1,-3.7,28.85,NW,315,22.8,24.4,58,0.12,,---,0.12,VWS V14.01,2013-01-25 15:15:00,
2013-01-25 09:16:00,8.1,-3.7,28.85,NNW,338,23.7,23.7,58,0.12,,---,0.12,VWS V14.01,2013-01-25 15:16:00,
2013-01-25 09:17:00,8.1,-3.7,28.85,WNW,292,15.4,23.7,58,0.12,,---,0.12,VWS V14.01,2013-01-25 15:17:00,
2013-01-25 09:18:00,8.1,-3.7,28.85,WNW,292,14.8,15.4,58,0.12,,---,0.12,VWS V14.01,2013-01-25 15:18:00,
2013-01-25 09:19:00,8.1,-3.7,28.85,NNW,338,28.9,28.9,58,0.12,,---,0.12,VWS V14.01,2013-01-25 15:19:00,
2013-01-25 09:20:00,8.1,-3.7,28.85,NNW,338,15.4,28.9,58,0.12,,---,0.12,VWS V14.01,2013-01-25 15:20:00,
2013-01-25 09:21:00,8.1,-3.7,28.85,NW,315,34.0,34.0,58,0.17,,---,0.17,VWS V14.01,2013-01-25 15:21:00,
2013-01-25 09:22:00,8.1,-3.7,28.85,NNW,338,28.4,34.0,58,0.17,,---,0.17,VWS V14.01,2013-01-25 15:22:00,
2013-01-25 09:23:00,8.1,-3.7,28.85,NNW,338,32.7,32.7,58,0.17,,---,0.17,VWS V14.01,2013-01-25 15:23:00,
2013-01-25 09:24:00,8.1,-3.7,28.85,NW,315,23.9,32.7,58,0.90,,---,0.90,VWS V14.01,2013-01-25 15:24:00,
2013-01-25 09:25:00,8.1,-3.7,28.85,NW,315,23.9,23.9,58,1.24,,---,1.24,VWS V14.01,2013-01-25 15:25:00,
2013-01-25 09:26:00,8.1,-3.7,28.85,NNW,338,19.7,23.9,58,1.37,,---,1.37,VWS V14.01,2013-01-25 15:26:00,
2013-01-25 09:27:00,8.1,-3.7,28.85,NNW,338,14.5,25.1,58,1.37,,---,1.37,VWS V14.01,2013-01-25 15:27:00,
2013-01-25 09:28:00,8.1,-3.7,28.85,NW,315,24.6,24.6,58,1.37,,---,1.37,VWS V14.01,2013-01-25 15:28:00,
2013-01-25 09:29:00,8.1,-3.7,28.85,North,0,19.5,24.6,58,1.37,,---,1.37,VWS V14.01,2013-01-25 15:29:00,
2013-01-25 09:30:00,8.1,-3.7,28.85,NW,315,14.5,19.5,58,1.37,,---,1.37,VWS V14.01,2013-01-25 15:30:00,
2013-01-25 09:31:00,8.1,-3.7,28.85,NNW,338,28.9,28.9,58,1.37,,---,1.37,VWS V14.01,2013-01-25 15:31:00,
2013-01-25 09:32:00,8.1,-3.7,28.85,NNW,338,19.0,28.9,58,1.37,,---,1.37,VWS V14.01,2013-01-25 15:32:00,
2013-01-25 09:33:00,8.1,-3.7,28.88,North,0,16.1,19.0,58,1.37,,---,1.37,VWS V14.01,2013-01-25 15:33:00,
2013-01-25 09:34:00,8.1,-3.7,28.88,NNW,338,27.1,28.0,58,1.37,,---,1.37,VWS V14.01,2013-01-25 15:34:00,
2013-01-25 09:35:00,8.1,-3.7,28.88,NNW,338,22.4,27.1,58,1.37,,---,1.37,VWS V14.01,2013-01-25 15:35:00,
2013-01-25 09:36:00,8.1,-3.7,28.88,NNW,338,28.9,28.9,58,1.37,,---,1.37,VWS V14.01,2013-01-25 15:36:00,
2013-01-25 09:37:00,8.1,-3.7,28.88,NNW,338,28.6,28.9,58,1.37,,---,1.37,VWS V14.01,2013-01-25 15:37:00,
2013-01-25 09:38:00,8.1,-3.7,28.88,North,0,19.5,28.6,58,1.37,,---,1.37,VWS V14.01,2013-01-25 15:38:00,
2013-01-25 09:39:00,8.1,-3.7,28.88,NW,315,23.7,23.7,58,1.37,,---,1.37,VWS V14.01,2013-01-25 15:39:00,
2013-01-25 09:40:00,8.1,-3.7,28.88,NW,315,23.0,25.7,58,1.33,,---,1.37,VWS V14.01,2013-01-25 15:40:00,
2013-01-25 09:41:00,8.1,-3.7,28.88,NW,315,23.7,26.2,58,1.33,,---,1.37,VWS V14.01,2013-01-25 15:41:00,
2013-01-25 09:42:00,8.1,-3.7,28.88,NW,315,20.4,23.7,58,1.33,,---,1.37,VWS V14.01,2013-01-25 15:42:00,
2013-01-25 09:43:00,8.1,-3.7,28.88,NW,315,16.3,20.4,58,1.33,,---,1.37,VWS V14.01,2013-01-25 15:43:00,
2013-01-25 09:44:00,8.1,-3.7,28.88,NNW,338,12.5,17.2,58,1.33,,---,1.37,VWS V14.01,2013-01-25 15:44:00,
2013-01-25 09:45:00,8.1,-3.7,28.88,NW,315,15.7,22.8,58,1.33,,---,1.37,VWS V14.01,2013-01-25 15:45:00,
2013-01-25 09:46:00,8.1,-3.7,28.88,NNW,338,23.9,23.9,58,1.33,,---,1.37,VWS V14.01,2013-01-25 15:46:00,
2013-01-25 09:47:00,8.1,-3.7,28.85,NW,315,19.5,23.9,58,1.29,,---,1.37,VWS V14.01,2013-01-25 15:47:00,
2013-01-25 09:48:00,8.1,-3.7,28.85,NNW,338,11.2,24.2,58,1.29,,---,1.37,VWS V14.01,2013-01-25 15:48:00,
2013-01-25 09:49:00,8.1,-3.7,28.85,NNW,338,22.4,22.4,58,1.29,,---,1.37,VWS V14.01,2013-01-25 15:49:00,
2013-01-25 09:50:00,8.1,-3.7,28.85,NNE,22,19.2,22.4,58,1.29,,---,1.37,VWS V14.01,2013-01-25 15:50:00,
2013-01-25 09:51:00,8.1,-3.7,28.85,WNW,292,17.2,22.8,58,1.29,,---,1.37,VWS V14.01,2013-01-25 15:51:00,
2013-01-25 09:52:00,8.1,-3.7,28.85,WNW,292,25.1,30.4,58,1.29,,---,1.37,VWS V14.01,2013-01-25 15:52:00,
2013-01-25 09:53:00,8.1,-3.7,28.85,NNW,338,22.8,25.1,58,1.29,,---,1.37,VWS V14.01,2013-01-25 15:53:00,
2013-01-25 09:54:00,8.1,-3.7,28.85,WNW,292,21.0,22.8,58,1.29,,---,1.37,VWS V14.01,2013-01-25 15:54:00,
2013-01-25 09:55:00,8.1,-3.7,28.85,NNW,338,21.3,23.9,58,1.29,,---,1.37,VWS V14.01,2013-01-25 15:55:00,
2013-01-25 09:56:00,8.1,-3.7,28.85,NNW,338,17.5,23.0,58,1.29,,---,1.37,VWS V14.01,2013-01-25 15:56:00,
2013-01-25 09:57:00,8.1,-3.7,28.85,NNW,338,19.7,21.0,58,1.29,,---,1.37,VWS V14.01,2013-01-25 15:57:00,
2013-01-25 09:58:00,8.1,-3.7,28.85,NW,315,14.3,26.2,58,1.29,,---,1.37,VWS V14.01,2013-01-25 15:58:00,
2013-01-25 09:59:00,6.6,-5.0,28.85,NNW,338,15.2,19.7,58,1.29,,---,1.37,VWS V14.01,2013-01-25 15:59:00,
2013-01-25 10:00:00,6.6,-5.0,28.85,NW,315,21.3,23.9,58,1.29,,---,1.37,VWS V14.01,2013-01-25 16:00:00,
2013-01-25 10:01:00,6.6,-5.0,28.85,WNW,292,23.9,25.3,58,1.29,,---,1.37,VWS V14.01,2013-01-25 16:01:00,
2013-01-25 10:02:00,6.6,-5.0,28.88,WNW,292,27.7,27.7,58,1.29,,---,1.37,VWS V14.01,2013-01-25 16:02:00,
2013-01-25 10:03:00,6.6,-5.0,28.88,NW,315,10.3,28.0,58,1.29,,---,1.37,VWS V14.01,2013-01-25 16:03:00,
2013-01-25 10:04:00,6.6,-5.0,28.88,NW,315,10.3,10.3,58,1.29,,---,1.37,VWS V14.01,2013-01-25 16:04:00,
2013-01-25 10:05:00,6.6,-5.0,28.88,NW,315,10.1,15.2,58,1.29,,---,1.37,VWS V14.01,2013-01-25 16:05:00,
2013-01-25 10:06:00,6.6,-5.0,28.88,WNW,292,15.2,25.7,58,1.29,,---,1.37,VWS V14.01,2013-01-25 16:06:00,
2013-01-25 10:07:00,6.6,-5.0,28.88,NW,315,15.4,23.5,58,1.29,,---,1.37,VWS V14.01,2013-01-25 16:07:00,
2013-01-25 10:08:00,6.6,-5.0,28.88,NNW,338,16.8,26.4,58,1.25,,---,1.37,VWS V14.01,2013-01-25 16:08:00,
2013-01-25 10:09:00,6.6,-5.0,28.88,NW,315,13.9,17.7,58,1.25,,---,1.37,VWS V14.01,2013-01-25 16:09:00,
2013-01-25 10:10:00,6.6,-5.0,28.88,NW,315,15.4,15.4,58,1.25,,---,1.37,VWS V14.01,2013-01-25 16:10:00,
2013-01-25 10:11:00,6.6,-5.0,28.88,NNW,338,14.5,20.1,58,1.25,,---,1.37,VWS V14.01,2013-01-25 16:11:00,
2013-01-25 10:12:00,6.6,-5.0,28.88,NW,315,15.9,15.9,58,1.25,,---,1.37,VWS V14.01,2013-01-25 16:12:00,
2013-01-25 10:13:00,6.6,-5.0,28.88,NW,315,24.4,26.9,58,1.25,,---,1.37,VWS V14.01,2013-01-25 16:13:00,
2013-01-25 10:14:00,6.6,-5.0,28.88,WNW,292,17.5,25.1,58,1.25,,---,1.37,VWS V14.01,2013-01-25 16:14:00,
2013-01-25 10:15:00,6.6,-5.0,28.88,NW,315,25.3,25.3,58,1.25,,---,1.37,VWS V14.01,2013-01-25 16:15:00,
2013-01-25 10:16:00,6.6,-5.0,28.88,WNW,292,26.4,26.4,58,1.25,,---,1.37,VWS V14.01,2013-01-25 16:16:00,
2013-01-25 10:17:00,6.6,-5.0,28.88,NW,315,19.9,26.4,58,1.25,,---,1.37,VWS V14.01,2013-01-25 16:17:00,
2013-01-25 10:18:00,6.4,-5.2,28.88,NNW,338,18.6,25.1,58,1.25,,---,1.37,VWS V14.01,2013-01-25 16:18:00,
2013-01-25 10:19:00,6.4,-5.2,28.88,NW,315,14.5,18.6,58,1.25,,---,1.37,VWS V14.01,2013-01-25 16:19:00,
2013-01-25 10:20:00,6.4,-5.2,28.88,WNW,292,19.9,19.9,58,1.25,,---,1.37,VWS V14.01,2013-01-25 16:20:00,
2013-01-25 10:21:00,6.4,-5.2,28.88,WNW,292,10.3,10.3,58,1.25,,---,1.37,VWS V14.01,2013-01-25 16:21:00,
2013-01-25 10:22:00,6.4,-5.2,28.88,NNW,338,22.8,24.4,58,1.20,,---,1.37,VWS V14.01,2013-01-25 16:22:00,
2013-01-25 10:23:00,6.4,-5.2,28.88,NW,315,25.5,25.7,58,1.20,,---,1.37,VWS V14.01,2013-01-25 16:23:00,
2013-01-25 10:24:00,6.4,-5.2,28.88,NW,315,13.2,25.5,58,1.20,,---,1.37,VWS V14.01,2013-01-25 16:24:00,
2013-01-25 10:25:00,6.4,-5.2,28.88,NW,315,15.2,23.0,58,0.47,,---,1.37,VWS V14.01,2013-01-25 16:25:00,
2013-01-25 10:26:00,6.4,-5.2,28.88,NNW,338,17.7,17.7,58,0.13,,---,1.37,VWS V14.01,2013-01-25 16:26:00,
2013-01-25 10:27:00,6.4,-5.2,28.88,NNW,338,15.9,17.7,58,0.00,,---,1.37,VWS V14.01,2013-01-25 16:27:00,
2013-01-25 10:28:00,6.4,-5.2,28.88,NNW,338,13.0,17.5,58,0.00,,---,1.37,VWS V14.01,2013-01-25 16:28:00,
2013-01-25 10:29:00,6.4,-5.2,28.88,NNW,338,19.9,19.9,58,0.00,,---,1.37,VWS V14.01,2013-01-25 16:29:00,
2013-01-25 10:30:00,6.4,-5.2,28.88,NNW,338,19.7,24.4,58,0.00,,---,1.37,VWS V14.01,2013-01-25 16:30:00,
2013-01-25 10:31:00,6.4,-5.2,28.88,NW,315,10.1,15.4,58,0.00,,---,1.37,VWS V14.01,2013-01-25 16:31:00,
2013-01-25 10:32:00,6.3,-5.3,28.88,NNW,338,17.7,17.7,58,0.00,,---,1.37,VWS V14.01,2013-01-25 16:32:00,
2013-01-25 10:33:00,6.3,-5.3,28.88,WNW,292,22.4,22.4,58,0.00,,---,1.37,VWS V14.01,2013-01-25 16:33:00,
2013-01-25 10:34:00,6.3,-5.3,28.88,NNW,338,20.6,22.4,58,0.00,,---,1.37,VWS V14.01,2013-01-25 16:34:00,
2013-01-25 10:35:00,6.3,-5.3,28.88,NW,315,22.4,23.7,58,0.00,,---,1.37,VWS V14.01,2013-01-25 16:35:00,
2013-01-25 10:36:00,6.4,-5.2,28.88,WNW,292,19.5,22.4,58,0.00,,---,1.37,VWS V14.01,2013-01-25 16:36:00,
2013-01-25 10:37:00,6.4,-5.2,28.88,WNW,292,14.8,19.5,58,0.00,,---,1.37,VWS V14.01,2013-01-25 16:37:00,
2013-01-25 10:38:00,6.4,-5.2,28.88,NW,315,22.8,23.5,58,0.00,,---,1.37,VWS V14.01,2013-01-25 16:38:00,
2013-01-25 10:39:00,6.6,-5.0,28.88,NW,315,13.0,22.8,58,0.00,,---,1.37,VWS V14.01,2013-01-25 16:39:00,
2013-01-25 10:40:00,6.4,-5.2,28.88,NNW,338,17.7,19.5,58,0.00,,---,1.37,VWS V14.01,2013-01-25 16:40:00,
2013-01-25 10:41:00,6.4,-5.2,28.88,NW,315,11.0,15.2,58,0.00,,---,1.37,VWS V14.01,2013-01-25 16:41:00,
2013-01-25 10:42:00,6.4,-5.2,28.88,NW,315,17.0,17.0,58,0.00,,---,1.37,VWS V14.01,2013-01-25 16:42:00,
2013-01-25 10:43:00,6.4,-5.2,28.88,NNW,338,14.1,17.5,58,0.00,,---,1.37,VWS V14.01,2013-01-25 16:43:00,
2013-01-25 10:44:00,6.4,-5.2,28.88,North,0,14.5,17.2,58,0.00,,---,1.37,VWS V14.01,2013-01-25 16:44:00,
2013-01-25 10:45:00,6.4,-5.2,28.88,NNW,338,12.8,14.5,58,0.00,,---,1.37,VWS V14.01,2013-01-25 16:45:00,
2013-01-25 10:46:00,6.4,-5.2,28.88,WNW,292,11.9,12.8,58,0.00,,---,1.37,VWS V14.01,2013-01-25 16:46:00,
2013-01-25 10:47:00,6.4,-5.2,28.91,WNW,292,17.0,19.0,58,0.00,,---,1.37,VWS V14.01,2013-01-25 16:47:00,
2013-01-25 10:48:00,6.4,-5.2,28.91,NW,315,15.2,17.0,58,0.00,,---,1.37,VWS V14.01,2013-01-25 16:48:00,
2013-01-25 10:49:00,6.4,-5.2,28.91,NNW,338,21.9,21.9,58,0.00,,---,1.37,VWS V14.01,2013-01-25 16:49:00,
2013-01-25 10:50:00,6.4,-5.2,28.91,NW,315,26.2,26.2,58,0.00,,---,1.37,VWS V14.01,2013-01-25 16:50:00,
2013-01-25 10:51:00,6.4,-5.2,28.91,NNW,338,24.2,26.2,58,0.00,,---,1.37,VWS V14.01,2013-01-25 16:51:00,
2013-01-25 10:52:00,6.4,-5.2,28.91,NNW,338,15.2,24.2,58,0.00,,---,1.37,VWS V14.01,2013-01-25 16:52:00,
2013-01-25 10:53:00,6.4,-5.2,28.91,NNW,338,12.8,19.9,58,0.00,,---,1.37,VWS V14.01,2013-01-25 16:53:00,
2013-01-25 10:54:00,6.4,-5.2,28.91,NNW,338,14.8,22.6,58,0.00,,---,1.37,VWS V14.01,2013-01-25 16:54:00,
2013-01-25 10:55:00,6.6,-5.0,28.91,NNW,338,13.2,17.5,58,0.00,,---,1.37,VWS V14.01,2013-01-25 16:55:00,
2013-01-25 10:56:00,6.6,-5.0,28.91,NNW,338,15.7,15.7,58,0.00,,---,1.37,VWS V14.01,2013-01-25 16:56:00,
2013-01-25 10:57:00,6.8,-4.8,28.91,NNW,338,13.2,15.7,58,0.00,,---,1.37,VWS V14.01,2013-01-25 16:57:00,
2013-01-25 10:58:00,6.8,-4.8,28.91,NW,315,12.3,19.9,58,0.00,,---,1.37,VWS V14.01,2013-01-25 16:58:00,
2013-01-25 10:59:00,7.0,-4.7,28.91,NW,315,12.5,15.4,58,0.00,,---,1.37,VWS V14.01,2013-01-25 16:59:00,
2013-01-25 11:00:00,7.0,-4.7,28.91,NW,315,19.2,22.2,58,0.00,,---,1.37,VWS V14.01,2013-01-25 17:00:00,
2013-01-25 11:01:00,7.2,-4.5,28.91,NW,315,14.5,19.2,58,0.00,,---,1.37,VWS V14.01,2013-01-25 17:01:00,
2013-01-25 11:02:00,7.2,-4.5,28.91,NW,315,14.5,14.5,58,0.00,,---,1.37,VWS V14.01,2013-01-25 17:02:00,
2013-01-25 11:03:00,7.2,-4.5,28.91,WNW,292,18.8,20.8,58,0.00,,---,1.37,VWS V14.01,2013-01-25 17:03:00,
2013-01-25 11:04:00,7.2,-4.5,28.91,NW,315,14.8,18.8,58,0.00,,---,1.37,VWS V14.01,2013-01-25 17:04:00,
2013-01-25 11:05:00,7.2,-4.5,28.91,NW,315,23.5,26.0,58,0.00,,---,1.37,VWS V14.01,2013-01-25 17:05:00,
2013-01-25 11:06:00,7.0,-4.7,28.91,NW,315,24.4,24.4,58,0.00,,---,1.37,VWS V14.01,2013-01-25 17:06:00,
2013-01-25 11:07:00,7.0,-4.7,28.91,WNW,292,26.4,26.4,58,0.09,,---,1.46,VWS V14.01,2013-01-25 17:07:00,
2013-01-25 11:08:00,6.8,-4.8,28.91,NW,315,13.9,26.4,58,0.09,,---,1.46,VWS V14.01,2013-01-25 17:08:00,
2013-01-25 11:09:00,7.0,-4.7,28.91,WNW,292,17.5,18.1,58,0.09,,---,1.46,VWS V14.01,2013-01-25 17:09:00,
2013-01-25 11:10:00,7.0,-4.7,28.91,NW,315,15.7,15.7,58,0.09,,---,1.46,VWS V14.01,2013-01-25 17:10:00,
2013-01-25 11:11:00,6.8,-4.8,28.91,WNW,292,15.2,17.0,58,0.09,,---,1.46,VWS V14.01,2013-01-25 17:11:00,
2013-01-25 11:12:00,6.8,-4.8,28.91,WNW,292,18.6,22.6,58,0.09,,---,1.46,VWS V14.01,2013-01-25 17:12:00,
2013-01-25 11:13:00,6.8,-4.8,28.91,NW,315,22.8,22.8,58,0.09,,---,1.46,VWS V14.01,2013-01-25 17:13:00,
2013-01-25 11:14:00,6.8,-4.8,28.91,WNW,292,19.7,22.8,58,0.09,,---,1.46,VWS V14.01,2013-01-25 17:14:00,
2013-01-25 11:15:00,6.6,-5.0,28.91,WNW,292,15.7,22.6,58,0.09,,---,1.46,VWS V14.01,2013-01-25 17:15:00,
2013-01-25 11:16:00,6.6,-5.0,28.91,NW,315,19.9,19.9,58,0.09,,---,1.46,VWS V14.01,2013-01-25 17:16:00,
2013-01-25 11:17:00,7.0,-4.7,28.91,NW,315,14.1,15.4,58,0.09,,---,1.46,VWS V14.01,2013-01-25 17:17:00,
2013-01-25 11:18:00,7.0,-4.7,28.91,North,0,23.0,26.2,58,0.09,,---,1.46,VWS V14.01,2013-01-25 17:18:00,
2013-01-25 11:19:00,7.0,-4.7,28.91,NNW,338,24.2,24.2,58,0.09,,---,1.46,VWS V14.01,2013-01-25 17:19:00,
2013-01-25 11:20:00,7.0,-4.7,28.91,NNW,338,24.2,27.3,58,0.09,,---,1.46,VWS V14.01,2013-01-25 17:20:00,
2013-01-25 11:21:00,7.0,-4.7,28.91,NNW,338,24.2,27.3,58,0.09,,---,1.46,VWS V14.01,2013-01-25 17:21:00,
2013-01-25 11:22:00,7.0,-4.7,28.91,NW,315,15.2,21.9,58,0.09,,---,1.46,VWS V14.01,2013-01-25 17:22:00,
2013-01-25 11:23:00,7.0,-4.7,28.91,NW,315,12.1,22.2,58,0.09,,---,1.46,VWS V14.01,2013-01-25 17:23:00,
2013-01-25 11:24:00,7.0,-4.7,28.91,NW,315,12.1,12.1,58,0.09,,---,1.46,VWS V14.01,2013-01-25 17:24:00,
2013-01-25 11:25:00,7.0,-4.7,28.91,WNW,292,26.2,26.2,58,0.09,,---,1.46,VWS V14.01,2013-01-25 17:25:00,
2013-01-25 11:26:00,7.0,-4.7,28.91,WNW,292,21.0,26.2,58,0.09,,---,1.46,VWS V14.01,2013-01-25 17:26:00,
2013-01-25 11:27:00,7.0,-4.7,28.91,WNW,292,12.3,20.1,58,0.09,,---,1.46,VWS V14.01,2013-01-25 17:27:00,
2013-01-25 11:28:00,7.0,-4.7,28.91,WNW,292,10.1,19.9,58,0.09,,---,1.46,VWS V14.01,2013-01-25 17:28:00,
2013-01-25 11:29:00,7.2,-4.5,28.91,NW,315,22.4,22.4,58,0.09,,---,1.46,VWS V14.01,2013-01-25 17:29:00,
2013-01-25 11:30:00,7.2,-4.5,28.91,WNW,292,19.9,22.4,58,0.09,,---,1.46,VWS V14.01,2013-01-25 17:30:00,
2013-01-25 11:31:00,7.2,-4.5,28.91,WNW,292,19.9,22.4,58,0.09,,---,1.46,VWS V14.01,2013-01-25 17:31:00,
2013-01-25 11:32:00,7.0,-4.7,28.91,WNW,292,17.7,24.2,58,0.09,,---,1.46,VWS V14.01,2013-01-25 17:32:00,
2013-01-25 11:33:00,6.8,-4.8,28.91,NW,315,25.3,25.3,58,0.09,,---,1.46,VWS V14.01,2013-01-25 17:33:00,
2013-01-25 11:34:00,6.8,-4.8,28.91,NNW,338,27.1,27.1,58,0.09,,---,1.46,VWS V14.01,2013-01-25 17:34:00,
2013-01-25 11:35:00,6.8,-4.8,28.91,NW,315,19.7,27.1,58,0.09,,---,1.46,VWS V14.01,2013-01-25 17:35:00,
2013-01-25 11:36:00,6.8,-4.8,28.91,WNW,292,22.8,22.8,58,0.09,,---,1.46,VWS V14.01,2013-01-25 17:36:00,
2013-01-25 11:37:00,6.8,-4.8,28.91,NW,315,19.7,23.3,58,0.09,,---,1.46,VWS V14.01,2013-01-25 17:37:00,
2013-01-25 11:38:00,6.8,-4.8,28.91,WNW,292,22.2,22.2,58,0.09,,---,1.46,VWS V14.01,2013-01-25 17:38:00,
2013-01-25 11:39:00,6.8,-4.8,28.91,WNW,292,22.8,25.3,58,0.09,,---,1.46,VWS V14.01,2013-01-25 17:39:00,
2013-01-25 11:40:00,6.8,-4.8,28.91,WNW,292,17.7,25.7,58,0.09,,---,1.46,VWS V14.01,2013-01-25 17:40:00,
2013-01-25 11:41:00,6.8,-4.8,28.91,WNW,292,17.7,25.7,58,0.09,,---,1.46,VWS V14.01,2013-01-25 17:41:00,
2013-01-25 11:42:00,7.2,-4.5,28.91,NNW,338,16.8,27.3,58,0.09,,---,1.46,VWS V14.01,2013-01-25 17:42:00,
2013-01-25 11:43:00,7.2,-4.5,28.91,WNW,292,14.5,17.7,58,0.09,,---,1.46,VWS V14.01,2013-01-25 17:43:00,
2013-01-25 11:44:00,7.5,-4.2,28.91,NW,315,19.5,19.5,58,0.09,,---,1.46,VWS V14.01,2013-01-25 17:44:00,
2013-01-25 11:45:00,7.5,-4.2,28.91,WNW,292,16.3,19.5,58,0.09,,---,1.46,VWS V14.01,2013-01-25 17:45:00,
2013-01-25 11:46:00,7.5,-4.2,28.91,NNW,338,13.2,16.3,58,0.09,,---,1.46,VWS V14.01,2013-01-25 17:46:00,
2013-01-25 11:47:00,7.5,-4.2,28.91,WNW,292,15.9,23.5,58,0.09,,---,1.46,VWS V14.01,2013-01-25 17:47:00,
2013-01-25 11:49:00,7.5,-4.2,28.91,West,270,12.3,18.6,58,0.09,,---,1.46,VWS V14.01,2013-01-25 17:49:00,
2013-01-25 11:50:00,7.5,-4.2,28.91,WNW,292,19.7,22.6,58,0.09,,---,1.46,VWS V14.01,2013-01-25 17:50:00,
2013-01-25 11:51:00,7.5,-4.2,28.91,NNW,338,19.7,19.7,58,0.09,,---,1.46,VWS V14.01,2013-01-25 17:51:00,
2013-01-25 11:52:00,7.3,-4.3,28.91,WNW,292,17.2,22.2,58,0.09,,---,1.46,VWS V14.01,2013-01-25 17:52:00,
2013-01-25 11:53:00,7.3,-4.3,28.91,NW,315,18.6,23.5,58,0.09,,---,1.46,VWS V14.01,2013-01-25 17:53:00,
2013-01-25 11:54:00,7.3,-4.3,28.91,NNW,338,19.7,19.7,58,0.09,,---,1.46,VWS V14.01,2013-01-25 17:54:00,
2013-01-25 11:55:00,7.3,-4.3,28.91,NNW,338,25.3,25.3,58,0.09,,---,1.46,VWS V14.01,2013-01-25 17:55:00,
2013-01-25 11:56:00,7.3,-4.3,28.91,NW,315,21.3,25.3,58,0.09,,---,1.46,VWS V14.01,2013-01-25 17:56:00,
2013-01-25 11:57:00,7.5,-4.2,28.91,NW,315,17.5,20.6,58,0.09,,---,1.46,VWS V14.01,2013-01-25 17:57:00,
2013-01-25 11:58:00,7.7,-4.0,28.91,WNW,292,21.5,25.1,58,0.09,,---,1.46,VWS V14.01,2013-01-25 17:58:00,
2013-01-25 11:59:00,7.7,-4.0,28.91,NW,315,16.6,21.5,58,0.09,,---,1.46,VWS V14.01,2013-01-25 17:59:00,
2013-01-25 12:00:00,7.7,-4.0,28.91,NW,315,14.1,23.0,58,0.09,,---,1.46,VWS V14.01,2013-01-25 18:00:00,
2013-01-25 12:01:00,7.7,-4.0,28.91,NW,315,9.8,14.1,58,0.09,,---,1.46,VWS V14.01,2013-01-25 18:01:00,
2013-01-25 12:02:00,7.7,-4.0,28.91,NNW,338,11.0,15.2,58,0.09,,---,1.46,VWS V14.01,2013-01-25 18:02:00,
2013-01-25 12:03:00,7.7,-4.0,28.91,WNW,292,21.0,21.0,58,0.09,,---,1.46,VWS V14.01,2013-01-25 18:03:00,
2013-01-25 12:04:00,7.7,-4.0,28.91,NW,315,17.5,21.0,58,0.09,,---,1.46,VWS V14.01,2013-01-25 18:04:00,
2013-01-25 12:05:00,7.9,-3.8,28.91,NNW,338,22.8,22.8,58,0.09,,---,1.46,VWS V14.01,2013-01-25 18:05:00,
2013-01-25 12:06:00,7.9,-3.8,28.91,NW,315,24.2,24.2,58,0.09,,---,1.46,VWS V14.01,2013-01-25 18:06:00,
2013-01-25 12:07:00,7.9,-3.8,28.91,NW,315,19.7,20.4,58,0.09,,---,1.46,VWS V14.01,2013-01-25 18:07:00,
2013-01-25 12:08:00,7.9,-3.8,28.91,NW,315,11.0,22.4,58,0.00,,---,1.46,VWS V14.01,2013-01-25 18:08:00,
2013-01-25 12:09:00,7.9,-3.8,28.91,WNW,292,10.7,15.4,58,0.00,,---,1.46,VWS V14.01,2013-01-25 18:09:00,
2013-01-25 12:10:00,7.9,-3.8,28.91,WNW,292,16.1,16.1,58,0.00,,---,1.46,VWS V14.01,2013-01-25 18:10:00,
2013-01-25 12:11:00,7.9,-3.8,28.91,West,270,15.4,16.1,58,0.00,,---,1.46,VWS V14.01,2013-01-25 18:11:00,
2013-01-25 12:12:00,8.1,-3.7,28.91,NNW,338,17.7,18.1,58,0.00,,---,1.46,VWS V14.01,2013-01-25 18:12:00,
2013-01-25 12:13:00,7.9,-3.8,28.91,NNW,338,20.6,20.6,58,0.00,,---,1.46,VWS V14.01,2013-01-25 18:13:00,
2013-01-25 12:14:00,7.7,-4.0,28.91,NNW,338,13.2,20.6,58,0.00,,---,1.46,VWS V14.01,2013-01-25 18:14:00,
2013-01-25 12:15:00,7.7,-4.0,28.91,WNW,292,23.9,23.9,58,0.00,,---,1.46,VWS V14.01,2013-01-25 18:15:00,
2013-01-25 12:16:00,7.7,-4.0,28.91,NNW,338,17.9,23.9,58,0.00,,---,1.46,VWS V14.01,2013-01-25 18:16:00,
2013-01-25 12:17:00,7.3,-4.3,28.91,NW,315,14.1,22.6,58,0.00,,---,1.46,VWS V14.01,2013-01-25 18:17:00,
2013-01-25 12:18:00,7.2,-4.5,28.91,NW,315,28.9,28.9,58,0.00,,---,1.46,VWS V14.01,2013-01-25 18:18:00,
2013-01-25 12:19:00,7.2,-4.5,28.91,NNW,338,20.4,28.9,58,0.00,,---,1.46,VWS V14.01,2013-01-25 18:19:00,
2013-01-25 12:20:00,7.2,-4.5,28.91,NNW,338,20.4,20.4,58,0.00,,---,1.46,VWS V14.01,2013-01-25 18:20:00,
2013-01-25 12:21:00,7.2,-4.5,28.91,NNW,338,20.4,20.4,58,0.00,,---,1.46,VWS V14.01,2013-01-25 18:21:00,
2013-01-25 12:22:00,7.3,-4.3,28.91,West,270,19.5,23.3,58,0.00,,---,1.46,VWS V14.01,2013-01-25 18:22:00,
2013-01-25 12:23:00,7.2,-4.5,28.91,NW,315,15.2,20.6,58,0.00,,---,1.46,VWS V14.01,2013-01-25 18:23:00,
2013-01-25 12:24:00,7.2,-4.5,28.91,NW,315,13.9,19.5,58,0.00,,---,1.46,VWS V14.01,2013-01-25 18:24:00,
2013-01-25 12:25:00,7.5,-4.2,28.91,NNW,338,10.7,19.2,58,0.00,,---,1.46,VWS V14.01,2013-01-25 18:25:00,
2013-01-25 12:26:00,7.5,-4.2,28.91,NW,315,14.5,14.5,58,0.00,,---,1.46,VWS V14.01,2013-01-25 18:26:00,
2013-01-25 12:27:00,7.5,-4.2,28.91,NNW,338,15.2,20.4,58,0.00,,---,1.46,VWS V14.01,2013-01-25 18:27:00,
2013-01-25 12:28:00,7.5,-4.2,28.91,NW,315,16.8,16.8,58,0.00,,---,1.46,VWS V14.01,2013-01-25 18:28:00,
2013-01-25 12:29:00,7.5,-4.2,28.91,NW,315,17.7,17.7,58,0.00,,---,1.46,VWS V14.01,2013-01-25 18:29:00,
2013-01-25 12:31:00,7.5,-4.2,28.91,NW,315,11.0,17.7,58,0.00,,---,1.46,VWS V14.01,2013-01-25 18:31:00,
2013-01-25 12:32:00,7.5,-4.2,28.94,WNW,292,13.2,15.4,58,0.00,,---,1.46,VWS V14.01,2013-01-25 18:32:00,
2013-01-25 12:33:00,7.5,-4.2,28.94,NNW,338,13.2,18.8,58,0.00,,---,1.46,VWS V14.01,2013-01-25 18:33:00,
2013-01-25 12:34:00,7.5,-4.2,28.94,NNW,338,17.2,17.2,58,0.00,,---,1.46,VWS V14.01,2013-01-25 18:34:00,
2013-01-25 12:35:00,7.5,-4.2,28.94,NW,315,13.2,17.2,58,0.00,,---,1.46,VWS V14.01,2013-01-25 18:35:00,
2013-01-25 12:36:00,7.5,-4.2,28.94,WNW,292,13.4,13.4,58,0.00,,---,1.46,VWS V14.01,2013-01-25 18:36:00,
2013-01-25 12:37:00,7.5,-4.2,28.94,NW,315,15.4,23.0,58,0.00,,---,1.46,VWS V14.01,2013-01-25 18:37:00,
2013-01-25 12:38:00,7.3,-4.3,28.94,NW,315,17.9,18.6,58,0.00,,---,1.46,VWS V14.01,2013-01-25 18:38:00,
2013-01-25 12:39:00,7.5,-4.2,28.94,WNW,292,17.7,22.6,58,0.00,,---,1.46,VWS V14.01,2013-01-25 18:39:00,
2013-01-25 12:40:00,7.5,-4.2,28.94,WNW,292,19.7,19.9,58,0.00,,---,1.46,VWS V14.01,2013-01-25 18:40:00,
2013-01-25 12:41:00,7.5,-4.2,28.94,WNW,292,17.2,19.7,58,0.00,,---,1.46,VWS V14.01,2013-01-25 18:41:00,
2013-01-25 12:42:00,7.5,-4.2,28.94,NNW,338,14.8,17.7,58,0.00,,---,1.46,VWS V14.01,2013-01-25 18:42:00,
2013-01-25 12:43:00,7.5,-4.2,28.94,NW,315,25.3,25.3,58,0.00,,---,1.46,VWS V14.01,2013-01-25 18:43:00,
2013-01-25 12:44:00,7.3,-4.3,28.94,NNW,338,17.7,25.3,58,0.00,,---,1.46,VWS V14.01,2013-01-25 18:44:00,
2013-01-25 12:45:00,7.5,-4.2,28.94,NW,315,13.0,18.8,58,0.00,,---,1.46,VWS V14.01,2013-01-25 18:45:00,
2013-01-25 12:46:00,7.3,-4.3,28.94,NNW,338,16.6,16.6,58,0.00,,---,1.46,VWS V14.01,2013-01-25 18:46:00,
2013-01-25 12:47:00,7.3,-4.3,28.94,NNE,22,19.7,24.2,58,0.00,,---,1.46,VWS V14.01,2013-01-25 18:47:00,
2013-01-25 12:48:00,7.3,-4.3,28.94,NNW,338,13.4,19.7,58,0.00,,---,1.46,VWS V14.01,2013-01-25 18:48:00,
2013-01-25 12:49:00,7.3,-4.3,28.94,NW,315,19.2,19.2,58,0.00,,---,1.46,VWS V14.01,2013-01-25 18:49:00,
2013-01-25 12:50:00,7.5,-4.2,28.94,WNW,292,10.7,19.2,58,0.00,,---,1.46,VWS V14.01,2013-01-25 18:50:00,
2013-01-25 12:51:00,7.5,-4.2,28.94,NNW,338,14.5,14.5,58,0.00,,---,1.46,VWS V14.01,2013-01-25 18:51:00,
2013-01-25 12:52:00,7.5,-4.2,28.94,WNW,292,17.0,17.5,58,0.00,,---,1.46,VWS V14.01,2013-01-25 18:52:00,
2013-01-25 12:53:00,7.5,-4.2,28.94,WNW,292,13.2,22.4,58,0.00,,---,1.46,VWS V14.01,2013-01-25 18:53:00,
2013-01-25 12:54:00,7.5,-4.2,28.94,NW,315,15.2,17.7,58,0.00,,---,1.46,VWS V14.01,2013-01-25 18:54:00,
2013-01-25 12:55:00,7.5,-4.2,28.94,NNW,338,22.4,22.4,58,0.00,,---,1.46,VWS V14.01,2013-01-25 18:55:00,
2013-01-25 12:56:00,7.5,-4.2,28.94,NNW,338,22.4,22.4,58,0.00,,---,1.46,VWS V14.01,2013-01-25 18:56:00,
2013-01-25 12:57:00,7.5,-4.2,28.94,WNW,292,16.8,18.1,58,0.00,,---,1.46,VWS V14.01,2013-01-25 18:57:00,
2013-01-25 12:58:00,7.5,-4.2,28.94,WNW,292,16.8,16.8,58,0.00,,---,1.46,VWS V14.01,2013-01-25 18:58:00,
2013-01-25 12:59:00,7.5,-4.2,28.94,NW,315,15.4,16.8,58,0.00,,---,1.46,VWS V14.01,2013-01-25 18:59:00,
2013-01-25 13:01:00,7.2,-4.5,28.94,WNW,292,22.4,24.6,58,0.00,,---,1.46,VWS V14.01,2013-01-25 19:01:00,
2013-01-25 13:02:00,7.0,-4.7,28.94,WNW,292,13.2,22.4,58,0.00,,---,1.46,VWS V14.01,2013-01-25 19:02:00,
2013-01-25 13:03:00,7.0,-4.7,28.94,NW,315,13.0,17.9,58,0.00,,---,1.46,VWS V14.01,2013-01-25 19:03:00,
2013-01-25 13:04:00,7.0,-4.7,28.94,WNW,292,18.8,18.8,58,0.00,,---,1.46,VWS V14.01,2013-01-25 19:04:00,
2013-01-25 13:05:00,7.0,-4.7,28.94,NW,315,15.4,22.4,58,0.00,,---,1.46,VWS V14.01,2013-01-25 19:05:00,
2013-01-25 13:06:00,7.0,-4.7,28.94,NNW,338,13.4,15.4,58,0.00,,---,1.46,VWS V14.01,2013-01-25 19:06:00,
2013-01-25 13:07:00,7.0,-4.7,28.94,NW,315,22.2,22.2,58,0.00,,---,1.46,VWS V14.01,2013-01-25 19:07:00,
2013-01-25 13:08:00,7.0,-4.7,28.94,NNW,338,19.2,22.2,58,0.00,,---,1.46,VWS V14.01,2013-01-25 19:08:00,
2013-01-25 13:09:00,7.0,-4.7,28.94,West,270,13.4,19.2,58,0.00,,---,1.46,VWS V14.01,2013-01-25 19:09:00,
2013-01-25 13:10:00,7.0,-4.7,28.94,NW,315,13.2,15.4,58,0.00,,---,1.46,VWS V14.01,2013-01-25 19:10:00,
2013-01-25 13:11:00,7.0,-4.7,28.94,WNW,292,13.4,14.3,58,0.00,,---,1.46,VWS V14.01,2013-01-25 19:11:00,
2013-01-25 13:12:00,7.0,-4.7,28.94,NNW,338,19.7,19.7,58,0.00,,---,1.46,VWS V14.01,2013-01-25 19:12:00,
2013-01-25 13:13:00,6.8,-4.8,28.94,NW,315,12.8,19.7,58,0.00,,---,1.46,VWS V14.01,2013-01-25 19:13:00,
2013-01-25 13:14:00,6.8,-4.8,28.94,NW,315,12.8,12.8,58,0.00,,---,1.46,VWS V14.01,2013-01-25 19:14:00,
2013-01-25 13:15:00,7.0,-4.7,28.94,NNW,338,14.8,17.0,58,0.00,,---,1.46,VWS V14.01,2013-01-25 19:15:00,
2013-01-25 13:16:00,6.8,-4.8,28.94,NW,315,19.7,21.9,58,0.00,,---,1.46,VWS V14.01,2013-01-25 19:16:00,
2013-01-25 13:17:00,6.8,-4.8,28.97,WNW,292,10.5,19.2,58,0.00,,---,1.46,VWS V14.01,2013-01-25 19:17:00,
2013-01-25 13:18:00,7.2,-4.5,28.97,WNW,292,17.5,17.7,58,0.00,,---,1.46,VWS V14.01,2013-01-25 19:18:00,
2013-01-25 13:19:00,7.0,-4.7,28.97,WNW,292,12.3,19.0,58,0.00,,---,1.46,VWS V14.01,2013-01-25 19:19:00,
2013-01-25 13:20:00,7.0,-4.7,28.97,WNW,292,13.2,19.5,58,0.00,,---,1.46,VWS V14.01,2013-01-25 19:20:00,
2013-01-25 13:21:00,7.0,-4.7,28.97,WNW,292,13.0,13.2,58,0.00,,---,1.46,VWS V14.01,2013-01-25 19:21:00,
2013-01-25 13:22:00,7.2,-4.5,28.97,NNW,338,16.1,16.1,58,0.00,,---,1.46,VWS V14.01,2013-01-25 19:22:00,
2013-01-25 13:23:00,7.2,-4.5,28.97,NW,315,16.3,27.7,58,0.00,,---,1.46,VWS V14.01,2013-01-25 19:23:00,
2013-01-25 13:24:00,7.2,-4.5,28.97,WNW,292,17.7,17.7,58,0.00,,---,1.46,VWS V14.01,2013-01-25 19:24:00,
2013-01-25 13:25:00,7.2,-4.5,28.97,NW,315,15.4,19.9,58,0.00,,---,1.46,VWS V14.01,2013-01-25 19:25:00,
2013-01-25 13:26:00,7.2,-4.5,28.97,NNW,338,9.6,16.8,58,0.00,,---,1.46,VWS V14.01,2013-01-25 19:26:00,
2013-01-25 13:27:00,7.2,-4.5,28.97,NNW,338,15.4,17.5,58,0.00,,---,1.46,VWS V14.01,2013-01-25 19:27:00,
2013-01-25 13:28:00,7.2,-4.5,28.97,WNW,292,16.3,17.2,58,0.00,,---,1.46,VWS V14.01,2013-01-25 19:28:00,
2013-01-25 13:29:00,7.2,-4.5,28.97,WSW,248,13.4,16.3,58,0.00,,---,1.46,VWS V14.01,2013-01-25 19:29:00,
2013-01-25 13:30:00,7.3,-4.3,28.97,NW,315,17.5,17.9,58,0.00,,---,1.46,VWS V14.01,2013-01-25 19:30:00,
2013-01-25 13:31:00,7.5,-4.2,28.97,WNW,292,10.7,17.5,58,0.00,,---,1.46,VWS V14.01,2013-01-25 19:31:00,
2013-01-25 13:32:00,7.5,-4.2,28.97,NW,315,17.5,25.1,58,0.00,,---,1.46,VWS V14.01,2013-01-25 19:32:00,
2013-01-25 13:33:00,7.2,-4.5,28.97,NW,315,12.5,17.5,58,0.00,,---,1.46,VWS V14.01,2013-01-25 19:33:00,
2013-01-25 13:34:00,7.2,-4.5,28.97,WNW,292,14.8,18.6,58,0.00,,---,1.46,VWS V14.01,2013-01-25 19:34:00,
2013-01-25 13:35:00,7.2,-4.5,28.97,WNW,292,23.3,23.3,58,0.00,,---,1.46,VWS V14.01,2013-01-25 19:35:00,
2013-01-25 13:36:00,7.2,-4.5,28.97,NNW,338,17.2,23.3,58,0.00,,---,1.46,VWS V14.01,2013-01-25 19:36:00,
2013-01-25 13:37:00,7.2,-4.5,28.97,NW,315,17.0,18.1,58,0.00,,---,1.46,VWS V14.01,2013-01-25 19:37:00,
2013-01-25 13:38:00,7.3,-4.3,28.97,WNW,292,17.5,17.5,58,0.00,,---,1.46,VWS V14.01,2013-01-25 19:38:00,
2013-01-25 13:39:00,7.3,-4.3,28.97,WNW,292,13.2,17.5,58,0.00,,---,1.46,VWS V14.01,2013-01-25 19:39:00,
2013-01-25 13:40:00,7.5,-4.2,28.97,WNW,292,16.1,16.1,58,0.00,,---,1.46,VWS V14.01,2013-01-25 19:40:00,
2013-01-25 13:41:00,7.5,-4.2,28.97,WNW,292,12.3,17.7,58,0.00,,---,1.46,VWS V14.01,2013-01-25 19:41:00,
2013-01-25 13:42:00,7.7,-4.0,28.97,WNW,292,13.9,15.2,58,0.00,,---,1.46,VWS V14.01,2013-01-25 19:42:00,
2013-01-25 13:43:00,7.7,-4.0,28.97,NW,315,17.2,24.6,58,0.00,,---,1.46,VWS V14.01,2013-01-25 19:43:00,
2013-01-25 13:44:00,7.7,-4.0,28.97,NW,315,17.2,17.2,58,0.00,,---,1.46,VWS V14.01,2013-01-25 19:44:00,
2013-01-25 13:45:00,7.9,-3.8,28.97,NW,315,13.2,18.8,58,0.00,,---,1.46,VWS V14.01,2013-01-25 19:45:00,
2013-01-25 13:46:00,7.7,-4.0,28.97,NW,315,16.8,16.8,58,0.00,,---,1.46,VWS V14.01,2013-01-25 19:46:00,
2013-01-25 13:47:00,7.7,-4.0,28.97,NNW,338,19.2,19.2,58,0.00,,---,1.46,VWS V14.01,2013-01-25 19:47:00,
2013-01-25 13:48:00,7.5,-4.2,28.97,WNW,292,19.9,22.8,58,0.00,,---,1.46,VWS V14.01,2013-01-25 19:48:00,
2013-01-25 13:49:00,7.5,-4.2,28.97,WNW,292,19.9,19.9,58,0.00,,---,1.46,VWS V14.01,2013-01-25 19:49:00,
2013-01-25 13:50:00,7.5,-4.2,28.97,WNW,292,19.9,19.9,58,0.00,,---,1.46,VWS V14.01,2013-01-25 19:50:00,
2013-01-25 13:51:00,7.5,-4.2,28.97,NW,315,20.1,23.3,58,0.00,,---,1.46,VWS V14.01,2013-01-25 19:51:00,
2013-01-25 13:52:00,7.5,-4.2,28.97,NNW,338,22.8,22.8,58,0.00,,---,1.46,VWS V14.01,2013-01-25 19:52:00,
2013-01-25 13:53:00,7.5,-4.2,28.97,NW,315,13.6,22.8,58,0.00,,---,1.46,VWS V14.01,2013-01-25 19:53:00,
2013-01-25 13:54:00,7.5,-4.2,28.97,WNW,292,11.2,16.6,58,0.00,,---,1.46,VWS V14.01,2013-01-25 19:54:00,
2013-01-25 13:55:00,7.5,-4.2,28.97,NW,315,15.4,15.4,58,0.00,,---,1.46,VWS V14.01,2013-01-25 19:55:00,
2013-01-25 13:56:00,7.7,-4.0,28.97,West,270,17.0,17.0,58,0.00,,---,1.46,VWS V14.01,2013-01-25 19:56:00,
2013-01-25 13:57:00,7.7,-4.0,28.97,WNW,292,14.5,23.5,58,0.00,,---,1.46,VWS V14.01,2013-01-25 19:57:00,
2013-01-25 13:58:00,7.7,-4.0,28.97,NNW,338,16.1,16.1,58,0.00,,---,1.46,VWS V14.01,2013-01-25 19:58:00,
2013-01-25 13:59:00,7.7,-4.0,28.97,WNW,292,22.8,22.8,58,0.00,,---,1.46,VWS V14.01,2013-01-25 19:59:00,
2013-01-25 14:00:00,7.5,-4.2,28.97,NW,315,19.2,22.8,58,0.00,,---,1.46,VWS V14.01,2013-01-25 20:00:00,
2013-01-25 14:01:00,7.5,-4.2,28.97,NW,315,19.2,19.2,58,0.00,,---,1.46,VWS V14.01,2013-01-25 20:01:00,
2013-01-25 14:02:00,7.5,-4.2,28.97,WNW,292,17.2,19.2,58,0.00,,---,1.46,VWS V14.01,2013-01-25 20:02:00,
2013-01-25 14:03:00,7.3,-4.3,28.97,NNW,338,19.5,21.5,58,0.00,,---,1.46,VWS V14.01,2013-01-25 20:03:00,
2013-01-25 14:04:00,7.3,-4.3,28.97,NW,315,19.7,19.7,58,0.00,,---,1.46,VWS V14.01,2013-01-25 20:04:00,
2013-01-25 14:05:00,7.3,-4.3,28.97,NW,315,15.4,19.7,58,0.00,,---,1.46,VWS V14.01,2013-01-25 20:05:00,
2013-01-25 14:06:00,7.3,-4.3,28.97,NNW,338,18.8,18.8,58,0.00,,---,0.00,VWS V14.01,2013-01-25 20:06:00,
2013-01-25 14:07:00,7.5,-4.2,28.97,WNW,292,16.3,17.5,58,0.00,,---,1.46,VWS V14.01,2013-01-25 20:07:00,
2013-01-25 14:08:00,7.5,-4.2,28.97,WNW,292,16.3,20.8,58,0.00,,---,1.46,VWS V14.01,2013-01-25 20:08:00,
2013-01-25 14:09:00,7.3,-4.3,28.97,NW,315,17.0,17.2,58,0.00,,---,1.46,VWS V14.01,2013-01-25 20:09:00,
2013-01-25 14:10:00,7.3,-4.3,28.97,NNW,338,17.5,21.3,58,0.00,,---,1.46,VWS V14.01,2013-01-25 20:10:00,
2013-01-25 14:11:00,7.2,-4.5,28.97,WNW,292,15.2,19.9,58,0.00,,---,1.46,VWS V14.01,2013-01-25 20:11:00,
2013-01-25 14:12:00,7.3,-4.3,28.97,NW,315,11.9,18.8,58,0.00,,---,1.46,VWS V14.01,2013-01-25 20:12:00,
2013-01-25 14:13:00,7.3,-4.3,28.97,NNW,338,19.9,19.9,58,0.00,,---,1.46,VWS V14.01,2013-01-25 20:13:00,
2013-01-25 14:14:00,7.5,-4.2,28.97,WNW,292,13.2,19.9,58,0.00,,---,1.46,VWS V14.01,2013-01-25 20:14:00,
2013-01-25 14:15:00,7.5,-4.2,28.97,NW,315,20.8,20.8,58,0.00,,---,1.46,VWS V14.01,2013-01-25 20:15:00,
2013-01-25 14:16:00,7.5,-4.2,28.97,NW,315,15.4,20.8,58,0.00,,---,1.46,VWS V14.01,2013-01-25 20:16:00,
2013-01-25 14:17:00,7.5,-4.2,28.97,WNW,292,23.0,23.0,58,0.00,,---,1.46,VWS V14.01,2013-01-25 20:17:00,
2013-01-25 14:18:00,7.3,-4.3,28.97,NW,315,17.2,23.0,58,0.00,,---,1.46,VWS V14.01,2013-01-25 20:18:00,
2013-01-25 14:19:00,7.2,-4.5,28.97,NW,315,14.8,24.4,58,0.00,,---,1.46,VWS V14.01,2013-01-25 20:19:00,
2013-01-25 14:20:00,7.2,-4.5,28.97,NW,315,15.4,23.3,58,0.00,,---,1.46,VWS V14.01,2013-01-25 20:20:00,
2013-01-25 14:21:00,7.2,-4.5,28.97,NW,315,15.2,23.0,58,0.00,,---,1.46,VWS V14.01,2013-01-25 20:21:00,
2013-01-25 14:22:00,7.2,-4.5,28.97,WNW,292,14.8,14.8,58,0.00,,---,1.46,VWS V14.01,2013-01-25 20:22:00,
2013-01-25 14:23:00,7.2,-4.5,28.97,NW,315,10.1,14.8,58,0.00,,---,1.46,VWS V14.01,2013-01-25 20:23:00,
2013-01-25 14:24:00,7.2,-4.5,28.97,NNW,338,13.6,13.6,58,0.00,,---,1.46,VWS V14.01,2013-01-25 20:24:00,
2013-01-25 14:25:00,7.2,-4.5,28.97,NNW,338,17.7,19.5,58,0.00,,---,1.46,VWS V14.01,2013-01-25 20:25:00,
2013-01-25 14:26:00,7.2,-4.5,28.97,NNW,338,17.7,17.7,58,0.00,,---,1.46,VWS V14.01,2013-01-25 20:26:00,
2013-01-25 14:27:00,7.2,-4.5,28.97,NW,315,15.4,21.5,58,0.00,,---,1.46,VWS V14.01,2013-01-25 20:27:00,
2013-01-25 14:28:00,7.2,-4.5,28.97,NW,315,9.0,22.2,58,0.00,,---,1.46,VWS V14.01,2013-01-25 20:28:00,
2013-01-25 14:29:00,7.2,-4.5,28.97,WNW,292,15.2,15.2,58,0.00,,---,1.46,VWS V14.01,2013-01-25 20:29:00,
2013-01-25 14:30:00,7.2,-4.5,28.97,WNW,292,8.7,15.2,58,0.00,,---,1.46,VWS V14.01,2013-01-25 20:30:00,
2013-01-25 14:31:00,7.3,-4.3,28.97,WNW,292,12.1,13.0,58,0.00,,---,1.46,VWS V14.01,2013-01-25 20:31:00,
2013-01-25 14:32:00,7.3,-4.3,28.97,NNW,338,17.5,17.5,58,0.00,,---,1.46,VWS V14.01,2013-01-25 20:32:00,
2013-01-25 14:33:00,7.2,-4.5,28.97,WNW,292,17.2,22.2,58,0.00,,---,1.46,VWS V14.01,2013-01-25 20:33:00,
2013-01-25 14:34:00,7.2,-4.5,28.97,WNW,292,17.0,19.2,58,0.00,,---,1.46,VWS V14.01,2013-01-25 20:34:00,
2013-01-25 14:35:00,7.2,-4.5,28.97,NW,315,10.5,22.6,58,0.00,,---,1.46,VWS V14.01,2013-01-25 20:35:00,
2013-01-25 14:36:00,7.2,-4.5,28.97,WNW,292,14.1,14.8,58,0.00,,---,1.46,VWS V14.01,2013-01-25 20:36:00,
2013-01-25 14:37:00,7.2,-4.5,28.97,WNW,292,10.3,14.1,58,0.00,,---,1.46,VWS V14.01,2013-01-25 20:37:00,
2013-01-25 14:38:00,7.2,-4.5,28.97,NNW,338,11.4,13.2,58,0.00,,---,1.46,VWS V14.01,2013-01-25 20:38:00,
2013-01-25 14:39:00,7.2,-4.5,28.97,WNW,292,14.8,17.7,58,0.00,,---,1.46,VWS V14.01,2013-01-25 20:39:00,
2013-01-25 14:40:00,7.2,-4.5,28.97,NNW,338,8.7,19.0,58,0.00,,---,1.46,VWS V14.01,2013-01-25 20:40:00,
2013-01-25 14:41:00,7.2,-4.5,28.97,NNW,338,10.7,13.2,58,0.00,,---,1.46,VWS V14.01,2013-01-25 20:41:00,
2013-01-25 14:42:00,7.2,-4.5,28.97,NW,315,13.2,15.4,58,0.00,,---,1.46,VWS V14.01,2013-01-25 20:42:00,
2013-01-25 14:43:00,7.2,-4.5,28.97,NW,315,10.1,13.2,58,0.00,,---,1.46,VWS V14.01,2013-01-25 20:43:00,
2013-01-25 14:44:00,7.5,-4.2,28.97,WNW,292,13.0,13.0,58,0.00,,---,1.46,VWS V14.01,2013-01-25 20:44:00,
2013-01-25 14:45:00,7.5,-4.2,28.97,NW,315,13.0,13.0,58,0.00,,---,1.46,VWS V14.01,2013-01-25 20:45:00,
2013-01-25 14:46:00,7.5,-4.2,28.97,NNW,338,16.1,16.1,58,0.00,,---,1.46,VWS V14.01,2013-01-25 20:46:00,
2013-01-25 14:47:00,7.2,-4.5,28.97,NNW,338,24.6,24.6,58,0.00,,---,1.46,VWS V14.01,2013-01-25 20:47:00,
2013-01-25 14:48:00,7.2,-4.5,28.97,WNW,292,13.2,24.6,58,0.00,,---,1.46,VWS V14.01,2013-01-25 20:48:00,
2013-01-25 14:49:00,7.2,-4.5,28.97,WNW,292,13.2,13.2,58,0.00,,---,1.46,VWS V14.01,2013-01-25 20:49:00,
2013-01-25 14:50:00,7.2,-4.5,28.97,NW,315,15.2,22.2,58,0.00,,---,1.46,VWS V14.01,2013-01-25 20:50:00,
2013-01-25 14:51:00,7.2,-4.5,28.97,NW,315,15.2,22.2,58,0.00,,---,1.46,VWS V14.01,2013-01-25 20:51:00,
2013-01-25 14:52:00,7.2,-4.5,28.97,NW,315,15.2,15.2,58,0.00,,---,1.46,VWS V14.01,2013-01-25 20:52:00,
2013-01-25 14:53:00,7.0,-4.7,28.97,NNW,338,11.2,15.2,58,0.00,,---,1.46,VWS V14.01,2013-01-25 20:53:00,
2013-01-25 14:54:00,7.0,-4.7,28.97,NW,315,11.0,11.2,58,0.00,,---,1.46,VWS V14.01,2013-01-25 20:54:00,
2013-01-25 14:55:00,7.0,-4.7,28.97,NNW,338,17.0,17.0,58,0.00,,---,1.46,VWS V14.01,2013-01-25 20:55:00,
2013-01-25 14:56:00,7.2,-4.5,28.97,NW,315,12.8,17.9,58,0.00,,---,1.46,VWS V14.01,2013-01-25 20:56:00,
2013-01-25 14:57:00,7.2,-4.5,28.97,NNW,338,12.8,12.8,58,0.00,,---,1.46,VWS V14.01,2013-01-25 20:57:00,
2013-01-25 14:58:00,7.0,-4.7,28.97,NNW,338,11.2,15.7,58,0.00,,---,1.46,VWS V14.01,2013-01-25 20:58:00,
2013-01-25 14:59:00,6.8,-4.8,28.97,WNW,292,13.2,19.2,58,0.00,,---,1.46,VWS V14.01,2013-01-25 20:59:00,
2013-01-25 15:00:00,6.8,-4.8,28.97,NW,315,16.8,17.7,58,0.00,,---,1.46,VWS V14.01,2013-01-25 21:00:00,
2013-01-25 15:01:00,6.8,-4.8,28.97,WNW,292,20.8,20.8,58,0.00,,---,1.46,VWS V14.01,2013-01-25 21:01:00,
2013-01-25 15:02:00,6.8,-4.8,28.97,NW,315,19.0,19.0,58,0.00,,---,1.46,VWS V14.01,2013-01-25 21:02:00,
2013-01-25 15:03:00,6.6,-5.0,28.97,NW,315,13.0,19.0,58,0.00,,---,1.46,VWS V14.01,2013-01-25 21:03:00,
2013-01-25 15:04:00,6.6,-5.0,28.97,WNW,292,8.7,18.1,58,0.00,,---,1.46,VWS V14.01,2013-01-25 21:04:00,
2013-01-25 15:05:00,6.6,-5.0,28.97,NW,315,12.5,17.2,58,0.00,,---,1.46,VWS V14.01,2013-01-25 21:05:00,
2013-01-25 15:06:00,6.6,-5.0,28.97,NW,315,16.8,19.5,58,0.00,,---,1.46,VWS V14.01,2013-01-25 21:06:00,
2013-01-25 15:07:00,6.6,-5.0,28.97,NW,315,17.0,17.0,58,0.00,,---,1.46,VWS V14.01,2013-01-25 21:07:00,
2013-01-25 15:08:00,6.6,-5.0,28.97,WNW,292,16.1,17.0,58,0.00,,---,1.46,VWS V14.01,2013-01-25 21:08:00,
2013-01-25 15:09:00,6.6,-5.0,28.97,NNW,338,13.0,16.1,58,0.00,,---,1.46,VWS V14.01,2013-01-25 21:09:00,
2013-01-25 15:10:00,6.6,-5.0,28.97,WNW,292,15.2,15.2,58,0.00,,---,1.46,VWS V14.01,2013-01-25 21:10:00,
2013-01-25 15:11:00,6.6,-5.0,28.97,NW,315,20.6,20.6,58,0.00,,---,1.46,VWS V14.01,2013-01-25 21:11:00,
2013-01-25 15:12:00,6.6,-5.0,28.97,NNW,338,12.1,17.5,58,0.00,,---,1.46,VWS V14.01,2013-01-25 21:12:00,
2013-01-25 15:13:00,6.6,-5.0,28.97,NNW,338,14.5,14.5,58,0.00,,---,1.46,VWS V14.01,2013-01-25 21:13:00,
2013-01-25 15:15:00,6.6,-5.0,28.97,NNW,338,10.1,14.5,58,0.00,,---,1.46,VWS V14.01,2013-01-25 21:15:00,
2013-01-25 15:16:00,6.6,-5.0,28.97,NNW,338,13.0,13.0,58,0.00,,---,1.46,VWS V14.01,2013-01-25 21:16:00,
2013-01-25 15:17:00,6.6,-5.0,29.00,NNW,338,12.8,15.2,58,0.00,,---,1.46,VWS V14.01,2013-01-25 21:17:00,
2013-01-25 15:18:00,6.6,-5.0,29.00,North,0,8.1,12.8,58,0.00,,---,1.46,VWS V14.01,2013-01-25 21:18:00,
2013-01-25 15:19:00,6.6,-5.0,29.00,WNW,292,9.6,9.6,58,0.00,,---,1.46,VWS V14.01,2013-01-25 21:19:00,
2013-01-25 15:20:00,6.6,-5.0,29.00,NW,315,12.3,12.8,58,0.00,,---,1.46,VWS V14.01,2013-01-25 21:20:00,
2013-01-25 15:21:00,6.6,-5.0,29.00,NW,315,12.1,17.7,58,0.00,,---,1.46,VWS V14.01,2013-01-25 21:21:00,
2013-01-25 15:22:00,6.6,-5.0,29.00,NNW,338,12.1,19.0,58,0.00,,---,1.46,VWS V14.01,2013-01-25 21:22:00,
2013-01-25 15:23:00,6.6,-5.0,29.00,WNW,292,17.0,17.0,58,0.00,,---,1.46,VWS V14.01,2013-01-25 21:23:00,
2013-01-25 15:24:00,6.6,-5.0,29.00,NNW,338,13.2,17.0,58,0.00,,---,1.46,VWS V14.01,2013-01-25 21:24:00,
2013-01-25 15:25:00,6.6,-5.0,29.00,NW,315,12.8,17.0,58,0.00,,---,1.46,VWS V14.01,2013-01-25 21:25:00,
2013-01-25 15:26:00,6.6,-5.0,29.00,NW,315,11.0,17.9,58,0.00,,---,1.46,VWS V14.01,2013-01-25 21:26:00,
2013-01-25 15:27:00,6.6,-5.0,29.00,WNW,292,9.8,12.5,58,0.00,,---,1.46,VWS V14.01,2013-01-25 21:27:00,
2013-01-25 15:28:00,6.6,-5.0,29.00,NW,315,11.9,15.7,58,0.00,,---,1.46,VWS V14.01,2013-01-25 21:28:00,
2013-01-25 15:29:00,6.6,-5.0,29.00,NNW,338,15.4,17.2,58,0.00,,---,1.46,VWS V14.01,2013-01-25 21:29:00,
2013-01-25 15:30:00,6.6,-5.0,29.00,NW,315,15.4,15.4,58,0.00,,---,1.46,VWS V14.01,2013-01-25 21:30:00,
2013-01-25 15:31:00,6.6,-5.0,29.00,NW,315,17.0,23.5,58,0.00,,---,1.46,VWS V14.01,2013-01-25 21:31:00,
2013-01-25 15:32:00,6.6,-5.0,29.00,NW,315,17.0,23.5,58,0.00,,---,1.46,VWS V14.01,2013-01-25 21:32:00,
2013-01-25 15:33:00,6.6,-5.0,29.00,NNW,338,9.8,17.0,58,0.00,,---,1.46,VWS V14.01,2013-01-25 21:33:00,
2013-01-25 15:34:00,6.6,-5.0,29.00,WNW,292,8.7,17.0,58,0.00,,---,1.46,VWS V14.01,2013-01-25 21:34:00,
2013-01-25 15:35:00,6.6,-5.0,29.00,NNW,338,10.7,12.8,58,0.00,,---,1.46,VWS V14.01,2013-01-25 21:35:00,
2013-01-25 15:36:00,6.6,-5.0,29.00,NNE,22,13.6,13.6,58,0.00,,---,1.46,VWS V14.01,2013-01-25 21:36:00,
2013-01-25 15:37:00,6.6,-5.0,29.00,NNW,338,14.5,14.5,58,0.00,,---,1.46,VWS V14.01,2013-01-25 21:37:00,
2013-01-25 15:38:00,6.6,-5.0,29.00,NW,315,15.4,15.4,58,0.00,,---,1.46,VWS V14.01,2013-01-25 21:38:00,
2013-01-25 15:39:00,6.6,-5.0,29.00,NNW,338,16.3,19.5,58,0.00,,---,1.46,VWS V14.01,2013-01-25 21:39:00,
2013-01-25 15:40:00,6.6,-5.0,29.00,NW,315,10.1,19.5,58,0.00,,---,1.46,VWS V14.01,2013-01-25 21:40:00,
2013-01-25 15:41:00,6.6,-5.0,29.00,NNW,338,12.5,12.5,58,0.00,,---,1.46,VWS V14.01,2013-01-25 21:41:00,
2013-01-25 15:42:00,6.6,-5.0,29.00,NNW,338,15.4,15.4,58,0.00,,---,1.46,VWS V14.01,2013-01-25 21:42:00,
2013-01-25 15:43:00,6.6,-5.0,29.00,NNW,338,10.5,15.4,58,0.00,,---,1.46,VWS V14.01,2013-01-25 21:43:00,
2013-01-25 15:44:00,6.6,-5.0,29.00,NNE,22,10.7,12.8,58,0.00,,---,1.46,VWS V14.01,2013-01-25 21:44:00,
2013-01-25 15:45:00,6.6,-5.0,29.00,NW,315,6.5,10.7,58,0.00,,---,1.46,VWS V14.01,2013-01-25 21:45:00,
2013-01-25 15:46:00,6.6,-5.0,29.00,NW,315,10.7,10.7,58,0.00,,---,1.46,VWS V14.01,2013-01-25 21:46:00,
2013-01-25 15:47:00,6.6,-5.0,28.97,NNW,338,8.7,14.5,58,0.00,,---,1.46,VWS V14.01,2013-01-25 21:47:00,
2013-01-25 15:48:00,6.6,-5.0,28.97,NW,315,17.0,20.6,58,0.00,,---,1.46,VWS V14.01,2013-01-25 21:48:00,
2013-01-25 15:49:00,6.6,-5.0,28.97,NNW,338,10.7,17.7,58,0.00,,---,1.46,VWS V14.01,2013-01-25 21:49:00,
2013-01-25 15:50:00,6.6,-5.0,28.97,WNW,292,13.4,15.2,58,0.00,,---,1.46,VWS V14.01,2013-01-25 21:50:00,
2013-01-25 15:51:00,6.6,-5.0,28.97,WNW,292,9.8,13.4,58,0.00,,---,1.46,VWS V14.01,2013-01-25 21:51:00,
2013-01-25 15:52:00,6.6,-5.0,28.97,NNW,338,13.0,15.4,58,0.00,,---,1.46,VWS V14.01,2013-01-25 21:52:00,
2013-01-25 15:53:00,6.6,-5.0,28.97,NNW,338,10.5,13.0,58,0.00,,---,1.46,VWS V14.01,2013-01-25 21:53:00,
2013-01-25 15:54:00,6.6,-5.0,28.97,NNW,338,9.0,10.5,58,0.00,,---,1.46,VWS V14.01,2013-01-25 21:54:00,
2013-01-25 15:55:00,6.6,-5.0,28.97,NNW,338,13.0,13.2,58,0.00,,---,1.46,VWS V14.01,2013-01-25 21:55:00,
2013-01-25 15:56:00,6.6,-5.0,28.97,WNW,292,7.8,13.0,58,0.00,,---,1.46,VWS V14.01,2013-01-25 21:56:00,
2013-01-25 15:57:00,6.6,-5.0,28.97,NW,315,6.3,14.1,58,0.00,,---,1.46,VWS V14.01,2013-01-25 21:57:00,
2013-01-25 15:58:00,6.6,-5.0,28.97,NNE,22,15.2,15.2,58,0.00,,---,1.46,VWS V14.01,2013-01-25 21:58:00,
2013-01-25 15:59:00,6.6,-5.0,28.97,NNW,338,10.5,15.2,58,0.00,,---,1.46,VWS V14.01,2013-01-25 21:59:00,
2013-01-25 16:00:00,6.6,-5.0,28.97,NNW,338,8.1,12.3,58,0.00,,---,1.46,VWS V14.01,2013-01-25 22:00:00,
2013-01-25 16:01:00,6.6,-5.0,28.97,NNW,338,8.7,10.5,58,0.00,,---,1.46,VWS V14.01,2013-01-25 22:01:00,
2013-01-25 16:02:00,6.6,-5.0,29.00,North,0,8.1,10.1,58,0.00,,---,1.46,VWS V14.01,2013-01-25 22:02:00,
2013-01-25 16:03:00,6.6,-5.0,29.00,NNW,338,10.1,13.2,58,0.00,,---,1.46,VWS V14.01,2013-01-25 22:03:00,
2013-01-25 16:04:00,6.6,-5.0,29.00,NNW,338,8.1,13.0,58,0.00,,---,1.46,VWS V14.01,2013-01-25 22:04:00,
2013-01-25 16:05:00,6.6,-5.0,29.00,NW,315,13.0,13.0,58,0.00,,---,1.46,VWS V14.01,2013-01-25 22:05:00,
2013-01-25 16:06:00,6.6,-5.0,29.00,NNW,338,7.4,13.0,58,0.00,,---,1.46,VWS V14.01,2013-01-25 22:06:00,
2013-01-25 16:07:00,6.6,-5.0,29.00,NNW,338,5.8,8.7,58,0.00,,---,1.46,VWS V14.01,2013-01-25 22:07:00,
2013-01-25 16:08:00,6.6,-5.0,29.00,NNW,338,12.1,12.1,58,0.00,,---,1.46,VWS V14.01,2013-01-25 22:08:00,
2013-01-25 16:09:00,6.6,-5.0,29.00,NNW,338,15.9,15.9,58,0.00,,---,1.46,VWS V14.01,2013-01-25 22:09:00,
2013-01-25 16:10:00,6.6,-5.0,29.00,NNW,338,10.5,15.9,58,0.00,,---,1.46,VWS V14.01,2013-01-25 22:10:00,
2013-01-25 16:11:00,6.6,-5.0,29.00,NW,315,7.4,13.2,58,0.00,,---,1.46,VWS V14.01,2013-01-25 22:11:00,
2013-01-25 16:12:00,5.7,-5.9,29.00,NNW,338,5.4,10.7,58,0.00,,---,1.46,VWS V14.01,2013-01-25 22:12:00,
2013-01-25 16:13:00,5.7,-5.9,29.00,NNW,338,8.1,13.4,58,0.00,,---,1.46,VWS V14.01,2013-01-25 22:13:00,
2013-01-25 16:14:00,5.7,-5.9,29.00,NNW,338,7.2,9.2,58,0.00,,---,1.46,VWS V14.01,2013-01-25 22:14:00,
2013-01-25 16:15:00,5.7,-5.9,29.00,NNW,338,10.7,12.8,58,0.00,,---,1.46,VWS V14.01,2013-01-25 22:15:00,
2013-01-25 16:16:00,5.7,-5.9,29.00,NNW,338,10.3,13.2,58,0.00,,---,1.46,VWS V14.01,2013-01-25 22:16:00,
2013-01-25 16:17:00,5.7,-5.9,29.00,NNW,338,15.4,15.4,58,0.00,,---,1.46,VWS V14.01,2013-01-25 22:17:00,
2013-01-25 16:18:00,5.7,-5.9,29.00,NNW,338,10.5,15.4,58,0.00,,---,1.46,VWS V14.01,2013-01-25 22:18:00,
2013-01-25 16:19:00,5.7,-5.9,29.00,NW,315,13.2,15.4,58,0.00,,---,1.46,VWS V14.01,2013-01-25 22:19:00,
2013-01-25 16:20:00,5.7,-5.9,29.00,NW,315,8.1,13.2,58,0.00,,---,1.46,VWS V14.01,2013-01-25 22:20:00,
2013-01-25 16:21:00,5.7,-5.9,29.00,WNW,292,16.8,17.0,58,0.00,,---,1.46,VWS V14.01,2013-01-25 22:21:00,
2013-01-25 16:22:00,5.4,-6.2,29.00,NNW,338,15.4,16.8,58,0.00,,---,1.46,VWS V14.01,2013-01-25 22:22:00,
2013-01-25 16:23:00,5.4,-6.2,29.00,NNW,338,7.6,15.4,58,0.00,,---,1.46,VWS V14.01,2013-01-25 22:23:00,
2013-01-25 16:24:00,5.4,-6.2,29.00,NNW,338,7.4,7.6,58,0.00,,---,1.46,VWS V14.01,2013-01-25 22:24:00,
2013-01-25 16:25:00,5.4,-6.2,29.00,NNW,338,13.2,13.2,58,0.00,,---,1.46,VWS V14.01,2013-01-25 22:25:00,
2013-01-25 16:26:00,5.4,-6.2,29.00,NNW,338,10.5,13.2,58,0.00,,---,1.46,VWS V14.01,2013-01-25 22:26:00,
2013-01-25 16:27:00,5.4,-6.2,29.00,NNW,338,8.1,10.5,58,0.00,,---,1.46,VWS V14.01,2013-01-25 22:27:00,
2013-01-25 16:28:00,5.4,-6.2,29.00,WNW,292,10.3,10.5,58,0.00,,---,1.46,VWS V14.01,2013-01-25 22:28:00,
2013-01-25 16:29:00,5.4,-6.2,29.00,NW,315,9.8,10.3,58,0.00,,---,1.46,VWS V14.01,2013-01-25 22:29:00,
2013-01-25 16:30:00,5.4,-6.2,29.00,NW,315,8.1,11.0,58,0.00,,---,1.46,VWS V14.01,2013-01-25 22:30:00,
2013-01-25 16:31:00,5.4,-6.2,29.00,NNW,338,7.8,13.2,58,0.00,,---,1.46,VWS V14.01,2013-01-25 22:31:00,
2013-01-25 16:32:00,5.4,-6.2,29.00,NNW,338,6.9,12.5,58,0.00,,---,1.46,VWS V14.01,2013-01-25 22:32:00,
2013-01-25 16:33:00,5.4,-6.2,29.00,NNE,22,9.8,11.2,58,0.00,,---,1.46,VWS V14.01,2013-01-25 22:33:00,
2013-01-25 16:34:00,5.4,-6.2,29.00,NNW,338,8.5,9.8,58,0.00,,---,1.46,VWS V14.01,2013-01-25 22:34:00,
2013-01-25 16:35:00,5.4,-6.2,29.00,NNW,338,9.8,9.8,58,0.00,,---,1.46,VWS V14.01,2013-01-25 22:35:00,
2013-01-25 16:36:00,5.4,-6.2,29.00,NNW,338,10.5,10.7,58,0.00,,---,1.46,VWS V14.01,2013-01-25 22:36:00,
2013-01-25 16:37:00,5.4,-6.2,29.00,NNW,338,12.5,17.5,58,0.00,,---,1.46,VWS V14.01,2013-01-25 22:37:00,
2013-01-25 16:38:00,5.4,-6.2,29.00,NNW,338,9.8,12.5,58,0.00,,---,1.46,VWS V14.01,2013-01-25 22:38:00,
2013-01-25 16:39:00,5.4,-6.2,29.00,NNW,338,14.3,14.3,58,0.00,,---,1.46,VWS V14.01,2013-01-25 22:39:00,
2013-01-25 16:40:00,5.4,-6.2,29.00,NNW,338,13.0,14.3,58,0.00,,---,1.46,VWS V14.01,2013-01-25 22:40:00,
2013-01-25 16:41:00,5.4,-6.2,29.00,WNW,292,9.2,14.8,58,0.00,,---,1.46,VWS V14.01,2013-01-25 22:41:00,
2013-01-25 16:42:00,5.4,-6.2,29.00,NNE,22,11.0,11.4,58,0.00,,---,1.46,VWS V14.01,2013-01-25 22:42:00,
2013-01-25 16:43:00,5.4,-6.2,29.00,NNW,338,15.4,15.4,58,0.00,,---,1.46,VWS V14.01,2013-01-25 22:43:00,
2013-01-25 16:44:00,5.4,-6.2,29.00,NW,315,10.7,16.3,58,0.00,,---,1.46,VWS V14.01,2013-01-25 22:44:00,
2013-01-25 16:45:00,5.4,-6.2,29.00,NNW,338,10.5,11.9,58,0.00,,---,1.46,VWS V14.01,2013-01-25 22:45:00,
2013-01-25 16:46:00,5.4,-6.2,29.00,NW,315,8.7,13.0,58,0.00,,---,1.46,VWS V14.01,2013-01-25 22:46:00,
2013-01-25 16:47:00,5.4,-6.2,29.00,NW,315,13.0,13.0,58,0.00,,---,1.46,VWS V14.01,2013-01-25 22:47:00,
2013-01-25 16:48:00,5.4,-6.2,29.00,North,0,7.6,12.5,58,0.00,,---,1.46,VWS V14.01,2013-01-25 22:48:00,
2013-01-25 16:49:00,5.4,-6.2,29.00,WNW,292,12.1,12.1,58,0.00,,---,1.46,VWS V14.01,2013-01-25 22:49:00,
2013-01-25 16:50:00,5.4,-6.2,29.00,NNW,338,13.9,15.4,58,0.00,,---,1.46,VWS V14.01,2013-01-25 22:50:00,
2013-01-25 16:51:00,5.4,-6.2,29.00,NW,315,12.8,16.3,58,0.00,,---,1.46,VWS V14.01,2013-01-25 22:51:00,
2013-01-25 16:52:00,5.4,-6.2,29.00,NNW,338,10.3,12.8,58,0.00,,---,1.46,VWS V14.01,2013-01-25 22:52:00,
2013-01-25 16:53:00,5.4,-6.2,29.00,NNW,338,12.5,12.5,58,0.00,,---,1.46,VWS V14.01,2013-01-25 22:53:00,
2013-01-25 16:54:00,5.4,-6.2,29.00,NW,315,9.2,12.5,58,0.00,,---,1.46,VWS V14.01,2013-01-25 22:54:00,
2013-01-25 16:55:00,5.4,-6.2,29.00,NNW,338,12.5,13.4,58,0.00,,---,1.46,VWS V14.01,2013-01-25 22:55:00,
2013-01-25 16:56:00,5.4,-6.2,29.00,NNW,338,6.0,15.2,58,0.00,,---,1.46,VWS V14.01,2013-01-25 22:56:00,
2013-01-25 16:57:00,5.4,-6.2,29.00,NNW,338,6.0,6.0,58,0.00,,---,1.46,VWS V14.01,2013-01-25 22:57:00,
2013-01-25 16:58:00,5.4,-6.2,29.00,NNW,338,10.1,12.5,58,0.00,,---,1.46,VWS V14.01,2013-01-25 22:58:00,
2013-01-25 16:59:00,5.4,-6.2,29.00,NNW,338,7.4,10.5,58,0.00,,---,1.46,VWS V14.01,2013-01-25 22:59:00,
2013-01-25 17:00:00,5.4,-6.2,29.00,NW,315,6.5,7.8,58,0.00,,---,1.46,VWS V14.01,2013-01-25 23:00:00,
2013-01-25 17:01:00,4.1,-7.4,29.00,NNW,338,7.8,12.8,58,0.00,,---,1.46,VWS V14.01,2013-01-25 23:01:00,
2013-01-25 17:02:00,4.1,-7.4,29.03,NNW,338,7.8,7.8,58,0.00,,---,1.46,VWS V14.01,2013-01-25 23:02:00,
2013-01-25 17:03:00,4.1,-7.4,29.03,WNW,292,10.7,10.7,58,0.00,,---,1.46,VWS V14.01,2013-01-25 23:03:00,
2013-01-25 17:04:00,4.1,-7.4,29.03,NNW,338,5.8,10.7,58,0.00,,---,1.46,VWS V14.01,2013-01-25 23:04:00,
2013-01-25 17:05:00,4.1,-7.4,29.03,NNW,338,6.5,8.7,58,0.00,,---,1.46,VWS V14.01,2013-01-25 23:05:00,
2013-01-25 17:06:00,4.1,-7.4,29.03,NNW,338,12.3,12.3,58,0.00,,---,1.46,VWS V14.01,2013-01-25 23:06:00,
2013-01-25 17:07:00,4.1,-7.4,29.03,NW,315,10.3,12.3,58,0.00,,---,1.46,VWS V14.01,2013-01-25 23:07:00,
2013-01-25 17:08:00,4.1,-7.4,29.03,NNW,338,7.8,9.0,58,0.00,,---,1.46,VWS V14.01,2013-01-25 23:08:00,
2013-01-25 17:09:00,4.1,-7.4,29.03,NNW,338,7.4,7.8,58,0.00,,---,1.46,VWS V14.01,2013-01-25 23:09:00,
2013-01-25 17:10:00,4.1,-7.4,29.03,WNW,292,8.7,8.7,58,0.00,,---,1.46,VWS V14.01,2013-01-25 23:10:00,
2013-01-25 17:11:00,4.1,-7.4,29.03,WNW,292,5.8,8.7,58,0.00,,---,1.46,VWS V14.01,2013-01-25 23:11:00,
2013-01-25 17:12:00,4.1,-7.4,29.03,NW,315,6.0,6.0,58,0.00,,---,1.46,VWS V14.01,2013-01-25 23:12:00,
2013-01-25 17:13:00,4.1,-7.4,29.03,NW,315,10.3,12.1,58,0.00,,---,1.46,VWS V14.01,2013-01-25 23:13:00,
2013-01-25 17:14:00,4.1,-7.4,29.03,WNW,292,9.8,10.7,58,0.00,,---,1.46,VWS V14.01,2013-01-25 23:14:00,
2013-01-25 17:15:00,4.1,-7.4,29.03,NW,315,8.7,10.3,58,0.00,,---,1.46,VWS V14.01,2013-01-25 23:15:00,
2013-01-25 17:16:00,4.1,-7.4,29.03,NW,315,8.1,8.7,58,0.00,,---,1.46,VWS V14.01,2013-01-25 23:16:00,
2013-01-25 17:17:00,4.1,-7.4,29.03,NW,315,6.7,8.1,58,0.00,,---,1.46,VWS V14.01,2013-01-25 23:17:00,
2013-01-25 17:18:00,4.1,-7.4,29.03,NW,315,9.8,9.8,58,0.00,,---,1.46,VWS V14.01,2013-01-25 23:18:00,
2013-01-25 17:19:00,4.1,-7.4,29.03,NW,315,6.3,9.8,58,0.00,,---,1.46,VWS V14.01,2013-01-25 23:19:00,
2013-01-25 17:20:00,4.1,-7.4,29.03,NW,315,6.5,10.5,58,0.00,,---,1.46,VWS V14.01,2013-01-25 23:20:00,
2013-01-25 17:21:00,4.1,-7.4,29.03,NNW,338,7.2,7.6,58,0.00,,---,1.46,VWS V14.01,2013-01-25 23:21:00,
2013-01-25 17:22:00,4.1,-7.4,29.03,NW,315,6.5,7.2,58,0.00,,---,1.46,VWS V14.01,2013-01-25 23:22:00,
2013-01-25 17:23:00,4.1,-7.4,29.03,NNW,338,6.9,11.0,58,0.00,,---,1.46,VWS V14.01,2013-01-25 23:23:00,
2013-01-25 17:24:00,4.1,-7.4,29.03,NNW,338,9.6,9.6,58,0.00,,---,1.46,VWS V14.01,2013-01-25 23:24:00,
2013-01-25 17:25:00,4.1,-7.4,29.03,NW,315,9.4,10.5,58,0.00,,---,1.46,VWS V14.01,2013-01-25 23:25:00,
2013-01-25 17:26:00,4.1,-7.4,29.03,North,0,12.5,12.5,58,0.00,,---,1.46,VWS V14.01,2013-01-25 23:26:00,
2013-01-25 17:27:00,4.1,-7.4,29.03,North,0,12.5,12.5,58,0.00,,---,1.46,VWS V14.01,2013-01-25 23:27:00,
2013-01-25 17:28:00,4.1,-7.4,29.03,WNW,292,11.9,12.1,58,0.00,,---,1.46,VWS V14.01,2013-01-25 23:28:00,
2013-01-25 17:29:00,4.1,-7.4,29.03,NNW,338,12.3,12.3,58,0.00,,---,1.46,VWS V14.01,2013-01-25 23:29:00,
2013-01-25 17:30:00,4.1,-7.4,29.03,NW,315,10.7,12.3,58,0.00,,---,1.46,VWS V14.01,2013-01-25 23:30:00,
2013-01-25 17:31:00,4.1,-7.4,29.03,NW,315,13.0,13.0,58,0.00,,---,1.46,VWS V14.01,2013-01-25 23:31:00,
2013-01-25 17:32:00,4.1,-7.4,29.03,NW,315,10.1,13.0,58,0.00,,---,1.46,VWS V14.01,2013-01-25 23:32:00,
2013-01-25 17:33:00,4.1,-7.4,29.03,NW,315,13.4,13.4,58,0.00,,---,1.46,VWS V14.01,2013-01-25 23:33:00,
2013-01-25 17:34:00,4.1,-7.4,29.03,NW,315,7.6,13.4,58,0.00,,---,1.46,VWS V14.01,2013-01-25 23:34:00,
2013-01-25 17:35:00,4.1,-7.4,29.03,WNW,292,10.1,10.1,58,0.00,,---,1.46,VWS V14.01,2013-01-25 23:35:00,
2013-01-25 17:36:00,4.1,-7.4,29.03,NW,315,10.3,12.8,58,0.00,,---,1.46,VWS V14.01,2013-01-25 23:36:00,
2013-01-25 17:37:00,4.1,-7.4,29.03,NW,315,9.8,10.3,58,0.00,,---,1.46,VWS V14.01,2013-01-25 23:37:00,
2013-01-25 17:38:00,4.1,-7.4,29.03,WNW,292,10.7,10.7,58,0.00,,---,1.46,VWS V14.01,2013-01-25 23:38:00,
2013-01-25 17:39:00,4.1,-7.4,29.03,NW,315,6.9,12.3,58,0.00,,---,1.46,VWS V14.01,2013-01-25 23:39:00,
2013-01-25 17:40:00,4.1,-7.4,29.03,WNW,292,8.5,10.3,58,0.00,,---,1.46,VWS V14.01,2013-01-25 23:40:00,
2013-01-25 17:41:00,4.1,-7.4,29.03,NW,315,9.0,9.6,58,0.00,,---,1.46,VWS V14.01,2013-01-25 23:41:00,
2013-01-25 17:42:00,4.1,-7.4,29.03,NW,315,9.8,9.8,58,0.00,,---,1.46,VWS V14.01,2013-01-25 23:42:00,
2013-01-25 17:43:00,4.1,-7.4,29.03,WNW,292,11.0,13.0,58,0.00,,---,1.46,VWS V14.01,2013-01-25 23:43:00,
2013-01-25 17:44:00,4.1,-7.4,29.03,NW,315,8.7,11.0,58,0.00,,---,1.46,VWS V14.01,2013-01-25 23:44:00,
2013-01-25 17:45:00,4.1,-7.4,29.03,WNW,292,7.4,11.0,58,0.00,,---,1.46,VWS V14.01,2013-01-25 23:45:00,
2013-01-25 17:46:00,4.1,-7.4,29.03,WNW,292,12.3,13.0,58,0.00,,---,1.46,VWS V14.01,2013-01-25 23:46:00,
2013-01-25 17:47:00,4.1,-7.4,29.03,NW,315,12.8,12.8,58,0.00,,---,1.46,VWS V14.01,2013-01-25 23:47:00,
2013-01-25 17:48:00,4.1,-7.4,29.03,NW,315,8.5,11.0,58,0.00,,---,1.46,VWS V14.01,2013-01-25 23:48:00,
2013-01-25 17:49:00,4.1,-7.4,29.03,WSW,248,8.5,9.4,58,0.00,,---,1.46,VWS V14.01,2013-01-25 23:49:00,
2013-01-25 17:50:00,4.1,-7.4,29.03,NW,315,9.8,9.8,58,0.00,,---,1.46,VWS V14.01,2013-01-25 23:50:00,
2013-01-25 17:51:00,4.1,-7.4,29.03,NW,315,10.1,10.1,58,0.00,,---,1.46,VWS V14.01,2013-01-25 23:51:00,
2013-01-25 17:52:00,4.1,-7.4,29.03,NNW,338,9.8,10.1,58,0.00,,---,1.46,VWS V14.01,2013-01-25 23:52:00,
2013-01-25 17:53:00,4.1,-7.4,29.03,WNW,292,7.8,10.5,58,0.00,,---,1.46,VWS V14.01,2013-01-25 23:53:00,
2013-01-25 17:54:00,4.1,-7.4,29.03,WNW,292,9.4,9.6,58,0.00,,---,1.46,VWS V14.01,2013-01-25 23:54:00,
2013-01-25 17:55:00,4.1,-7.4,29.03,WNW,292,8.5,9.4,58,0.00,,---,1.46,VWS V14.01,2013-01-25 23:55:00,
2013-01-25 17:56:00,4.1,-7.4,29.03,WNW,292,6.9,8.5,58,0.00,,---,1.46,VWS V14.01,2013-01-25 23:56:00,
2013-01-25 17:57:00,4.1,-7.4,29.03,WNW,292,7.2,7.2,58,0.00,,---,1.46,VWS V14.01,2013-01-25 23:57:00,
2013-01-25 17:58:00,4.1,-7.4,29.03,WNW,292,7.8,7.8,58,0.00,,---,1.46,VWS V14.01,2013-01-25 23:58:00,
2013-01-25 17:59:00,4.1,-7.4,29.03,NNW,338,7.2,7.8,58,0.00,,---,1.46,VWS V14.01,2013-01-25 23:59:00,
2013-01-25 18:00:00,4.1,-7.4,29.03,NW,315,6.0,7.2,58,0.00,,---,1.46,VWS V14.01,2013-01-26 00:00:00,
2013-01-25 18:01:00,4.1,-7.4,29.03,NW,315,6.3,8.5,58,0.00,,---,1.46,VWS V14.01,2013-01-26 00:01:00,
2013-01-25 18:02:00,4.1,-7.4,29.03,WNW,292,7.2,7.2,58,0.00,,---,1.46,VWS V14.01,2013-01-26 00:02:00,
2013-01-25 18:03:00,4.1,-7.4,29.03,NW,315,6.3,8.7,58,0.00,,---,1.46,VWS V14.01,2013-01-26 00:03:00,
2013-01-25 18:04:00,4.1,-7.4,29.03,WNW,292,8.5,8.5,58,0.00,,---,1.46,VWS V14.01,2013-01-26 00:04:00,
2013-01-25 18:05:00,4.1,-7.4,29.03,WNW,292,10.1,10.1,58,0.00,,---,1.46,VWS V14.01,2013-01-26 00:05:00,
2013-01-25 18:06:00,4.1,-7.4,29.03,NW,315,10.5,10.5,58,0.00,,---,1.46,VWS V14.01,2013-01-26 00:06:00,
2013-01-25 18:07:00,4.1,-7.4,29.03,WNW,292,10.3,10.5,58,0.00,,---,1.46,VWS V14.01,2013-01-26 00:07:00,
2013-01-25 18:08:00,4.1,-7.4,29.03,WNW,292,9.0,9.8,58,0.00,,---,1.46,VWS V14.01,2013-01-26 00:08:00,
2013-01-25 18:09:00,4.1,-7.4,29.03,NW,315,7.6,9.8,58,0.00,,---,1.46,VWS V14.01,2013-01-26 00:09:00,
2013-01-25 18:10:00,4.1,-7.4,29.03,WNW,292,13.2,13.2,58,0.00,,---,1.46,VWS V14.01,2013-01-26 00:10:00,
2013-01-25 18:11:00,4.1,-7.4,29.03,WNW,292,8.1,13.2,58,0.00,,---,1.46,VWS V14.01,2013-01-26 00:11:00,
2013-01-25 18:12:00,4.1,-7.4,29.03,NW,315,9.8,9.8,58,0.00,,---,1.46,VWS V14.01,2013-01-26 00:12:00,
2013-01-25 18:13:00,4.1,-7.4,29.03,NW,315,8.7,10.1,58,0.00,,---,1.46,VWS V14.01,2013-01-26 00:13:00,
2013-01-25 18:14:00,4.1,-7.4,29.03,WNW,292,10.3,10.3,58,0.00,,---,1.46,VWS V14.01,2013-01-26 00:14:00,
2013-01-25 18:15:00,4.1,-7.4,29.03,NNW,338,8.7,10.3,58,0.00,,---,1.46,VWS V14.01,2013-01-26 00:15:00,
2013-01-25 18:16:00,4.1,-7.4,29.03,WNW,292,8.5,8.7,58,0.00,,---,1.46,VWS V14.01,2013-01-26 00:16:00,
2013-01-25 18:17:00,4.1,-7.4,29.03,NNW,338,5.8,8.5,58,0.00,,---,1.46,VWS V14.01,2013-01-26 00:17:00,
2013-01-25 18:18:00,4.1,-7.4,29.03,NW,315,7.8,8.7,58,0.00,,---,1.46,VWS V14.01,2013-01-26 00:18:00,
2013-01-25 18:19:00,4.1,-7.4,29.03,NW,315,7.8,7.8,58,0.00,,---,1.46,VWS V14.01,2013-01-26 00:19:00,
2013-01-25 18:20:00,4.1,-7.4,29.03,NNW,338,11.0,11.0,58,0.00,,---,1.46,VWS V14.01,2013-01-26 00:20:00,
2013-01-25 18:21:00,4.1,-7.4,29.03,NW,315,7.4,11.0,58,0.00,,---,1.46,VWS V14.01,2013-01-26 00:21:00,
2013-01-25 18:22:00,4.1,-7.4,29.03,NW,315,8.7,8.7,58,0.00,,---,1.46,VWS V14.01,2013-01-26 00:22:00,
2013-01-25 18:23:00,4.1,-7.4,29.03,WNW,292,6.0,7.6,58,0.00,,---,1.46,VWS V14.01,2013-01-26 00:23:00,
2013-01-25 18:24:00,4.1,-7.4,29.03,NNW,338,5.6,9.0,58,0.00,,---,1.46,VWS V14.01,2013-01-26 00:24:00,
2013-01-25 18:25:00,4.1,-7.4,29.03,NNW,338,5.4,9.0,58,0.00,,---,1.46,VWS V14.01,2013-01-26 00:25:00,
2013-01-25 18:26:00,4.1,-7.4,29.03,NNW,338,6.3,7.6,58,0.00,,---,1.46,VWS V14.01,2013-01-26 00:26:00,
2013-01-25 18:27:00,4.1,-7.4,29.03,NW,315,6.5,6.5,58,0.00,,---,1.46,VWS V14.01,2013-01-26 00:27:00,
2013-01-25 18:28:00,4.1,-7.4,29.03,NNW,338,5.8,7.2,58,0.00,,---,1.46,VWS V14.01,2013-01-26 00:28:00,
2013-01-25 18:29:00,4.1,-7.4,29.03,NNW,338,4.9,5.8,58,0.00,,---,1.46,VWS V14.01,2013-01-26 00:29:00,
2013-01-25 18:30:00,4.1,-7.4,29.03,North,0,7.2,7.2,58,0.00,,---,1.46,VWS V14.01,2013-01-26 00:30:00,
2013-01-25 18:32:00,4.1,-7.4,29.03,NNW,338,6.0,7.2,58,0.00,,---,1.46,VWS V14.01,2013-01-26 00:32:00,
2013-01-25 18:33:00,4.1,-7.4,29.03,NW,315,6.3,7.8,58,0.00,,---,1.46,VWS V14.01,2013-01-26 00:33:00,
2013-01-25 18:34:00,4.1,-7.4,29.03,NW,315,5.8,7.2,58,0.00,,---,1.46,VWS V14.01,2013-01-26 00:34:00,
2013-01-25 18:35:00,4.1,-7.4,29.03,NW,315,7.4,7.8,58,0.00,,---,1.46,VWS V14.01,2013-01-26 00:35:00,
2013-01-25 18:36:00,4.1,-7.4,29.03,WNW,292,5.8,7.6,58,0.00,,---,1.46,VWS V14.01,2013-01-26 00:36:00,
2013-01-25 18:37:00,4.1,-7.4,29.03,NW,315,6.7,8.1,58,0.00,,---,1.46,VWS V14.01,2013-01-26 00:37:00,
2013-01-25 18:38:00,4.1,-7.4,29.03,North,0,7.8,7.8,58,0.00,,---,1.46,VWS V14.01,2013-01-26 00:38:00,
2013-01-25 18:39:00,4.1,-7.4,29.03,NNW,338,6.3,9.6,58,0.00,,---,1.46,VWS V14.01,2013-01-26 00:39:00,
2013-01-25 18:40:00,4.1,-7.4,29.03,NW,315,7.6,9.0,58,0.00,,---,1.46,VWS V14.01,2013-01-26 00:40:00,
2013-01-25 18:41:00,4.1,-7.4,29.03,WNW,292,9.6,9.8,58,0.00,,---,1.46,VWS V14.01,2013-01-26 00:41:00,
2013-01-25 18:42:00,4.1,-7.4,29.03,NW,315,8.5,9.6,58,0.00,,---,1.46,VWS V14.01,2013-01-26 00:42:00,
2013-01-25 18:43:00,4.1,-7.4,29.03,NNW,338,7.8,8.1,58,0.00,,---,1.46,VWS V14.01,2013-01-26 00:43:00,
2013-01-25 18:44:00,4.1,-7.4,29.03,NW,315,8.5,9.4,58,0.00,,---,1.46,VWS V14.01,2013-01-26 00:44:00,
2013-01-25 18:45:00,4.1,-7.4,29.03,NW,315,8.5,8.5,58,0.00,,---,1.46,VWS V14.01,2013-01-26 00:45:00,
2013-01-25 18:46:00,4.1,-7.4,29.03,NNW,338,7.8,8.5,58,0.00,,---,1.46,VWS V14.01,2013-01-26 00:46:00,
2013-01-25 18:47:00,4.1,-7.4,29.03,WNW,292,7.6,9.6,58,0.00,,---,1.46,VWS V14.01,2013-01-26 00:47:00,
2013-01-25 18:48:00,4.1,-7.4,29.03,WNW,292,7.4,10.5,58,0.00,,---,1.46,VWS V14.01,2013-01-26 00:48:00,
2013-01-25 18:49:00,4.1,-7.4,29.03,West,270,6.0,8.5,58,0.00,,---,1.46,VWS V14.01,2013-01-26 00:49:00,
2013-01-25 18:50:00,4.1,-7.4,29.03,WNW,292,5.4,6.0,58,0.00,,---,1.46,VWS V14.01,2013-01-26 00:50:00,
2013-01-25 18:51:00,4.1,-7.4,29.03,WNW,292,6.0,8.7,58,0.00,,---,1.46,VWS V14.01,2013-01-26 00:51:00,
2013-01-25 18:52:00,4.1,-7.4,29.03,West,270,7.6,7.8,58,0.00,,---,1.46,VWS V14.01,2013-01-26 00:52:00,
2013-01-25 18:53:00,4.1,-7.4,29.03,West,270,10.5,10.5,58,0.00,,---,1.46,VWS V14.01,2013-01-26 00:53:00,
2013-01-25 18:54:00,4.1,-7.4,29.03,WNW,292,11.2,12.3,58,0.00,,---,1.46,VWS V14.01,2013-01-26 00:54:00,
2013-01-25 18:55:00,4.1,-7.4,29.03,West,270,7.6,11.2,58,0.00,,---,1.46,VWS V14.01,2013-01-26 00:55:00,
2013-01-25 18:56:00,4.1,-7.4,29.03,NNW,338,9.8,9.8,58,0.00,,---,1.46,VWS V14.01,2013-01-26 00:56:00,
2013-01-25 18:57:00,4.1,-7.4,29.03,WNW,292,9.8,9.8,58,0.00,,---,1.46,VWS V14.01,2013-01-26 00:57:00,
2013-01-25 18:58:00,4.1,-7.4,29.03,NNW,338,9.6,9.8,58,0.00,,---,1.46,VWS V14.01,2013-01-26 00:58:00,
2013-01-25 18:59:00,0.1,-11.1,29.03,NW,315,7.4,9.6,58,0.00,,---,1.46,VWS V14.01,2013-01-26 00:59:00,
2013-01-25 19:00:00,0.1,-11.1,29.03,WNW,292,10.3,10.3,58,0.00,,---,1.46,VWS V14.01,2013-01-26 01:00:00,
2013-01-25 19:01:00,0.1,-11.1,29.03,NW,315,7.8,10.3,58,0.00,,---,1.46,VWS V14.01,2013-01-26 01:01:00,
2013-01-25 19:02:00,0.1,-11.1,29.03,NW,315,7.8,7.8,58,0.00,,---,1.46,VWS V14.01,2013-01-26 01:02:00,
2013-01-25 19:03:00,0.1,-11.1,29.09,WNW,292,7.2,8.5,58,0.00,,---,1.46,VWS V14.01,2013-01-26 01:03:00,
2013-01-25 19:04:00,0.1,-11.1,29.09,WNW,292,8.1,8.1,58,0.00,,---,1.46,VWS V14.01,2013-01-26 01:04:00,
2013-01-25 19:05:00,0.1,-11.1,29.09,WNW,292,7.6,8.1,58,0.00,,---,1.46,VWS V14.01,2013-01-26 01:05:00,
2013-01-25 19:07:00,0.1,-11.1,29.09,NW,315,6.0,7.6,58,0.00,,---,1.46,VWS V14.01,2013-01-26 01:07:00,
2013-01-25 19:08:00,0.1,-11.1,29.09,WNW,292,7.8,12.3,58,0.00,,---,1.46,VWS V14.01,2013-01-26 01:08:00,
2013-01-25 19:09:00,0.1,-11.1,29.09,NW,315,6.0,7.8,58,0.00,,---,1.46,VWS V14.01,2013-01-26 01:09:00,
2013-01-25 19:10:00,0.1,-11.1,29.09,WNW,292,7.2,7.8,58,0.00,,---,1.46,VWS V14.01,2013-01-26 01:10:00,
2013-01-25 19:11:00,0.1,-11.1,29.09,NW,315,6.0,8.5,58,0.00,,---,1.46,VWS V14.01,2013-01-26 01:11:00,
2013-01-25 19:12:00,0.1,-11.1,29.09,WNW,292,6.5,9.6,58,0.00,,---,1.46,VWS V14.01,2013-01-26 01:12:00,
2013-01-25 19:13:00,0.1,-11.1,29.09,NW,315,5.4,7.4,58,0.00,,---,1.46,VWS V14.01,2013-01-26 01:13:00,
2013-01-25 19:14:00,0.1,-11.1,29.09,NW,315,10.5,10.5,58,0.00,,---,1.46,VWS V14.01,2013-01-26 01:14:00,
2013-01-25 19:15:00,0.1,-11.1,29.09,NNW,338,6.0,10.5,58,0.00,,---,1.46,VWS V14.01,2013-01-26 01:15:00,
2013-01-25 19:16:00,0.1,-11.1,29.09,NW,315,5.6,6.0,58,0.00,,---,1.46,VWS V14.01,2013-01-26 01:16:00,
2013-01-25 19:17:00,0.1,-11.1,29.12,NW,315,7.8,7.8,58,0.00,,---,1.46,VWS V14.01,2013-01-26 01:17:00,
2013-01-25 19:18:00,0.1,-11.1,29.12,NW,315,8.7,10.1,58,0.00,,---,1.46,VWS V14.01,2013-01-26 01:18:00,
2013-01-25 19:19:00,0.1,-11.1,29.12,WNW,292,10.7,10.7,58,0.00,,---,1.46,VWS V14.01,2013-01-26 01:19:00,
2013-01-25 19:20:00,0.1,-11.1,29.12,NNW,338,8.5,10.7,58,0.00,,---,1.46,VWS V14.01,2013-01-26 01:20:00,
2013-01-25 19:21:00,0.1,-11.1,29.12,WNW,292,6.5,8.5,58,0.00,,---,1.46,VWS V14.01,2013-01-26 01:21:00,
2013-01-25 19:22:00,0.1,-11.1,29.12,NW,315,7.4,9.6,58,0.00,,---,1.46,VWS V14.01,2013-01-26 01:22:00,
2013-01-25 19:23:00,0.1,-11.1,29.12,NW,315,7.4,7.4,58,0.00,,---,1.46,VWS V14.01,2013-01-26 01:23:00,
2013-01-25 19:24:00,0.1,-11.1,29.12,West,270,6.0,7.6,58,0.00,,---,1.46,VWS V14.01,2013-01-26 01:24:00,
2013-01-25 19:25:00,0.1,-11.1,29.12,NW,315,6.7,6.7,58,0.00,,---,1.46,VWS V14.01,2013-01-26 01:25:00,
2013-01-25 19:26:00,0.1,-11.1,29.12,WNW,292,7.4,8.7,58,0.00,,---,1.46,VWS V14.01,2013-01-26 01:26:00,
2013-01-25 19:27:00,0.1,-11.1,29.12,NW,315,6.0,7.6,58,0.00,,---,1.46,VWS V14.01,2013-01-26 01:27:00,
2013-01-25 19:28:00,0.1,-11.1,29.12,NW,315,7.4,7.8,58,0.00,,---,1.46,VWS V14.01,2013-01-26 01:28:00,
2013-01-25 19:29:00,0.1,-11.1,29.12,WNW,292,5.8,8.7,58,0.00,,---,1.46,VWS V14.01,2013-01-26 01:29:00,
2013-01-25 19:30:00,0.1,-11.1,29.12,WNW,292,6.5,6.5,58,0.00,,---,1.46,VWS V14.01,2013-01-26 01:30:00,
2013-01-25 19:31:00,0.1,-11.1,29.12,NW,315,3.8,6.5,58,0.00,,---,1.46,VWS V14.01,2013-01-26 01:31:00,
2013-01-25 19:32:00,0.1,-11.1,29.09,WNW,292,6.5,7.8,58,0.00,,---,1.46,VWS V14.01,2013-01-26 01:32:00,
2013-01-25 19:33:00,0.1,-11.1,29.09,WNW,292,7.4,7.6,58,0.00,,---,1.46,VWS V14.01,2013-01-26 01:33:00,
2013-01-25 19:34:00,0.1,-11.1,29.09,NW,315,4.3,7.4,58,0.00,,---,1.46,VWS V14.01,2013-01-26 01:34:00,
2013-01-25 19:35:00,0.1,-11.1,29.09,NW,315,6.5,6.5,58,0.00,,---,1.46,VWS V14.01,2013-01-26 01:35:00,
2013-01-25 19:36:00,0.1,-11.1,29.09,NW,315,6.3,7.4,58,0.00,,---,1.46,VWS V14.01,2013-01-26 01:36:00,
2013-01-25 19:37:00,0.1,-11.1,29.09,NW,315,8.7,10.5,58,0.00,,---,1.46,VWS V14.01,2013-01-26 01:37:00,
2013-01-25 19:38:00,-0.4,-11.6,29.09,NNW,338,6.5,8.7,58,0.00,,---,1.46,VWS V14.01,2013-01-26 01:38:00,
2013-01-25 19:39:00,-0.4,-11.6,29.09,WNW,292,8.1,8.1,58,0.00,,---,1.46,VWS V14.01,2013-01-26 01:39:00,
2013-01-25 19:40:00,-0.4,-11.6,29.09,NNW,338,11.2,11.2,58,0.00,,---,1.46,VWS V14.01,2013-01-26 01:40:00,
2013-01-25 19:41:00,-0.4,-11.6,29.09,NW,315,6.5,11.2,58,0.00,,---,1.46,VWS V14.01,2013-01-26 01:41:00,
2013-01-25 19:42:00,-0.4,-11.6,29.09,NW,315,6.3,8.7,58,0.00,,---,1.46,VWS V14.01,2013-01-26 01:42:00,
2013-01-25 19:43:00,-0.4,-11.6,29.09,NW,315,11.0,11.0,58,0.00,,---,1.46,VWS V14.01,2013-01-26 01:43:00,
2013-01-25 19:44:00,-0.4,-11.6,29.09,NW,315,8.1,11.0,58,0.00,,---,1.46,VWS V14.01,2013-01-26 01:44:00,
2013-01-25 19:45:00,-0.4,-11.6,29.09,WNW,292,6.3,8.1,58,0.00,,---,1.46,VWS V14.01,2013-01-26 01:45:00,
2013-01-25 19:46:00,-0.4,-11.6,29.09,WNW,292,5.6,6.3,58,0.00,,---,1.46,VWS V14.01,2013-01-26 01:46:00,
2013-01-25 19:47:00,-0.6,-11.8,29.09,NW,315,5.4,6.0,58,0.00,,---,1.46,VWS V14.01,2013-01-26 01:47:00,
2013-01-25 19:48:00,-0.6,-11.8,29.09,NW,315,5.4,5.4,58,0.00,,---,1.46,VWS V14.01,2013-01-26 01:48:00,
2013-01-25 19:49:00,-0.6,-11.8,29.09,WNW,292,8.5,8.5,58,0.00,,---,1.46,VWS V14.01,2013-01-26 01:49:00,
2013-01-25 19:50:00,-0.6,-11.8,29.09,NW,315,8.1,8.5,58,0.00,,---,1.46,VWS V14.01,2013-01-26 01:50:00,
2013-01-25 19:51:00,-0.6,-11.8,29.09,WNW,292,10.3,11.0,58,0.00,,---,1.46,VWS V14.01,2013-01-26 01:51:00,
2013-01-25 19:52:00,-0.6,-11.8,29.09,WNW,292,8.1,10.3,58,0.00,,---,1.46,VWS V14.01,2013-01-26 01:52:00,
2013-01-25 19:53:00,-0.6,-11.8,29.09,West,270,5.4,8.1,58,0.00,,---,1.46,VWS V14.01,2013-01-26 01:53:00,
2013-01-25 19:54:00,-0.6,-11.8,29.09,NNW,338,8.1,8.1,58,0.00,,---,1.46,VWS V14.01,2013-01-26 01:54:00,
2013-01-25 19:55:00,-0.6,-11.8,29.09,NW,315,7.6,8.1,58,0.00,,---,1.46,VWS V14.01,2013-01-26 01:55:00,
2013-01-25 19:56:00,-0.6,-11.8,29.09,WNW,292,5.8,7.6,58,0.00,,---,1.46,VWS V14.01,2013-01-26 01:56:00,
2013-01-25 19:57:00,-0.6,-11.8,29.09,WNW,292,5.6,8.1,58,0.00,,---,1.46,VWS V14.01,2013-01-26 01:57:00,
2013-01-25 19:58:00,-0.6,-11.8,29.09,WNW,292,9.6,9.6,58,0.00,,---,1.46,VWS V14.01,2013-01-26 01:58:00,
2013-01-25 19:59:00,-0.6,-11.8,29.09,WNW,292,8.1,12.8,58,0.00,,---,1.46,VWS V14.01,2013-01-26 01:59:00,
2013-01-25 20:00:00,-0.6,-11.8,29.09,NW,315,7.8,8.1,58,0.00,,---,1.46,VWS V14.01,2013-01-26 02:00:00,
2013-01-25 20:01:00,-0.6,-11.8,29.09,WNW,292,10.7,10.7,58,0.00,,---,1.46,VWS V14.01,2013-01-26 02:01:00,
2013-01-25 20:02:00,-0.6,-11.8,29.09,WNW,292,7.8,10.7,58,0.00,,---,1.46,VWS V14.01,2013-01-26 02:02:00,
2013-01-25 20:03:00,-0.6,-11.8,29.09,NW,315,7.6,11.0,58,0.00,,---,1.46,VWS V14.01,2013-01-26 02:03:00,
2013-01-25 20:04:00,-0.6,-11.8,29.09,WNW,292,6.5,7.6,58,0.00,,---,1.46,VWS V14.01,2013-01-26 02:04:00,
2013-01-25 20:05:00,-0.6,-11.8,29.09,NW,315,5.8,6.7,58,0.00,,---,1.46,VWS V14.01,2013-01-26 02:05:00,
2013-01-25 20:06:00,-0.6,-11.8,29.09,WNW,292,7.2,7.8,58,0.00,,---,1.46,VWS V14.01,2013-01-26 02:06:00,
2013-01-25 20:07:00,-0.6,-11.8,29.09,WNW,292,5.6,7.4,58,0.00,,---,1.46,VWS V14.01,2013-01-26 02:07:00,
2013-01-25 20:08:00,-0.6,-11.8,29.09,NW,315,5.8,9.6,58,0.00,,---,1.46,VWS V14.01,2013-01-26 02:08:00,
2013-01-25 20:09:00,-0.6,-11.8,29.09,WNW,292,7.8,10.1,58,0.00,,---,1.46,VWS V14.01,2013-01-26 02:09:00,
2013-01-25 20:10:00,-0.6,-11.8,29.09,NW,315,6.0,9.6,58,0.00,,---,1.46,VWS V14.01,2013-01-26 02:10:00,
2013-01-25 20:11:00,-0.6,-11.8,29.09,NNW,338,8.7,8.7,58,0.00,,---,1.46,VWS V14.01,2013-01-26 02:11:00,
2013-01-25 20:12:00,-0.6,-11.8,29.09,NW,315,8.5,8.7,58,0.00,,---,1.46,VWS V14.01,2013-01-26 02:12:00,
2013-01-25 20:13:00,-0.6,-11.8,29.09,NW,315,7.6,8.5,58,0.00,,---,1.46,VWS V14.01,2013-01-26 02:13:00,
2013-01-25 20:14:00,-0.6,-11.8,29.09,NW,315,7.8,8.5,58,0.00,,---,1.46,VWS V14.01,2013-01-26 02:14:00,
2013-01-25 20:15:00,-0.6,-11.8,29.09,NW,315,5.8,8.1,58,0.00,,---,1.46,VWS V14.01,2013-01-26 02:15:00,
2013-01-25 20:16:00,-0.6,-11.8,29.09,NNW,338,9.6,9.6,58,0.00,,---,1.46,VWS V14.01,2013-01-26 02:16:00,
2013-01-25 20:17:00,-0.6,-11.8,29.06,NW,315,6.5,9.6,58,0.00,,---,1.46,VWS V14.01,2013-01-26 02:17:00,
2013-01-25 20:18:00,-0.6,-11.8,29.06,NNW,338,5.6,7.4,58,0.00,,---,1.46,VWS V14.01,2013-01-26 02:18:00,
2013-01-25 20:19:00,-0.6,-11.8,29.06,NW,315,5.8,5.8,58,0.00,,---,1.46,VWS V14.01,2013-01-26 02:19:00,
2013-01-25 20:20:00,-0.6,-11.8,29.06,NW,315,3.8,5.8,58,0.00,,---,1.46,VWS V14.01,2013-01-26 02:20:00,
2013-01-25 20:21:00,-0.6,-11.8,29.06,NW,315,6.3,6.3,58,0.00,,---,1.46,VWS V14.01,2013-01-26 02:21:00,
2013-01-25 20:22:00,-0.6,-11.8,29.06,NNW,338,4.0,6.3,58,0.00,,---,1.46,VWS V14.01,2013-01-26 02:22:00,
2013-01-25 20:23:00,-0.6,-11.8,29.06,NNW,338,4.0,4.0,58,0.00,,---,1.46,VWS V14.01,2013-01-26 02:23:00,
2013-01-25 20:24:00,-0.6,-11.8,29.06,NW,315,7.4,7.4,58,0.00,,---,1.46,VWS V14.01,2013-01-26 02:24:00,
2013-01-25 20:25:00,-0.6,-11.8,29.06,NW,315,6.3,7.4,58,0.00,,---,1.46,VWS V14.01,2013-01-26 02:25:00,
2013-01-25 20:26:00,-0.6,-11.8,29.06,WNW,292,7.4,7.4,58,0.00,,---,1.46,VWS V14.01,2013-01-26 02:26:00,
2013-01-25 20:27:00,-0.6,-11.8,29.06,NW,315,4.9,7.4,58,0.00,,---,1.46,VWS V14.01,2013-01-26 02:27:00,
2013-01-25 20:28:00,-0.6,-11.8,29.06,NW,315,6.0,7.4,58,0.00,,---,1.46,VWS V14.01,2013-01-26 02:28:00,
2013-01-25 20:29:00,-0.6,-11.8,29.06,NW,315,5.4,6.0,58,0.00,,---,1.46,VWS V14.01,2013-01-26 02:29:00,
2013-01-25 20:30:00,-0.6,-11.8,29.06,WSW,248,5.8,5.8,58,0.00,,---,1.46,VWS V14.01,2013-01-26 02:30:00,
2013-01-25 20:31:00,-0.6,-11.8,29.06,WNW,292,3.8,5.8,58,0.00,,---,1.46,VWS V14.01,2013-01-26 02:31:00,
2013-01-25 20:32:00,-0.6,-11.8,29.06,WNW,292,4.9,6.0,58,0.00,,---,1.46,VWS V14.01,2013-01-26 02:32:00,
2013-01-25 20:33:00,-0.6,-11.8,29.06,NW,315,4.9,5.8,58,0.00,,---,1.46,VWS V14.01,2013-01-26 02:33:00,
2013-01-25 20:34:00,-0.6,-11.8,29.06,NNW,338,4.0,5.6,58,0.00,,---,1.46,VWS V14.01,2013-01-26 02:34:00,
2013-01-25 20:35:00,-0.6,-11.8,29.06,WNW,292,6.0,6.0,58,0.00,,---,1.46,VWS V14.01,2013-01-26 02:35:00,
2013-01-25 20:36:00,-0.6,-11.8,29.06,NNW,338,4.3,8.7,58,0.00,,---,1.46,VWS V14.01,2013-01-26 02:36:00,
2013-01-25 20:37:00,-0.6,-11.8,29.06,NNW,338,3.8,4.3,58,0.00,,---,1.46,VWS V14.01,2013-01-26 02:37:00,
2013-01-25 20:38:00,-0.6,-11.8,29.06,NW,315,5.6,5.6,58,0.00,,---,1.46,VWS V14.01,2013-01-26 02:38:00,
2013-01-25 20:39:00,-0.6,-11.8,29.06,North,0,5.6,5.6,58,0.00,,---,1.46,VWS V14.01,2013-01-26 02:39:00,
2013-01-25 20:40:00,-0.6,-11.8,29.06,North,0,3.4,5.6,58,0.00,,---,1.46,VWS V14.01,2013-01-26 02:40:00,
2013-01-25 20:41:00,-0.6,-11.8,29.06,NW,315,5.6,5.6,58,0.00,,---,1.46,VWS V14.01,2013-01-26 02:41:00,
2013-01-25 20:42:00,-0.6,-11.8,29.06,NNW,338,4.9,5.6,58,0.00,,---,1.46,VWS V14.01,2013-01-26 02:42:00,
2013-01-25 20:43:00,-0.6,-11.8,29.06,WNW,292,2.9,4.9,58,0.00,,---,1.46,VWS V14.01,2013-01-26 02:43:00,
2013-01-25 20:44:00,-0.6,-11.8,29.06,NNW,338,2.7,5.4,58,0.00,,---,1.46,VWS V14.01,2013-01-26 02:44:00,
2013-01-25 20:45:00,-0.6,-11.8,29.06,NNW,338,4.0,4.0,58,0.00,,---,1.46,VWS V14.01,2013-01-26 02:45:00,
2013-01-25 20:46:00,-0.6,-11.8,29.06,NW,315,3.6,4.0,58,0.00,,---,1.46,VWS V14.01,2013-01-26 02:46:00,
2013-01-25 20:47:00,-0.6,-11.8,29.06,NW,315,3.6,3.6,58,0.00,,---,1.46,VWS V14.01,2013-01-26 02:47:00,
2013-01-25 20:48:00,-0.6,-11.8,29.09,NNW,338,3.6,3.6,58,0.00,,---,1.46,VWS V14.01,2013-01-26 02:48:00,
2013-01-25 20:49:00,-0.6,-11.8,29.09,WNW,292,2.9,4.3,58,0.00,,---,1.46,VWS V14.01,2013-01-26 02:49:00,
2013-01-25 20:50:00,-0.6,-11.8,29.09,WNW,292,3.8,3.8,58,0.00,,---,1.46,VWS V14.01,2013-01-26 02:50:00,
2013-01-25 20:51:00,-0.6,-11.8,29.09,WSW,248,3.4,4.3,58,0.00,,---,1.46,VWS V14.01,2013-01-26 02:51:00,
2013-01-25 20:52:00,-0.6,-11.8,29.09,WNW,292,3.8,3.8,58,0.00,,---,1.46,VWS V14.01,2013-01-26 02:52:00,
2013-01-25 20:53:00,-0.6,-11.8,29.09,WNW,292,3.1,3.8,58,0.00,,---,1.46,VWS V14.01,2013-01-26 02:53:00,
2013-01-25 20:54:00,-0.6,-11.8,29.09,WNW,292,2.9,3.1,58,0.00,,---,1.46,VWS V14.01,2013-01-26 02:54:00,
2013-01-25 20:55:00,-0.6,-11.8,29.09,West,270,3.6,3.6,58,0.00,,---,1.46,VWS V14.01,2013-01-26 02:55:00,
2013-01-25 20:56:00,-0.6,-11.8,29.09,NW,315,2.5,3.6,58,0.00,,---,1.46,VWS V14.01,2013-01-26 02:56:00,
2013-01-25 20:57:00,-0.6,-11.8,29.09,WNW,292,3.4,3.4,58,0.00,,---,1.46,VWS V14.01,2013-01-26 02:57:00,
2013-01-25 20:58:00,-0.6,-11.8,29.09,NNW,338,1.3,3.8,58,0.00,,---,1.46,VWS V14.01,2013-01-26 02:58:00,
2013-01-25 20:59:00,-0.6,-11.8,29.09,NW,315,1.1,2.7,58,0.00,,---,1.46,VWS V14.01,2013-01-26 02:59:00,
2013-01-25 21:00:00,-0.6,-11.8,29.09,NW,315,1.6,2.5,58,0.00,,---,1.46,VWS V14.01,2013-01-26 03:00:00,
2013-01-25 21:01:00,-0.6,-11.8,29.09,WNW,292,1.1,2.0,58,0.00,,---,1.46,VWS V14.01,2013-01-26 03:01:00,
2013-01-25 21:02:00,-0.6,-11.8,29.09,WNW,292,2.0,2.0,58,0.00,,---,1.46,VWS V14.01,2013-01-26 03:02:00,
2013-01-25 21:03:00,-0.6,-11.8,29.09,WNW,292,1.3,2.0,58,0.00,,---,1.46,VWS V14.01,2013-01-26 03:03:00,
2013-01-25 21:04:00,-0.6,-11.8,29.09,WNW,292,2.5,2.5,58,0.00,,---,1.46,VWS V14.01,2013-01-26 03:04:00,
2013-01-25 21:05:00,-0.6,-11.8,29.09,NNW,338,1.6,2.9,58,0.00,,---,1.46,VWS V14.01,2013-01-26 03:05:00,
2013-01-25 21:06:00,-0.6,-11.8,29.09,NW,315,1.3,2.0,58,0.00,,---,1.46,VWS V14.01,2013-01-26 03:06:00,
2013-01-25 21:07:00,-0.6,-11.8,29.09,NW,315,2.7,2.7,58,0.00,,---,1.46,VWS V14.01,2013-01-26 03:07:00,
2013-01-25 21:08:00,-0.6,-11.8,29.09,NW,315,3.4,3.4,58,0.00,,---,1.46,VWS V14.01,2013-01-26 03:08:00,
2013-01-25 21:09:00,-0.6,-11.8,29.09,WNW,292,2.0,2.5,58,0.00,,---,1.46,VWS V14.01,2013-01-26 03:09:00,
2013-01-25 21:10:00,-0.6,-11.8,29.09,WNW,292,2.0,2.0,58,0.00,,---,1.46,VWS V14.01,2013-01-26 03:10:00,
2013-01-25 21:11:00,-0.6,-11.8,29.09,NNW,338,2.5,3.6,58,0.00,,---,1.46,VWS V14.01,2013-01-26 03:11:00,
2013-01-25 21:12:00,-0.6,-11.8,29.09,NNW,338,2.7,2.7,58,0.00,,---,1.46,VWS V14.01,2013-01-26 03:12:00,
2013-01-25 21:13:00,-0.6,-11.8,29.09,NNW,338,2.7,2.7,58,0.00,,---,1.46,VWS V14.01,2013-01-26 03:13:00,
2013-01-25 21:14:00,-2.2,-13.3,29.09,NNW,338,4.7,4.7,58,0.00,,---,1.46,VWS V14.01,2013-01-26 03:14:00,
2013-01-25 21:15:00,-2.2,-13.3,29.09,NW,315,4.5,4.7,58,0.00,,---,1.46,VWS V14.01,2013-01-26 03:15:00,
2013-01-25 21:16:00,-2.2,-13.3,29.09,WNW,292,5.6,5.6,58,0.00,,---,1.46,VWS V14.01,2013-01-26 03:16:00,
2013-01-25 21:17:00,-2.2,-13.3,29.06,NW,315,3.4,5.6,58,0.00,,---,1.46,VWS V14.01,2013-01-26 03:17:00,
2013-01-25 21:18:00,-2.2,-13.3,29.06,NW,315,3.8,3.8,58,0.00,,---,1.46,VWS V14.01,2013-01-26 03:18:00,
2013-01-25 21:19:00,-2.2,-13.3,29.06,NW,315,3.8,4.3,58,0.00,,---,1.46,VWS V14.01,2013-01-26 03:19:00,
2013-01-25 21:20:00,-2.2,-13.3,29.06,WNW,292,3.6,4.0,58,0.00,,---,1.46,VWS V14.01,2013-01-26 03:20:00,
2013-01-25 21:21:00,-2.2,-13.3,29.06,NW,315,6.0,6.0,58,0.00,,---,1.46,VWS V14.01,2013-01-26 03:21:00,
2013-01-25 21:22:00,-2.2,-13.3,29.06,NW,315,4.7,6.3,58,0.00,,---,1.46,VWS V14.01,2013-01-26 03:22:00,
2013-01-25 21:23:00,-2.2,-13.3,29.06,WNW,292,4.5,4.7,58,0.00,,---,1.46,VWS V14.01,2013-01-26 03:23:00,
2013-01-25 21:24:00,-2.2,-13.3,29.06,NW,315,4.0,4.3,58,0.00,,---,1.46,VWS V14.01,2013-01-26 03:24:00,
2013-01-25 21:25:00,-2.2,-13.3,29.06,NNW,338,3.4,4.3,58,0.00,,---,1.46,VWS V14.01,2013-01-26 03:25:00,
2013-01-25 21:26:00,-2.2,-13.3,29.06,NNW,338,2.9,3.4,58,0.00,,---,1.46,VWS V14.01,2013-01-26 03:26:00,
2013-01-25 21:27:00,-2.2,-13.3,29.06,NNW,338,2.9,3.4,58,0.00,,---,1.46,VWS V14.01,2013-01-26 03:27:00,
2013-01-25 21:28:00,-2.2,-13.3,29.06,NNW,338,2.0,2.9,58,0.00,,---,1.46,VWS V14.01,2013-01-26 03:28:00,
2013-01-25 21:29:00,-2.2,-13.3,29.06,NNW,338,3.1,4.0,58,0.00,,---,1.46,VWS V14.01,2013-01-26 03:29:00,
2013-01-25 21:30:00,-2.2,-13.3,29.06,North,0,2.9,3.4,58,0.00,,---,1.46,VWS V14.01,2013-01-26 03:30:00,
2013-01-25 21:31:00,-2.2,-13.3,29.06,NNW,338,3.1,3.1,58,0.00,,---,1.46,VWS V14.01,2013-01-26 03:31:00,
2013-01-25 21:32:00,-2.2,-13.3,29.06,North,0,2.7,3.4,58,0.00,,---,1.46,VWS V14.01,2013-01-26 03:32:00,
2013-01-25 21:33:00,-2.2,-13.3,29.06,NNW,338,3.1,3.1,58,0.00,,---,1.46,VWS V14.01,2013-01-26 03:33:00,
2013-01-25 21:34:00,-2.2,-13.3,29.06,NNW,338,4.0,4.0,58,0.00,,---,1.46,VWS V14.01,2013-01-26 03:34:00,
2013-01-25 21:35:00,-2.2,-13.3,29.06,NNW,338,3.8,4.0,58,0.00,,---,1.46,VWS V14.01,2013-01-26 03:35:00,
2013-01-25 21:36:00,-2.2,-13.3,29.06,NNW,338,3.8,3.8,58,0.00,,---,1.46,VWS V14.01,2013-01-26 03:36:00,
2013-01-25 21:37:00,-2.2,-13.3,29.06,NNW,338,3.4,3.8,58,0.00,,---,1.46,VWS V14.01,2013-01-26 03:37:00,
2013-01-25 21:38:00,-2.2,-13.3,29.06,NNW,338,3.4,3.4,58,0.00,,---,1.46,VWS V14.01,2013-01-26 03:38:00,
2013-01-25 21:39:00,-2.2,-13.3,29.06,NNW,338,2.5,3.4,58,0.00,,---,1.46,VWS V14.01,2013-01-26 03:39:00,
2013-01-25 21:41:00,-2.2,-13.3,29.06,NW,315,2.9,2.9,58,0.00,,---,1.46,VWS V14.01,2013-01-26 03:41:00,
2013-01-25 21:42:00,-2.2,-13.3,29.06,NW,315,3.8,4.7,58,0.00,,---,1.46,VWS V14.01,2013-01-26 03:42:00,
2013-01-25 21:43:00,-2.2,-13.3,29.06,NW,315,4.0,4.0,58,0.00,,---,1.46,VWS V14.01,2013-01-26 03:43:00,
2013-01-25 21:44:00,-2.2,-13.3,29.06,NW,315,4.3,4.7,58,0.00,,---,1.46,VWS V14.01,2013-01-26 03:44:00,
2013-01-25 21:45:00,-2.9,-14.0,29.06,NNW,338,3.4,4.3,58,0.00,,---,1.46,VWS V14.01,2013-01-26 03:45:00,
2013-01-25 21:46:00,-2.9,-14.0,29.06,NNW,338,2.5,3.4,58,0.00,,---,1.46,VWS V14.01,2013-01-26 03:46:00,
2013-01-25 21:47:00,-2.9,-14.0,29.06,NNW,338,2.5,2.7,58,0.00,,---,1.46,VWS V14.01,2013-01-26 03:47:00,
2013-01-25 21:48:00,-2.9,-14.0,29.06,NNW,338,2.5,2.5,58,0.00,,---,1.46,VWS V14.01,2013-01-26 03:48:00,
2013-01-25 21:49:00,-2.9,-14.0,29.06,NNW,338,2.7,2.7,58,0.00,,---,1.46,VWS V14.01,2013-01-26 03:49:00,
2013-01-25 21:50:00,-3.1,-14.2,29.06,NNW,338,4.0,4.0,58,0.00,,---,1.46,VWS V14.01,2013-01-26 03:50:00,
2013-01-25 21:51:00,-3.1,-14.2,29.06,NW,315,3.6,4.0,58,0.00,,---,1.46,VWS V14.01,2013-01-26 03:51:00,
2013-01-25 21:52:00,-3.1,-14.2,29.06,NW,315,3.1,3.6,58,0.00,,---,1.46,VWS V14.01,2013-01-26 03:52:00,
2013-01-25 21:53:00,-3.1,-14.2,29.06,WNW,292,3.1,3.1,58,0.00,,---,1.46,VWS V14.01,2013-01-26 03:53:00,
2013-01-25 21:54:00,-3.3,-14.4,29.06,WNW,292,2.7,3.1,58,0.00,,---,1.46,VWS V14.01,2013-01-26 03:54:00,
2013-01-25 21:55:00,-3.3,-14.4,29.06,NW,315,2.7,3.1,58,0.00,,---,1.46,VWS V14.01,2013-01-26 03:55:00,
2013-01-25 21:56:00,-3.5,-14.5,29.06,WNW,292,1.6,2.9,58,0.00,,---,1.46,VWS V14.01,2013-01-26 03:56:00,
2013-01-25 21:57:00,-3.5,-14.5,29.06,WNW,292,2.7,2.7,58,0.00,,---,1.46,VWS V14.01,2013-01-26 03:57:00,
2013-01-25 21:58:00,-3.5,-14.5,29.06,NW,315,2.5,2.7,58,0.00,,---,1.46,VWS V14.01,2013-01-26 03:58:00,
2013-01-25 21:59:00,-3.5,-14.5,29.06,NNW,338,2.2,2.9,58,0.00,,---,1.46,VWS V14.01,2013-01-26 03:59:00,
2013-01-25 22:00:00,-3.5,-14.5,29.06,WNW,292,1.6,2.2,58,0.00,,---,1.46,VWS V14.01,2013-01-26 04:00:00,
2013-01-25 22:01:00,-3.5,-14.5,29.06,NW,315,2.2,2.2,58,0.00,,---,1.46,VWS V14.01,2013-01-26 04:01:00,
2013-01-25 22:02:00,-3.5,-14.5,29.06,WNW,292,2.2,2.2,58,0.00,,---,1.46,VWS V14.01,2013-01-26 04:02:00,
2013-01-25 22:03:00,-3.5,-14.5,29.06,WNW,292,2.2,2.2,58,0.00,,---,1.46,VWS V14.01,2013-01-26 04:03:00,
2013-01-25 22:04:00,-3.6,-14.7,29.06,West,270,3.1,3.6,58,0.00,,---,1.46,VWS V14.01,2013-01-26 04:04:00,
2013-01-25 22:06:00,-3.6,-14.7,29.06,West,270,3.4,3.4,58,0.00,,---,1.46,VWS V14.01,2013-01-26 04:06:00,
2013-01-25 22:07:00,-3.6,-14.7,29.06,WNW,292,2.5,3.6,58,0.00,,---,1.46,VWS V14.01,2013-01-26 04:07:00,
2013-01-25 22:08:00,-3.6,-14.7,29.06,WNW,292,2.9,2.9,58,0.00,,---,1.46,VWS V14.01,2013-01-26 04:08:00,
2013-01-25 22:09:00,-3.5,-14.5,29.06,WNW,292,2.0,2.2,58,0.00,,---,1.46,VWS V14.01,2013-01-26 04:09:00,
2013-01-25 22:11:00,-3.5,-14.5,29.06,NNW,338,2.0,2.5,58,0.00,,---,1.46,VWS V14.01,2013-01-26 04:11:00,
2013-01-25 22:12:00,-3.5,-14.5,29.06,NNW,338,1.3,2.0,58,0.00,,---,1.46,VWS V14.01,2013-01-26 04:12:00,
2013-01-25 22:13:00,-3.5,-14.5,29.06,NNW,338,1.1,1.3,58,0.00,,---,1.46,VWS V14.01,2013-01-26 04:13:00,
2013-01-25 22:14:00,-3.5,-14.5,29.06,NNW,338,2.0,2.0,58,0.00,,---,1.46,VWS V14.01,2013-01-26 04:14:00,
2013-01-25 22:15:00,-3.5,-14.5,29.06,NNW,338,2.2,2.5,58,0.00,,---,1.46,VWS V14.01,2013-01-26 04:15:00,
2013-01-25 22:17:00,-3.5,-14.5,29.06,NW,315,2.7,2.7,58,0.00,,---,1.46,VWS V14.01,2013-01-26 04:17:00,
2013-01-25 22:18:00,-3.5,-14.5,29.06,WNW,292,2.5,2.7,58,0.00,,---,1.46,VWS V14.01,2013-01-26 04:18:00,
2013-01-25 22:19:00,-3.5,-14.5,29.06,NW,315,2.5,2.5,58,0.00,,---,1.46,VWS V14.01,2013-01-26 04:19:00,
2013-01-25 22:20:00,-3.5,-14.5,29.06,NNW,338,2.0,2.5,58,0.00,,---,1.46,VWS V14.01,2013-01-26 04:20:00,
2013-01-25 22:21:00,-3.5,-14.5,29.06,NNW,338,1.6,2.0,58,0.00,,---,1.46,VWS V14.01,2013-01-26 04:21:00,
2013-01-25 22:22:00,-3.5,-14.5,29.06,NW,315,2.0,2.0,58,0.00,,---,1.46,VWS V14.01,2013-01-26 04:22:00,
2013-01-25 22:23:00,-3.5,-14.5,29.06,NW,315,2.5,2.5,58,0.00,,---,1.46,VWS V14.01,2013-01-26 04:23:00,
2013-01-25 22:24:00,-3.5,-14.5,29.06,WNW,292,2.7,3.6,58,0.00,,---,1.46,VWS V14.01,2013-01-26 04:24:00,
2013-01-25 22:25:00,-3.5,-14.5,29.06,WNW,292,4.3,4.3,58,0.00,,---,1.46,VWS V14.01,2013-01-26 04:25:00,
2013-01-25 22:26:00,-3.5,-14.5,29.06,West,270,4.3,4.3,58,0.00,,---,1.46,VWS V14.01,2013-01-26 04:26:00,
2013-01-25 22:27:00,-3.5,-14.5,29.06,WNW,292,4.0,4.5,58,0.00,,---,1.46,VWS V14.01,2013-01-26 04:27:00,
2013-01-25 22:28:00,-3.5,-14.5,29.06,WNW,292,2.9,4.0,58,0.00,,---,1.46,VWS V14.01,2013-01-26 04:28:00,
2013-01-25 22:29:00,-3.6,-14.7,29.06,WNW,292,2.7,3.4,58,0.00,,---,1.46,VWS V14.01,2013-01-26 04:29:00,
2013-01-25 22:30:00,-3.6,-14.7,29.06,WNW,292,2.9,2.9,58,0.00,,---,1.46,VWS V14.01,2013-01-26 04:30:00,
2013-01-25 22:31:00,-3.8,-14.9,29.06,WNW,292,2.9,2.9,58,0.00,,---,1.46,VWS V14.01,2013-01-26 04:31:00,
2013-01-25 22:32:00,-3.8,-14.9,29.06,WNW,292,3.4,3.4,58,0.00,,---,1.46,VWS V14.01,2013-01-26 04:32:00,
2013-01-25 22:33:00,-3.8,-14.9,29.06,WNW,292,3.4,3.4,58,0.00,,---,1.46,VWS V14.01,2013-01-26 04:33:00,
2013-01-25 22:34:00,-3.8,-14.9,29.06,WNW,292,2.0,3.4,58,0.00,,---,1.46,VWS V14.01,2013-01-26 04:34:00,
2013-01-25 22:35:00,-3.8,-14.9,29.06,NNW,338,2.7,2.7,58,0.00,,---,1.46,VWS V14.01,2013-01-26 04:35:00,
2013-01-25 22:36:00,-3.8,-14.9,29.06,NNW,338,2.0,2.7,58,0.00,,---,1.46,VWS V14.01,2013-01-26 04:36:00,
2013-01-25 22:37:00,-3.8,-14.9,29.06,NW,315,2.9,2.9,58,0.00,,---,1.46,VWS V14.01,2013-01-26 04:37:00,
2013-01-25 22:38:00,-3.8,-14.9,29.06,NW,315,2.5,3.1,58,0.00,,---,1.46,VWS V14.01,2013-01-26 04:38:00,
2013-01-25 22:39:00,-3.8,-14.9,29.06,WNW,292,2.7,2.7,58,0.00,,---,1.46,VWS V14.01,2013-01-26 04:39:00,
2013-01-25 22:40:00,-3.8,-14.9,29.06,WNW,292,2.5,2.9,58,0.00,,---,1.46,VWS V14.01,2013-01-26 04:40:00,
2013-01-25 22:41:00,-3.8,-14.9,29.06,NW,315,2.5,2.7,58,0.00,,---,1.46,VWS V14.01,2013-01-26 04:41:00,
2013-01-25 22:42:00,-3.8,-14.9,29.06,NNW,338,2.9,2.9,58,0.00,,---,1.46,VWS V14.01,2013-01-26 04:42:00,
2013-01-25 22:43:00,-3.8,-14.9,29.06,NW,315,2.7,2.9,58,0.00,,---,1.46,VWS V14.01,2013-01-26 04:43:00,
2013-01-25 22:44:00,-3.8,-14.9,29.06,NNW,338,2.7,2.7,58,0.00,,---,1.46,VWS V14.01,2013-01-26 04:44:00,
2013-01-25 22:45:00,-3.8,-14.9,29.06,NNW,338,3.1,3.1,58,0.00,,---,1.46,VWS V14.01,2013-01-26 04:45:00,
2013-01-25 22:46:00,-3.8,-14.9,29.06,NNW,338,3.4,3.4,58,0.00,,---,1.46,VWS V14.01,2013-01-26 04:46:00,
2013-01-25 22:47:00,-3.8,-14.9,29.06,NNW,338,2.9,3.4,58,0.00,,---,1.46,VWS V14.01,2013-01-26 04:47:00,
2013-01-25 22:48:00,-3.8,-14.9,29.06,NNW,338,2.5,2.9,58,0.00,,---,1.46,VWS V14.01,2013-01-26 04:48:00,
2013-01-25 22:49:00,-3.8,-14.9,29.06,NNW,338,1.6,2.5,58,0.00,,---,1.46,VWS V14.01,2013-01-26 04:49:00,
2013-01-25 22:50:00,-3.8,-14.9,29.06,NNW,338,1.3,1.6,58,0.00,,---,1.46,VWS V14.01,2013-01-26 04:50:00,
2013-01-25 22:51:00,-3.8,-14.9,29.06,NNW,338,1.6,1.6,58,0.00,,---,1.46,VWS V14.01,2013-01-26 04:51:00,
2013-01-25 22:52:00,-3.8,-14.9,29.06,NNW,338,1.1,1.6,58,0.00,,---,1.46,VWS V14.01,2013-01-26 04:52:00,
2013-01-25 22:53:00,-3.8,-14.9,29.06,NNW,338,2.0,2.0,58,0.00,,---,1.46,VWS V14.01,2013-01-26 04:53:00,
2013-01-25 22:54:00,-3.8,-14.9,29.06,WNW,292,2.2,2.5,58,0.00,,---,1.46,VWS V14.01,2013-01-26 04:54:00,
2013-01-25 22:55:00,-3.8,-14.9,29.06,WNW,292,2.9,2.9,58,0.00,,---,1.46,VWS V14.01,2013-01-26 04:55:00,
2013-01-25 22:56:00,-3.8,-14.9,29.06,WNW,292,3.4,3.6,58,0.00,,---,1.46,VWS V14.01,2013-01-26 04:56:00,
2013-01-25 22:57:00,-3.8,-14.9,29.06,WNW,292,2.7,3.8,58,0.00,,---,1.46,VWS V14.01,2013-01-26 04:57:00,
2013-01-25 22:58:00,-4.0,-15.0,29.06,WNW,292,3.1,3.4,58,0.00,,---,1.46,VWS V14.01,2013-01-26 04:58:00,
2013-01-25 22:59:00,-4.0,-15.0,29.06,WNW,292,2.7,2.7,58,0.00,,---,1.46,VWS V14.01,2013-01-26 04:59:00,
2013-01-25 23:00:00,-4.0,-15.0,29.06,WNW,292,2.5,3.4,58,0.00,,---,1.46,VWS V14.01,2013-01-26 05:00:00,
2013-01-25 23:01:00,-4.0,-15.0,29.06,WNW,292,2.5,2.5,58,0.00,,---,1.46,VWS V14.01,2013-01-26 05:01:00,
2013-01-25 23:02:00,-4.2,-15.2,29.06,WNW,292,2.9,3.4,58,0.00,,---,1.46,VWS V14.01,2013-01-26 05:02:00,
2013-01-25 23:04:00,-4.2,-15.2,29.06,WNW,292,3.1,3.1,58,0.00,,---,1.46,VWS V14.01,2013-01-26 05:04:00,
2013-01-25 23:05:00,-4.2,-15.2,29.06,WNW,292,2.2,3.1,58,0.00,,---,1.46,VWS V14.01,2013-01-26 05:05:00,
2013-01-25 23:06:00,-4.2,-15.2,29.06,NW,315,3.1,3.1,58,0.00,,---,1.46,VWS V14.01,2013-01-26 05:06:00,
2013-01-25 23:07:00,-4.2,-15.2,29.06,NNW,338,3.4,3.4,58,0.00,,---,1.46,VWS V14.01,2013-01-26 05:07:00,
2013-01-25 23:08:00,-4.2,-15.2,29.06,NNW,338,1.6,3.4,58,0.00,,---,1.46,VWS V14.01,2013-01-26 05:08:00,
2013-01-25 23:09:00,-4.2,-15.2,29.06,NNW,338,1.3,1.6,58,0.00,,---,1.46,VWS V14.01,2013-01-26 05:09:00,
2013-01-25 23:10:00,-4.2,-15.2,29.06,NNW,338,2.0,2.5,58,0.00,,---,1.46,VWS V14.01,2013-01-26 05:10:00,
2013-01-25 23:11:00,-4.2,-15.2,29.06,NNW,338,2.0,2.5,58,0.00,,---,1.46,VWS V14.01,2013-01-26 05:11:00,
2013-01-25 23:12:00,-4.0,-15.0,29.06,WNW,292,2.0,2.5,58,0.00,,---,1.46,VWS V14.01,2013-01-26 05:12:00,
2013-01-25 23:13:00,-4.0,-15.0,29.06,WNW,292,2.5,2.5,58,0.00,,---,1.46,VWS V14.01,2013-01-26 05:13:00,
2013-01-25 23:14:00,-4.0,-15.0,29.06,WNW,292,2.0,2.5,58,0.00,,---,1.46,VWS V14.01,2013-01-26 05:14:00,
2013-01-25 23:15:00,-4.0,-15.0,29.06,NW,315,1.6,2.2,58,0.00,,---,1.46,VWS V14.01,2013-01-26 05:15:00,
2013-01-25 23:16:00,-4.0,-15.0,29.06,NNW,338,2.5,2.7,58,0.00,,---,1.46,VWS V14.01,2013-01-26 05:16:00,
2013-01-25 23:17:00,-4.2,-15.2,29.09,NNW,338,2.0,2.7,58,0.00,,---,1.46,VWS V14.01,2013-01-26 05:17:00,
2013-01-25 23:18:00,-4.2,-15.2,29.09,NNW,338,2.0,2.2,58,0.00,,---,1.46,VWS V14.01,2013-01-26 05:18:00,
2013-01-25 23:19:00,-4.2,-15.2,29.09,NW,315,1.6,2.2,58,0.00,,---,1.46,VWS V14.01,2013-01-26 05:19:00,
2013-01-25 23:20:00,-4.2,-15.2,29.09,WNW,292,2.5,2.5,58,0.00,,---,1.46,VWS V14.01,2013-01-26 05:20:00,
2013-01-25 23:21:00,-4.2,-15.2,29.09,WNW,292,2.5,2.5,58,0.00,,---,1.46,VWS V14.01,2013-01-26 05:21:00,
2013-01-25 23:22:00,-4.2,-15.2,29.09,NW,315,2.5,2.5,58,0.00,,---,1.46,VWS V14.01,2013-01-26 05:22:00,
2013-01-25 23:23:00,-4.2,-15.2,29.09,NW,315,2.5,2.5,58,0.00,,---,1.46,VWS V14.01,2013-01-26 05:23:00,
2013-01-25 23:24:00,-4.4,-15.4,29.09,NNW,338,2.5,2.5,58,0.00,,---,1.46,VWS V14.01,2013-01-26 05:24:00,
2013-01-25 23:25:00,-4.4,-15.4,29.09,NNW,338,2.0,2.5,58,0.00,,---,1.46,VWS V14.01,2013-01-26 05:25:00,
2013-01-25 23:26:00,-4.2,-15.2,29.09,NNW,338,2.0,2.0,58,0.00,,---,1.46,VWS V14.01,2013-01-26 05:26:00,
2013-01-25 23:27:00,-4.4,-15.4,29.09,NNW,338,1.3,2.0,58,0.00,,---,1.46,VWS V14.01,2013-01-26 05:27:00,
2013-01-25 23:28:00,-4.4,-15.4,29.09,North,0,1.1,1.3,58,0.00,,---,1.46,VWS V14.01,2013-01-26 05:28:00,
2013-01-25 23:29:00,-4.4,-15.4,29.09,North,0,0.0,1.1,58,0.00,,---,1.46,VWS V14.01,2013-01-26 05:29:00,
2013-01-25 23:30:00,-4.4,-15.4,29.09,NNW,338,0.0,0.0,58,0.00,,---,1.46,VWS V14.01,2013-01-26 05:30:00,
2013-01-25 23:31:00,-4.4,-15.4,29.09,NNW,338,1.1,1.1,58,0.00,,---,1.46,VWS V14.01,2013-01-26 05:31:00,
2013-01-25 23:32:00,-4.4,-15.4,29.09,NNW,338,1.6,1.6,58,0.00,,---,1.46,VWS V14.01,2013-01-26 05:32:00,
2013-01-25 23:33:00,-4.4,-15.4,29.09,NNW,338,1.6,1.6,58,0.00,,---,1.46,VWS V14.01,2013-01-26 05:33:00,
2013-01-25 23:34:00,-4.4,-15.4,29.09,NNW,338,1.3,2.0,58,0.00,,---,1.46,VWS V14.01,2013-01-26 05:34:00,
2013-01-25 23:35:00,-4.4,-15.4,29.09,NNW,338,1.6,2.2,58,0.00,,---,1.46,VWS V14.01,2013-01-26 05:35:00,
2013-01-25 23:36:00,-4.4,-15.4,29.09,NNW,338,1.6,1.6,58,0.00,,---,1.46,VWS V14.01,2013-01-26 05:36:00,
2013-01-25 23:37:00,-4.4,-15.4,29.09,NNW,338,1.6,1.6,58,0.00,,---,1.46,VWS V14.01,2013-01-26 05:37:00,
2013-01-25 23:38:00,-4.4,-15.4,29.09,NNW,338,0.0,1.6,58,0.00,,---,1.46,VWS V14.01,2013-01-26 05:38:00,
2013-01-25 23:39:00,-4.4,-15.4,29.09,NE,45,0.0,0.0,58,0.00,,---,1.46,VWS V14.01,2013-01-26 05:39:00,
2013-01-25 23:40:00,-4.4,-15.4,29.09,ENE,68,0.0,0.0,58,0.00,,---,1.46,VWS V14.01,2013-01-26 05:40:00,
2013-01-25 23:41:00,-4.4,-15.4,29.09,ENE,68,0.0,0.0,58,0.00,,---,1.46,VWS V14.01,2013-01-26 05:41:00,
2013-01-25 23:42:00,-4.4,-15.4,29.09,NE,45,0.0,0.0,58,0.00,,---,1.46,VWS V14.01,2013-01-26 05:42:00,
2013-01-25 23:43:00,-4.4,-15.4,29.09,NNE,22,0.0,0.0,58,0.00,,---,1.46,VWS V14.01,2013-01-26 05:43:00,
2013-01-25 23:44:00,-4.5,-15.6,29.09,NNE,22,0.0,0.0,58,0.00,,---,1.46,VWS V14.01,2013-01-26 05:44:00,
2013-01-25 23:45:00,-4.5,-15.6,29.09,NNE,22,0.0,0.0,58,0.00,,---,1.46,VWS V14.01,2013-01-26 05:45:00,
2013-01-25 23:46:00,-4.5,-15.6,29.09,NNE,22,0.0,0.0,58,0.00,,---,1.46,VWS V14.01,2013-01-26 05:46:00,
2013-01-25 23:47:00,-4.5,-15.6,29.09,NNE,22,0.0,0.0,58,0.00,,---,1.46,VWS V14.01,2013-01-26 05:47:00,
2013-01-25 23:48:00,-4.5,-15.6,29.09,NNE,22,0.0,0.0,58,0.00,,---,1.46,VWS V14.01,2013-01-26 05:48:00,
2013-01-25 23:49:00,-4.5,-15.6,29.09,NNE,22,0.0,0.0,58,0.00,,---,1.46,VWS V14.01,2013-01-26 05:49:00,
2013-01-25 23:50:00,-4.5,-15.6,29.09,NNE,22,0.0,0.0,58,0.00,,---,1.46,VWS V14.01,2013-01-26 05:50:00,
2013-01-25 23:51:00,-4.5,-15.6,29.09,NNE,22,0.0,0.0,58,0.00,,---,1.46,VWS V14.01,2013-01-26 05:51:00,
2013-01-25 23:52:00,-4.5,-15.6,29.09,ENE,68,0.9,0.9,58,0.00,,---,1.46,VWS V14.01,2013-01-26 05:52:00,
2013-01-25 23:53:00,-4.7,-15.7,29.09,NNE,22,0.9,0.9,58,0.00,,---,1.46,VWS V14.01,2013-01-26 05:53:00,
2013-01-25 23:54:00,-4.7,-15.7,29.09,NNE,22,0.0,0.9,58,0.00,,---,1.46,VWS V14.01,2013-01-26 05:54:00,
2013-01-25 23:55:00,-4.7,-15.7,29.09,NNE,22,1.3,1.3,58,0.00,,---,1.46,VWS V14.01,2013-01-26 05:55:00,
2013-01-25 23:56:00,-4.7,-15.7,29.09,NNE,22,1.1,1.3,58,0.00,,---,1.46,VWS V14.01,2013-01-26 05:56:00,
2013-01-25 23:57:00,-4.7,-15.7,29.09,NNE,22,1.1,1.1,58,0.00,,---,1.46,VWS V14.01,2013-01-26 05:57:00,
2013-01-25 23:58:00,-4.7,-15.7,29.09,NNE,22,2.2,2.5,58,0.00,,---,1.46,VWS V14.01,2013-01-26 05:58:00,
2013-01-25 23:59:00,-4.7,-15.7,29.09,NNE,22,2.0,2.2,58,0.00,,---,1.46,VWS V14.01,2013-01-26 05:59:00,